[[{"header":{"parameterUnit":"m.s-1","parameterCategory":1,"la1":30.6,"la2":28.766,"lo1":-90.7593,"lo2":-88.6598,"dy":0.0162,"dx":0.0183,"nx":116,"ny":114,"refTime":"2023-10-01T12:00:00:Z","depth":0,"parameterNumber":2,"parameterNumberName":"U-component_of_WINDS"},"data":[0.0,0.0,0.0,0.0,0.0,0.0,0.0,0.0,0.0,0.0,0.0,0.0,0.0,0.0,0.0,0.0,0.0,0.0,0.0,0.0,0.0,0.0,0.0,0.0,0.0,0.0,0.0,0.0,0.0,0.0,0.0,0.0,0.0,0.0,0.0,0.0,0.0,0.0,0.0,0.0,0.0,0.0,0.0,0.0,0.0,0.0,0.0,0.0,0.0,0.0,0.0,0.0,0.0,0.0,0.0,0.0,0.0,0.0,0.0,0.0,0.0,0.0,0.0,0.0,0.0,0.0,0.0,0.0,0.0,0.0,0.0,0.0,0.0,0.0,0.0,0.0,0.0,0.0,0.0,0.0,0.0,0.0,0.0,0.0,0.0,0.0,0.0,0.0,0.0,0.0,0.0,0.0,0.0,0.0,0.0,0.0,0.0,0.0,0.0,0.0,0.0,0.0,0.0,0.0,0.0,0.0,0.0,0.0,0.0,0.0,0.0,0.0,0.0,0.0,0.0,0.0,0.0,0.0,0.0,0.0,0.0,0.0,0.0,0.0,0.0,0.0,0.0,0.0,0.0,0.0,0.0,0.0,0.0,0.0,0.0,0.0,0.0,0.0,0.0,0.0,0.0,0.0,0.0,0.0,0.0,0.0,0.0,0.0,0.0,0.0,0.0,0.0,0.0,0.0,0.0,0.0,0.0,0.0,0.0,0.0,0.0,0.0,0.0,0.0,0.0,0.0,0.0,0.0,0.0,0.0,0.0,0.0,0.0,0.0,0.0,0.0,0.0,0.0,0.0,0.0,0.0,0.0,0.0,0.0,0.0,0.0,0.0,0.0,0.0,0.0,0.0,0.0,0.0,0.0,0.0,0.0,0.0,0.0,0.0,0.0,0.0,0.0,0.0,0.0,0.0,0.0,0.0,0.0,0.0,0.0,0.0,0.0,0.0,0.0,0.0,0.0,0.0,0.0,0.0,0.0,0.0,0.0,0.0,0.0,0.0,0.0,0.0,0.0,0.0,0.0,0.0,0.0,0.0,0.0,0.0,0.0,0.0,0.0,0.0,0.0,0.0,0.0,0.0,0.0,0.0,0.0,0.0,0.0,0.0,0.0,0.0,0.0,0.0,0.0,0.0,0.0,0.0,0.0,0.0,0.0,0.0,0.0,0.0,0.0,0.0,0.0,0.0,0.0,0.0,0.0,0.0,0.0,0.0,0.0,0.0,0.0,0.0,0.0,0.0,0.0,0.0,0.0,0.0,0.0,0.0,0.0,0.0,0.0,0.0,0.0,0.0,0.0,0.0,0.0,0.0,0.0,0.0,0.0,0.0,0.0,0.0,0.0,0.0,0.0,0.0,0.0,0.0,0.0,0.0,0.0,0.0,0.0,0.0,0.0,0.0,0.0,0.0,0.0,0.0,0.0,0.0,0.0,0.0,0.0,0.0,0.0,0.0,0.0,0.0,0.0,0.0,0.0,0.0,0.0,0.0,0.0,0.0,0.0,0.0,0.0,0.0,0.0,0.0,0.0,0.0,0.0,0.0,0.0,0.0,0.0,0.0,0.0,0.0,0.0,0.0,0.0,0.0,0.0,0.0,0.0,0.0,0.0,0.0,0.0,0.0,0.0,0.0,0.0,0.0,0.0,0.0,0.0,0.0,0.0,0.0,0.0,0.0,0.0,0.0,0.0,0.0,0.0,0.0,0.0,0.0,0.0,0.0,0.0,0.0,0.0,0.0,0.0,0.0,0.0,0.0,0.0,0.0,0.0,0.0,0.0,0.0,0.0,0.0,0.0,0.0,0.0,0.0,0.0,0.0,0.0,0.0,0.0,0.0,0.0,0.0,0.0,0.0,0.0,0.0,0.0,0.0,0.0,0.0,0.0,0.0,0.0,0.0,0.0,0.0,0.0,0.0,0.0,0.0,0.0,0.0,0.0,0.0,0.0,0.0,0.0,0.0,0.0,0.0,0.0,0.0,0.0,0.0,0.0,0.0,0.0,0.0,0.0,0.0,0.0,0.0,0.0,0.0,0.0,0.0,0.0,0.0,0.0,0.0,0.0,0.0,0.0,0.0,0.0,0.0,0.0,0.0,0.0,0.0,0.0,0.0,0.0,0.0,0.0,0.0,0.0,0.0,0.0,0.0,0.0,0.0,0.0,0.0,0.0,0.0,0.0,0.0,0.0,0.0,0.0,0.0,0.0,0.0,0.0,0.0,0.0,0.0,0.0,0.0,0.0,0.0,0.0,0.0,0.0,0.0,0.0,0.0,0.0,0.0,0.0,0.0,0.0,0.0,0.0,0.0,0.0,0.0,0.0,0.0,0.0,0.0,0.0,0.0,0.0,0.0,0.0,0.0,0.0,0.0,0.0,0.0,0.0,0.0,0.0,0.0,0.0,0.0,0.0,0.0,0.0,0.0,0.0,0.0,0.0,0.0,0.0,0.0,0.0,0.0,0.0,0.0,0.0,0.0,0.0,0.0,0.0,0.0,0.0,0.0,0.0,0.0,0.0,0.0,0.0,0.0,0.0,0.0,0.0,0.0,0.0,0.0,0.0,0.0,0.0,0.0,0.0,0.0,0.0,0.0,0.0,0.0,0.0,0.0,0.0,0.0,0.0,0.0,0.0,0.0,0.0,0.0,0.0,0.0,0.0,0.0,0.0,0.0,0.0,0.0,0.0,0.0,0.0,0.0,0.0,0.0,0.0,0.0,0.0,0.0,0.0,0.0,0.0,0.0,0.0,0.0,0.0,0.0,0.0,0.0,0.0,0.0,0.0,0.0,0.0,0.0,0.0,0.0,0.0,0.0,0.0,0.0,0.0,0.0,0.0,0.0,0.0,0.0,0.0,0.0,0.0,0.0,0.0,0.0,0.0,0.0,0.0,0.0,0.0,0.0,0.0,0.0,0.0,0.0,0.0,0.0,0.0,0.0,0.0,0.0,0.0,0.0,0.0,0.0,0.0,0.0,0.0,0.0,0.0,0.0,0.0,0.0,0.0,0.0,0.0,0.0,0.0,0.0,0.0,0.0,0.0,0.0,0.0,0.0,0.0,0.0,0.0,0.0,0.0,0.0,0.0,0.0,0.0,0.0,0.0,0.0,0.0,0.0,0.0,0.0,0.0,0.0,0.0,0.0,0.0,0.0,0.0,0.0,0.0,0.0,0.0,0.0,0.0,0.0,0.0,0.0,0.0,0.0,0.0,0.0,0.0,0.0,0.0,0.0,0.0,0.0,0.0,0.0,0.0,0.0,0.0,0.0,0.0,0.0,0.0,0.0,0.0,0.0,0.0,0.0,0.0,0.0,0.0,0.0,0.0,0.0,0.0,0.0,0.0,0.0,0.0,0.0,0.0,0.0,0.0,0.0,0.0,0.0,0.0,0.0,0.0,0.0,0.0,0.0,0.0,0.0,0.0,0.0,0.0,0.0,0.0,0.0,0.0,0.0,0.0,0.0,0.0,0.0,0.0,0.0,0.0,0.0,0.0,0.0,0.0,0.0,0.0,0.0,0.0,0.0,0.0,0.0,0.0,0.0,0.0,0.0,0.0,0.0,0.0,0.0,0.0,0.0,0.0,0.0,0.0,0.0,0.0,0.0,0.0,0.0,0.0,0.0,0.0,0.0,0.0,0.0,0.0,0.0,0.0,0.0,0.0,0.0,0.0,0.0,0.0,0.0,0.0,0.0,0.0,0.0,0.0,0.0,0.0,0.0,0.0,0.0,0.0,0.0,0.0,0.0,0.0,0.0,0.0,0.0,0.0,0.0,0.0,0.0,0.0,0.0,0.0,0.0,0.0,0.0,0.0,0.0,0.0,0.0,0.0,0.0,0.0,0.0,0.0,0.0,0.0,0.0,0.0,0.0,0.0,0.0,0.0,0.0,0.0,0.0,0.0,0.0,0.0,0.0,0.0,0.0,0.0,0.0,0.0,0.0,0.0,0.0,0.0,0.0,0.0,0.0,0.0,0.0,0.0,0.0,0.0,0.0,0.0,0.0,0.0,0.0,0.0,0.0,0.0,0.0,0.0,0.0,0.0,0.0,0.0,0.0,0.0,0.0,0.0,0.0,0.0,0.0,0.0,0.0,0.0,0.0,0.0,0.0,0.0,0.0,0.0,0.0,0.0,0.0,0.0,0.0,0.0,0.0,0.0,0.0,0.0,0.0,0.0,0.0,0.0,0.0,0.0,0.0,0.0,0.0,0.0,0.0,0.0,0.0,0.0,0.0,0.0,0.0,0.0,0.0,0.0,0.0,0.0,0.0,0.0,0.0,0.0,0.0,0.0,0.0,0.0,0.0,0.0,0.0,0.0,0.0,0.0,0.0,0.0,0.0,0.0,0.0,0.0,0.0,0.0,0.0,0.0,0.0,0.0,0.0,0.0,0.0,0.0,0.0,0.0,0.0,0.0,0.0,0.0,0.0,0.0,0.0,0.0,0.0,0.0,0.0,0.0,0.0,0.0,0.0,0.0,0.0,0.0,0.0,0.0,0.0,0.0,0.0,0.0,0.0,0.0,0.0,0.0,0.0,0.0,0.0,0.0,0.0,0.0,0.0,0.0,0.0,0.0,0.0,0.0,0.0,0.0,0.0,0.0,0.0,0.0,0.0,0.0,0.0,0.0,0.0,0.0,0.0,0.0,0.0,0.0,0.0,0.0,0.0,0.0,0.0,0.0,0.0,0.0,0.0,0.0,0.0,0.0,0.0,0.0,0.0,0.0,0.0,0.0,0.0,0.0,0.0,0.0,0.0,0.0,0.0,0.0,0.0,0.0,0.0,0.0,0.0,0.0,0.0,0.0,0.0,0.0,0.0,0.0,0.0,0.0,0.0,0.0,0.0,0.0,0.0,0.0,0.0,0.0,0.0,0.0,0.0,0.0,0.0,0.0,0.0,0.0,0.0,0.0,0.0,0.0,0.0,0.0,0.0,0.0,0.0,0.0,0.0,0.0,0.0,0.0,0.0,0.0,0.0,0.0,0.0,0.0,0.0,0.0,0.0,0.0,0.0,0.0,0.0,0.0,0.0,0.0,0.0,0.0,0.0,0.0,0.0,0.0,0.0,0.0,0.0,0.0,0.0,0.0,0.0,0.0,0.0,0.0,0.0,0.0,0.0,0.0,0.0,0.0,0.0,0.0,0.0,0.0,0.0,0.0,0.0,0.0,0.0,0.0,0.0,0.0,0.0,0.0,0.0,0.0,0.0,0.0,0.0,0.0,0.0,0.0,0.0,0.0,0.0,0.0,0.0,0.0,0.0,0.0,0.0,0.0,0.0,0.0,0.0,0.0,0.0,0.0,0.0,0.0,0.0,0.0,0.0,0.0,0.0,0.0,0.0,0.0,0.0,0.0,0.0,0.0,0.0,0.0,0.0,0.0,0.0,0.0,0.0,0.0,0.0,0.0,0.0,0.0,0.0,0.0,0.0,0.0,0.0,0.0,0.0,0.0,0.0,0.0,0.0,0.0,0.0,0.0,0.0,0.0,0.0,0.0,0.0,0.0,0.0,0.0,0.0,0.0,0.0,0.0,0.0,0.0,0.0,0.0,0.0,0.0,0.0,0.0,0.0,0.0,0.0,0.0,0.0,0.0,0.0,0.0,0.0,0.0,0.0,0.0,0.0,0.0,0.0,0.0,0.0,0.0,0.0,0.0,0.0,0.0,0.0,0.0,0.0,0.0,0.0,0.0,0.0,0.0,0.0,0.0,0.0,0.0,0.0,0.0,0.0,0.0,0.0,0.0,0.0,0.0,0.0,0.0,0.0,0.0,0.0,0.0,0.0,0.0,0.0,0.0,0.0,0.0,0.0,0.0,0.0,0.0,0.0,0.0,0.0,0.0,0.0,0.0,0.0,0.0,0.0,0.0,0.0,0.0,0.0,0.0,0.0,0.0,0.0,0.0,0.0,0.0,0.0,0.0,0.0,0.0,0.0,0.0,0.0,0.0,0.0,0.0,0.0,0.0,0.0,0.0,0.0,0.0,0.0,0.0,0.0,0.0,0.0,0.0,0.0,0.0,0.0,0.0,0.0,0.0,0.0,0.0,0.0,0.0,0.0,0.0,0.0,0.0,0.0,0.0,0.0,0.0,0.0,0.0,0.0,0.0,0.0,0.0,0.0,0.0,-0.8235,0.0,0.0,0.0,0.0,0.0,0.0,0.0,0.0,0.0,0.0,0.0,0.0,0.0,0.0,0.0,0.0,0.0,0.0,0.0,0.0,0.0,0.0,0.0,0.0,0.0,0.0,0.0,0.0,0.0,0.0,0.0,0.0,0.0,0.0,0.0,0.0,0.0,0.0,-0.606,-0.606,-0.606,-0.606,-0.6191,-0.6143,-0.5963,0.0,0.0,0.0,0.0,0.0,0.0,0.0,0.0,0.0,0.0,0.0,0.0,0.0,0.0,0.0,0.0,0.0,0.0,0.0,0.0,0.0,0.0,0.0,0.0,0.0,0.0,0.0,0.0,0.0,0.0,0.0,0.0,0.0,0.0,0.0,0.0,0.0,0.0,0.0,0.0,0.0,0.0,0.0,0.0,0.0,0.0,0.0,0.0,0.0,0.0,0.0,0.0,0.0,0.0,0.0,0.0,0.0,0.0,0.0,0.0,0.0,0.0,0.0,0.0,0.0,0.0,0.0,0.0,0.0,0.0,0.0,-0.81,0.0,0.0,0.0,0.0,0.0,0.0,0.0,0.0,0.0,0.0,0.0,0.0,0.0,0.0,0.0,0.0,0.0,0.0,0.0,0.0,0.0,0.0,0.0,-0.5574,-0.5574,-0.5574,-0.5574,-0.5574,0.0,0.0,0.0,0.0,0.0,0.0,-0.5644,-0.5688,-0.5688,-0.5644,-0.5644,-0.5463,-0.5149,-0.5594,-0.5364,-0.4688,-0.5872,0.0,0.0,0.0,0.0,0.0,0.0,0.0,0.0,0.0,0.0,0.0,0.0,0.0,0.0,0.0,0.0,0.0,0.0,0.0,0.0,0.0,0.0,0.0,0.0,0.0,0.0,0.0,0.0,0.0,0.0,0.0,0.0,0.0,0.0,0.0,0.0,0.0,0.0,0.0,0.0,0.0,0.0,0.0,0.0,0.0,0.0,0.0,0.0,0.0,0.0,0.0,0.0,0.0,0.0,0.0,0.0,0.0,0.0,0.0,0.0,0.0,0.0,0.0,-0.7543,-0.7066,-0.617,-0.6897,-0.6674,-0.5813,-0.7013,-0.7546,-0.7551,0.0,0.0,0.0,0.0,0.0,0.0,0.0,0.0,0.0,0.0,0.0,0.0,0.0,0.0,0.0,0.0,0.0,0.0,0.0,0.0,-0.5233,-0.5099,-0.5099,-0.5099,-0.5099,-0.5099,-0.5099,-0.5099,0.0,0.0,0.0,0.0,-0.5438,-0.5438,-0.5621,-0.5621,-0.5438,-0.5438,-0.4565,-0.2955,-0.403,-0.405,-0.3267,-0.5428,-0.6406,-0.6384,0.0,0.0,0.0,0.0,0.0,0.0,0.0,0.0,0.0,0.0,0.0,0.0,0.0,0.0,0.0,0.0,0.0,0.0,0.0,0.0,0.0,0.0,0.0,0.0,0.0,0.0,0.0,0.0,0.0,0.0,0.0,0.0,0.0,0.0,0.0,0.0,0.0,0.0,0.0,0.0,0.0,-0.5956,-0.619,0.0,0.0,0.0,0.0,0.0,0.0,0.0,0.0,0.0,0.0,0.0,0.0,0.0,-0.6765,-0.5761,-0.6791,-0.6793,-0.5734,-0.5734,-0.5678,-0.5481,-0.4585,-0.4643,-0.5455,-0.565,0.0,-0.7265,-0.7293,0.0,0.0,0.0,0.0,0.0,0.0,0.0,0.0,0.0,0.0,0.0,0.0,0.0,0.0,0.0,0.0,0.0,0.0,0.0,0.0,0.0,-0.501,-0.501,-0.501,-0.501,-0.501,-0.501,-0.501,0.0,0.0,-0.5122,-0.5169,-0.5169,-0.5258,-0.5258,-0.5169,-0.5169,-0.481,-0.4139,-0.4679,-0.4768,-0.4523,-0.5547,-0.6016,-0.5994,-0.5908,0.0,0.0,0.0,0.0,0.0,0.0,0.0,0.0,0.0,0.0,0.0,0.0,0.0,0.0,0.0,0.0,0.0,0.0,0.0,0.0,0.0,0.0,0.0,0.0,0.0,0.0,0.0,0.0,0.0,0.0,0.0,0.0,0.0,0.0,0.0,0.0,0.0,0.0,0.0,-0.6276,-0.6229,-0.6516,-0.6484,-0.658,0.0,0.0,0.0,0.0,0.0,0.0,0.0,0.0,0.0,-0.6907,-0.7099,-0.6624,-0.5399,-0.5927,-0.5596,-0.4383,-0.4395,-0.4022,-0.3371,-0.3541,-0.3529,-0.3421,-0.4095,-0.5061,-0.6235,-0.6932,-0.721,-0.721,0.0,0.0,0.0,0.0,-0.7226,-0.7255,0.0,0.0,0.0,0.0,0.0,0.0,0.0,0.0,0.0,0.0,0.0,0.0,-0.481,-0.481,-0.481,-0.481,-0.481,-0.481,-0.481,-0.481,-0.481,-0.481,-0.4877,-0.4924,-0.4924,-0.4924,-0.4924,-0.4924,-0.4924,-0.4899,-0.4835,-0.4901,-0.5013,-0.5171,-0.5171,-0.5374,-0.5688,-0.5688,-0.5727,-0.5751,0.0,0.0,0.0,0.0,0.0,0.0,0.0,0.0,0.0,0.0,0.0,0.0,0.0,0.0,0.0,0.0,0.0,0.0,0.0,0.0,0.0,0.0,0.0,0.0,0.0,0.0,0.0,0.0,0.0,0.0,0.0,0.0,0.0,0.0,0.0,0.0,0.0,-0.6247,-0.6211,-0.6475,-0.6411,-0.6451,0.0,0.0,0.0,0.0,0.0,0.0,-0.6302,-0.6495,-0.6604,-0.6604,-0.6854,-0.6432,-0.5286,-0.5276,-0.472,-0.3595,-0.3278,-0.2666,-0.1832,-0.2413,-0.2349,-0.1854,-0.2757,-0.4023,-0.5491,-0.6368,-0.692,-0.7229,-0.7229,-0.7248,-0.7278,-0.7278,-0.7307,-0.7354,0.0,0.0,0.0,0.0,0.0,0.0,0.0,0.0,0.0,0.0,0.0,-0.4342,-0.4342,-0.4342,-0.4342,-0.4342,-0.4342,-0.4342,-0.4342,-0.4342,-0.4342,-0.4342,-0.4569,-0.4703,-0.4703,-0.4703,-0.4703,-0.4703,-0.4703,-0.4235,-0.3317,-0.358,-0.369,-0.3712,-0.3712,-0.4451,-0.5688,-0.5688,-0.5773,-0.5885,-0.5754,0.0,0.0,0.0,0.0,0.0,0.0,0.0,0.0,0.0,0.0,0.0,0.0,0.0,0.0,0.0,0.0,0.0,0.0,0.0,0.0,0.0,0.0,0.0,0.0,0.0,0.0,0.0,0.0,0.0,0.0,0.0,0.0,0.0,0.0,0.0,0.0,0.0,0.0,-0.5721,-0.581,0.0,0.0,0.0,0.0,-0.633,-0.6302,-0.6302,-0.6302,-0.6302,-0.633,-0.633,-0.633,-0.5877,-0.492,-0.4916,-0.4468,-0.3575,-0.2429,-0.1871,-0.176,-0.0682,-0.0774,-0.1806,-0.1864,-0.3252,-0.549,-0.5495,-0.621,-0.7297,-0.7297,-0.7368,-0.747,-0.747,-0.7476,-0.7479,0.0,0.0,0.0,0.0,0.0,0.0,0.0,0.0,-0.6337,-0.5505,-0.4768,-0.43,-0.43,-0.4032,-0.3853,-0.3853,-0.3583,-0.3403,-0.3403,-0.3674,-0.3853,-0.3853,-0.4233,-0.4433,-0.4433,-0.4433,-0.4433,-0.4433,-0.4433,-0.4344,-0.4168,-0.4255,-0.4395,-0.4563,-0.4563,-0.4897,-0.5447,-0.5583,-0.5777,-0.6015,-0.5975,-0.601,0.0,0.0,0.0,0.0,0.0,0.0,0.0,0.0,0.0,0.0,0.0,0.0,0.0,0.0,0.0,0.0,0.0,0.0,0.0,0.0,0.0,0.0,0.0,0.0,0.0,0.0,0.0,0.0,0.0,0.0,0.0,0.0,0.0,0.0,0.0,0.0,0.0,-0.6049,-0.5913,0.0,-0.6274,-0.6105,-0.5991,-0.5991,-0.5826,-0.5717,-0.5717,-0.5882,-0.5991,-0.5991,-0.6188,-0.5768,-0.4644,-0.465,-0.4184,-0.3277,-0.2669,-0.2507,-0.2757,-0.2103,-0.2075,-0.2558,-0.257,-0.3498,-0.4986,-0.4958,-0.5936,-0.7395,-0.7196,-0.7135,-0.7142,-0.6932,-0.6918,-0.6981,0.0,0.0,0.0,0.0,0.0,0.0,0.0,-0.6691,-0.5897,-0.5124,-0.432,-0.3829,-0.3829,-0.354,-0.3361,-0.3361,-0.3069,-0.2889,-0.2889,-0.3183,-0.3361,-0.3361,-0.3652,-0.3909,-0.4096,-0.4098,-0.4202,-0.4391,-0.4391,-0.4483,-0.4667,-0.4667,-0.4768,-0.4921,-0.4921,-0.5047,-0.5234,-0.5379,-0.5672,-0.6021,-0.5984,-0.6064,-0.62,0.0,0.0,0.0,0.0,0.0,0.0,0.0,0.0,0.0,0.0,0.0,0.0,0.0,0.0,0.0,0.0,0.0,0.0,0.0,0.0,0.0,0.0,0.0,0.0,0.0,0.0,0.0,0.0,0.0,0.0,0.0,0.0,0.0,0.0,-0.5798,-0.574,-0.5968,-0.5798,-0.574,-0.5968,-0.5798,-0.5656,-0.5656,-0.5518,-0.5424,-0.5424,-0.5621,-0.5723,-0.5723,-0.5952,-0.5552,-0.4442,-0.4422,-0.3752,-0.2409,-0.2659,-0.2716,-0.2522,-0.2764,-0.2917,-0.3008,-0.2998,-0.3674,-0.4775,-0.4775,-0.5758,-0.7282,-0.7007,-0.6929,-0.6931,-0.6718,-0.6704,-0.6763,0.0,0.0,0.0,0.0,0.0,0.0,-0.7275,-0.6312,-0.5354,-0.4454,-0.3494,-0.2889,-0.2889,-0.2889,-0.2867,-0.2867,-0.2867,-0.2844,-0.2844,-0.2867,-0.289,-0.2892,-0.2892,-0.3148,-0.3656,-0.3681,-0.3973,-0.4547,-0.4571,-0.4571,-0.4571,-0.4597,-0.4597,-0.4601,-0.4601,-0.4794,-0.5096,-0.5096,-0.5389,-0.5869,-0.574,-0.5969,-0.6373,0.0,0.0,0.0,0.0,0.0,0.0,0.0,0.0,0.0,0.0,0.0,0.0,0.0,0.0,0.0,0.0,0.0,0.0,0.0,0.0,0.0,0.0,0.0,0.0,0.0,0.0,0.0,0.0,0.0,0.0,0.0,0.0,0.0,-0.5409,-0.5409,-0.5409,-0.5409,-0.5412,-0.5414,-0.5414,-0.5416,-0.5418,-0.5418,-0.5465,-0.5512,-0.5512,-0.5567,-0.5614,-0.5614,-0.5614,-0.5174,-0.4293,-0.4293,-0.3175,-0.1058,-0.2353,-0.2295,-0.1148,-0.2449,-0.3039,-0.3103,-0.309,-0.3786,-0.4926,-0.4926,-0.5696,-0.686,-0.6726,-0.678,-0.687,-0.687,-0.687,-0.6808,0.0,0.0,0.0,0.0,0.0,0.0,-0.7742,-0.6425,-0.5381,-0.5139,-0.3825,-0.2889,-0.2889,-0.2599,-0.2399,-0.2399,-0.204,-0.1816,-0.1816,-0.2175,-0.255,-0.2885,-0.2909,-0.2985,-0.3188,-0.319,-0.3269,-0.343,-0.3832,-0.4022,-0.4022,-0.4429,-0.4632,-0.4671,-0.4671,-0.4743,-0.4872,-0.4872,-0.5074,-0.5397,-0.5565,-0.5711,-0.5807,0.0,0.0,0.0,0.0,0.0,0.0,0.0,0.0,0.0,0.0,0.0,0.0,0.0,0.0,0.0,0.0,0.0,0.0,0.0,0.0,0.0,0.0,0.0,0.0,0.0,0.0,0.0,0.0,0.0,0.0,0.0,-0.5409,-0.5409,-0.5409,-0.5409,-0.5409,-0.5409,-0.5435,-0.5473,-0.5473,-0.5504,-0.5543,-0.5543,-0.5565,-0.5577,-0.5577,-0.5601,-0.5614,-0.5614,-0.5614,-0.5055,-0.388,-0.3851,-0.3173,-0.1792,-0.197,-0.2514,-0.3407,-0.3514,-0.4148,-0.5113,-0.5104,-0.5298,-0.5638,-0.5638,-0.5855,-0.6191,-0.6407,-0.6503,-0.6497,-0.6254,-0.6162,-0.6162,0.0,0.0,0.0,0.0,0.0,0.0,-0.725,-0.596,-0.4892,-0.4425,-0.3133,-0.2263,-0.2263,-0.2018,-0.1861,-0.1861,-0.157,-0.1391,-0.1391,-0.1719,-0.2018,-0.2292,-0.2318,-0.2457,-0.2748,-0.2748,-0.2856,-0.3077,-0.3392,-0.3537,-0.3561,-0.3881,-0.4149,-0.4415,-0.4415,-0.4566,-0.4809,-0.4809,-0.4885,-0.5037,-0.5211,-0.5411,-0.5611,-0.5611,-0.5611,-0.5611,-0.5611,-0.5611,-0.5636,-0.5789,0.0,0.0,0.0,0.0,0.0,0.0,0.0,0.0,0.0,0.0,0.0,0.0,0.0,0.0,0.0,0.0,0.0,0.0,0.0,0.0,0.0,0.0,0.0,0.0,-0.4644,-0.474,-0.5059,-0.5289,-0.5449,-0.5486,-0.5506,-0.5534,-0.5534,-0.5583,-0.5614,-0.5614,-0.565,-0.567,-0.567,-0.5707,-0.5729,-0.5729,-0.5729,-0.5369,-0.4618,-0.4076,-0.3206,-0.2066,-0.1888,-0.2348,-0.3339,-0.3675,-0.4581,0.0,-0.5886,-0.5886,-0.589,-0.5926,-0.5943,0.0,0.0,0.0,0.0,0.0,-0.5943,-0.5949,0.0,0.0,0.0,0.0,0.0,0.0,-0.6248,-0.5203,-0.4158,-0.3045,-0.2017,-0.1391,-0.1391,-0.1391,-0.1391,-0.1391,-0.1391,-0.1414,-0.1418,-0.1466,-0.1495,-0.1506,-0.1507,-0.1762,-0.2287,-0.2312,-0.2555,-0.3029,-0.3079,-0.3104,-0.3104,-0.318,-0.3457,-0.3907,-0.3907,-0.4183,-0.4609,-0.4609,-0.4659,-0.4709,-0.4709,-0.5035,-0.5509,-0.5509,-0.5509,-0.5509,-0.5509,-0.5509,-0.5509,-0.5536,0.0,0.0,0.0,0.0,0.0,0.0,0.0,0.0,0.0,0.0,0.0,0.0,0.0,0.0,0.0,0.0,0.0,0.0,0.0,0.0,0.0,0.0,0.0,0.0,-0.3602,-0.3853,-0.4503,-0.5075,-0.5489,-0.5578,-0.5632,-0.5644,-0.5644,-0.5662,-0.5675,-0.5675,-0.578,-0.5857,-0.5857,0.0,0.0,0.0,0.0,-0.5824,-0.5669,-0.4493,-0.326,-0.2,-0.2,-0.2062,-0.2246,-0.3383,-0.4651,-0.5902,-0.5902,-0.5908,-0.5953,-0.6004,-0.6036,-0.6028,-0.5947,-0.5947,-0.5926,-0.6006,-0.6036,-0.6048,0.0,0.0,0.0,0.0,0.0,0.0,-0.5963,-0.4981,-0.4002,-0.3023,-0.2017,-0.1391,-0.1391,-0.1391,-0.1391,-0.1391,-0.1391,-0.1423,-0.147,-0.1501,-0.1529,-0.1585,-0.1587,-0.1626,-0.1757,-0.1758,-0.1812,-0.192,-0.2347,-0.2548,-0.2573,-0.3002,-0.3256,-0.3356,-0.3356,-0.3405,-0.3506,-0.3506,-0.3758,-0.4158,-0.4158,-0.4483,-0.496,-0.496,-0.496,-0.496,-0.496,-0.496,-0.4985,-0.5213,-0.5862,-0.6481,-0.6057,-0.6356,0.0,0.0,0.0,0.0,0.0,0.0,0.0,0.0,0.0,0.0,0.0,0.0,0.0,0.0,0.0,0.0,0.0,0.0,0.0,-0.3683,-0.3692,-0.3742,-0.3948,-0.459,-0.5153,-0.5542,-0.5744,-0.5835,-0.5835,-0.5992,-0.6076,-0.6076,-0.6092,-0.6136,-0.6136,-0.6024,-0.5995,-0.5995,-0.5924,-0.5391,-0.4307,-0.403,-0.326,-0.2,0.0,0.0,-0.3537,-0.3784,-0.4648,-0.5995,-0.5995,-0.6034,-0.6131,-0.6149,-0.6155,-0.6153,-0.6137,-0.6129,-0.6133,-0.6149,-0.6155,-0.6157,0.0,0.0,0.0,0.0,0.0,0.0,-0.5395,-0.4748,-0.3898,-0.2404,-0.1758,-0.1457,-0.1457,-0.1457,-0.1457,-0.1457,-0.1319,-0.1214,-0.1143,-0.1263,-0.1377,-0.1393,-0.152,-0.1601,-0.1591,-0.1592,-0.1592,-0.1592,-0.1869,-0.1994,-0.1994,-0.2272,-0.255,-0.2801,-0.2801,-0.2952,-0.3205,-0.3205,-0.3356,-0.3607,-0.3607,-0.3758,-0.4058,-0.4583,-0.4809,-0.4809,-0.4809,-0.4809,-0.4809,-0.4962,-0.5361,-0.5732,-0.5334,-0.5484,-0.5684,0.0,0.0,0.0,0.0,0.0,0.0,0.0,0.0,0.0,0.0,0.0,0.0,0.0,0.0,-0.3509,-0.3247,0.0,-0.3099,-0.2854,-0.2821,-0.2971,-0.3354,-0.3715,-0.4312,-0.5253,-0.5749,-0.6049,-0.6049,-0.6129,-0.6212,-0.6212,-0.6212,-0.6212,-0.6212,-0.6141,-0.6085,-0.6085,-0.6074,-0.5731,-0.5067,-0.4374,-0.3699,-0.305,-0.2365,-0.2739,-0.4013,-0.4013,-0.4771,-0.6085,-0.6085,-0.6141,-0.6216,-0.6229,-0.6276,-0.6349,-0.6349,-0.6294,-0.6218,-0.6231,-0.6249,-0.6255,0.0,0.0,0.0,0.0,0.0,0.0,0.0,-0.461,-0.385,-0.1764,-0.1502,-0.1478,-0.1431,-0.1431,-0.1407,-0.1359,-0.1144,-0.0962,-0.0809,-0.1007,-0.1114,-0.111,-0.1339,-0.1465,-0.1516,-0.1516,-0.1541,-0.1592,-0.1592,-0.1592,-0.1592,-0.1592,-0.1843,-0.2245,-0.2245,-0.2473,-0.2877,-0.2877,-0.2953,-0.3054,-0.3054,-0.3104,-0.3306,-0.4158,-0.4558,-0.4659,-0.4759,-0.4809,-0.4809,-0.4809,-0.4809,-0.4809,-0.4809,-0.4822,-0.4836,-0.4836,-0.4926,0.0,0.0,0.0,0.0,0.0,0.0,0.0,0.0,-0.4397,-0.403,-0.354,-0.3349,-0.3134,-0.2713,-0.2638,-0.2479,-0.2004,-0.1974,-0.222,-0.2752,-0.2953,-0.3449,-0.4582,-0.5362,-0.582,-0.582,-0.5833,-0.5875,-0.6039,-0.6039,-0.6104,-0.6265,-0.6249,-0.6206,-0.6206,-0.6222,-0.6212,-0.6212,-0.5117,-0.4574,-0.4488,-0.3414,-0.3477,-0.452,-0.452,-0.513,-0.6208,-0.6257,-0.6267,-0.6271,-0.6313,-0.6388,-0.6487,-0.6487,-0.6397,-0.6276,-0.6317,-0.6343,-0.6353,0.0,0.0,0.0,0.0,0.0,0.0,0.0,0.0,-0.385,-0.1764,-0.1502,-0.1407,-0.1168,-0.1144,-0.1049,-0.0811,-0.0763,-0.0769,-0.0809,-0.0834,-0.0842,-0.0833,-0.0884,-0.101,-0.1237,-0.1237,-0.1364,-0.1592,-0.1592,-0.1592,-0.1592,-0.1592,-0.1642,-0.1693,-0.1693,-0.1718,-0.1768,-0.1768,-0.2044,-0.2497,-0.2497,-0.2775,-0.3205,-0.3331,-0.3682,-0.4158,-0.4634,-0.4809,-0.4809,-0.4809,-0.4809,-0.4809,-0.4809,-0.489,-0.4981,-0.4981,-0.502,-0.513,-0.5304,-0.5111,-0.4697,-0.4162,-0.3849,-0.3705,0.0,-0.336,-0.2957,-0.2904,-0.2466,-0.2067,-0.201,-0.2039,-0.2068,-0.2004,-0.2034,-0.2119,-0.2187,-0.2767,-0.325,-0.3407,-0.4004,-0.4435,-0.4435,-0.4483,-0.4783,-0.5455,-0.5489,-0.5789,-0.6423,-0.6347,-0.63,-0.63,-0.6223,-0.6212,-0.6212,-0.6052,-0.5981,-0.5972,-0.5812,-0.5812,-0.5972,-0.5972,-0.6086,-0.6306,-0.6421,-0.6456,-0.6458,-0.6466,-0.6479,-0.6487,-0.6487,-0.6475,-0.6458,-0.6468,-0.647,-0.6475,0.0,0.0,0.0,0.0,0.0,0.0,0.0,0.0,-0.4175,-0.2683,-0.1947,-0.1455,-0.1184,-0.1011,-0.0814,-0.0543,-0.0518,-0.047,-0.0349,-0.0474,-0.0576,-0.0555,-0.0707,-0.0859,-0.096,-0.096,-0.1111,-0.1364,-0.1364,-0.144,-0.1592,-0.1592,-0.1592,-0.1592,-0.1592,-0.1592,-0.1592,-0.1592,-0.1717,-0.1944,-0.1944,-0.207,-0.2297,-0.2624,-0.2875,-0.3176,-0.4031,-0.4334,0.0,-0.4684,-0.4809,-0.4809,-0.4809,-0.4643,-0.4466,-0.4487,-0.4322,-0.42,-0.4403,-0.4028,-0.3495,-0.3263,-0.3169,-0.3037,-0.2688,-0.2695,-0.2715,-0.2354,-0.2106,-0.1947,-0.1946,-0.2007,-0.2063,-0.2043,-0.2071,-0.2091,-0.2091,-0.2413,-0.2602,-0.2602,-0.2868,-0.3368,-0.4166,-0.4286,-0.4435,-0.4739,-0.5144,-0.5549,-0.585,-0.6217,-0.6429,-0.6429,-0.6392,-0.6372,-0.6372,-0.6372,-0.6345,-0.6259,-0.6259,-0.6259,-0.6259,-0.6259,-0.631,-0.6431,-0.647,-0.6487,-0.6487,-0.6487,-0.6487,-0.6487,-0.6487,-0.6487,-0.6487,-0.6487,-0.6487,-0.6487,0.0,0.0,0.0,0.0,0.0,0.0,0.0,0.0,0.0,0.0,-0.2195,-0.1364,-0.101,-0.0732,-0.0505,-0.0303,-0.0278,-0.0202,-0.0025,-0.0177,-0.0278,-0.0278,-0.048,-0.0606,-0.0682,-0.0682,-0.0833,-0.1086,-0.1162,-0.1288,-0.1491,-0.1566,-0.1592,-0.1592,-0.1592,-0.1592,-0.1592,-0.1592,-0.1592,-0.1592,-0.1592,-0.1592,-0.1642,-0.2019,-0.217,-0.2321,-0.3404,-0.3783,-0.3833,-0.4234,-0.4359,-0.4367,-0.4384,-0.4171,-0.3934,-0.3923,-0.3763,-0.357,-0.354,-0.319,-0.2785,-0.2666,-0.26,-0.2434,-0.1992,-0.2238,-0.2469,-0.2011,-0.1979,-0.2038,-0.2027,-0.2056,-0.2109,-0.2109,-0.2102,-0.2122,-0.2122,-0.2174,-0.2188,-0.2188,-0.2188,-0.2591,-0.363,-0.3732,-0.3798,-0.3999,-0.4505,-0.4977,-0.5381,-0.5714,-0.6083,-0.6487,-0.6286,-0.6286,-0.6487,-0.6487,-0.6454,-0.6355,-0.6355,-0.6355,-0.6355,-0.6355,-0.6423,-0.6487,-0.6487,-0.6487,-0.6487,-0.6487,-0.6487,-0.6487,-0.6487,-0.6487,-0.6487,-0.6487,-0.6487,-0.6487,0.0,0.0,0.0,0.0,0.0,0.0,0.0,0.0,0.0,0.0,0.0,-0.101,-0.048,-0.0177,-0.0025,-0.0025,0.0,0.0,0.0,0.0,0.0,0.0,-0.0025,-0.0152,-0.0404,-0.0404,-0.0556,-0.0808,-0.1061,-0.1212,-0.1212,-0.1491,-0.1592,-0.1592,-0.1592,-0.1592,-0.1592,-0.1592,-0.1592,-0.1592,-0.1592,-0.1592,-0.1592,-0.1617,-0.1617,-0.1768,-0.2827,-0.323,-0.323,-0.3256,-0.3256,-0.3251,-0.3338,-0.3415,-0.353,-0.3509,-0.3639,-0.3646,-0.3001,-0.2857,-0.2741,-0.208,-0.193,-0.1931,-0.19,-0.1974,-0.2015,-0.2016,-0.204,-0.2093,-0.2095,-0.2087,-0.2108,-0.2108,-0.2167,-0.2187,-0.2187,-0.2188,-0.2188,-0.2188,-0.2188,-0.2222,-0.2256,-0.2256,-0.2524,-0.3194,-0.3262,-0.3901,-0.5314,-0.4739,-0.5007,-0.6453,-0.5817,-0.5783,-0.6487,-0.6487,-0.6487,-0.6483,-0.6483,-0.6483,-0.6483,-0.6483,-0.6485,-0.6487,-0.6487,-0.6487,-0.6487,-0.6487,-0.6487,-0.6487,-0.6487,-0.6487,-0.6487,-0.6487,-0.6487,-0.6487,0.0,0.0,0.0,0.0,0.0,0.0,0.0,0.0,0.0,0.0,0.0,0.0,0.0,0.0,0.0,0.0,0.0,0.0,0.0,0.0,0.0,0.0,0.0,-0.0051,-0.0126,-0.0126,-0.0278,-0.053,-0.0631,-0.0758,-0.0934,-0.1212,-0.1339,-0.1339,-0.1516,-0.1592,-0.1592,-0.1592,-0.1592,-0.1592,-0.1592,-0.1629,-0.1673,-0.1673,-0.1658,-0.1701,0.0,-0.2395,-0.2725,-0.3079,-0.3231,-0.3274,-0.3287,-0.3119,-0.284,-0.2541,-0.2474,-0.248,-0.2268,-0.2222,-0.2172,-0.1961,-0.1946,-0.1966,-0.1954,-0.1973,-0.2024,-0.2044,-0.2073,-0.2094,-0.2094,-0.2152,-0.2172,-0.2172,-0.2181,-0.2188,-0.2188,-0.2188,-0.2188,-0.2188,-0.2188,-0.2188,-0.2188,-0.2188,0.0,-0.2524,-0.296,-0.3631,-0.4605,-0.4435,-0.4973,-0.6453,-0.5783,-0.575,-0.6487,-0.6487,-0.6487,-0.6487,-0.6487,-0.6487,-0.6487,-0.6487,-0.6487,-0.6487,-0.6487,-0.6487,-0.6487,-0.6487,-0.6487,-0.6487,-0.6487,-0.6487,-0.6453,-0.5951,-0.5783,-0.5783,0.0,0.0,0.0,0.0,0.0,0.0,0.0,0.0,0.0,0.0,0.0,0.0,0.0,0.0,0.0,0.0,0.0,0.0,0.0,0.0,0.0,0.0,0.0,0.0,0.0,0.0,-0.0076,-0.0253,-0.0354,-0.048,-0.0657,-0.0934,-0.1111,-0.1212,-0.139,-0.1516,-0.1592,-0.1592,-0.1623,-0.1633,-0.1633,-0.1651,-0.1704,-0.1704,-0.1688,0.0,-0.2183,-0.258,-0.2907,-0.3271,-0.3413,-0.3557,-0.4039,-0.3993,-0.3631,-0.2797,-0.2562,-0.25,-0.2016,-0.1909,-0.1947,-0.1947,-0.1969,-0.1996,-0.2014,-0.2026,-0.204,-0.2092,-0.2112,-0.2093,-0.2093,-0.2142,-0.2155,-0.2155,-0.2165,-0.2172,-0.2172,-0.2181,-0.2188,-0.2188,-0.2188,-0.2188,-0.2188,-0.2188,-0.2188,-0.2188,-0.2591,-0.3162,-0.3865,-0.3664,-0.4336,-0.6051,-0.5379,-0.548,-0.6487,-0.6487,-0.6487,-0.6487,-0.6219,-0.6118,-0.6118,-0.6118,-0.6118,-0.6085,-0.5815,-0.5848,-0.6085,-0.5815,-0.5713,-0.5713,-0.5713,-0.5713,-0.5646,-0.5176,-0.5009,-0.5009,0.0,0.0,0.0,0.0,0.0,0.0,0.0,0.0,0.0,0.0,0.0,0.0,0.0,0.0,0.0,0.0,0.0,0.0,0.0,-0.0025,-0.0025,0.0,0.0,0.0,0.0,0.0,0.0,0.0,-0.0253,-0.0379,-0.0404,-0.0682,-0.0934,-0.1212,-0.1212,-0.1364,-0.1592,-0.1592,-0.1634,-0.1686,-0.1688,-0.1731,-0.1784,-0.1785,-0.184,-0.2028,-0.3205,-0.3698,-0.3803,-0.3793,-0.3839,-0.4117,-0.5418,-0.5793,-0.5516,-0.4111,-0.375,-0.3524,-0.2264,-0.1954,-0.2008,-0.2008,-0.1996,-0.1985,-0.1987,-0.2041,-0.2094,-0.2096,-0.2096,-0.2096,-0.2096,-0.2096,-0.2096,-0.2096,-0.2088,-0.2107,-0.2107,-0.2166,-0.2186,-0.2186,-0.2188,-0.2188,-0.2188,-0.2188,-0.2188,-0.2188,0.0,-0.249,-0.3161,-0.2558,-0.3163,-0.5279,-0.4672,-0.5007,-0.642,-0.6453,-0.6453,-0.642,-0.5683,-0.5347,-0.5347,-0.5347,-0.5347,-0.5312,-0.4605,-0.4705,-0.5279,-0.4605,-0.43,-0.43,-0.43,-0.43,-0.43,-0.4266,-0.4234,-0.4234,0.0,0.0,0.0,0.0,0.0,0.0,0.0,0.0,0.0,0.0,0.0,0.0,0.0,0.0,0.0,0.0,0.0,0.0,-0.0025,-0.0177,-0.0202,0.0,0.0,0.0,0.0,0.0,0.0,0.0,-0.0076,-0.0202,-0.0404,-0.0682,-0.0934,-0.1212,-0.1415,-0.1541,-0.1592,-0.1592,-0.1622,-0.163,-0.1679,-0.2229,-0.3038,-0.3048,-0.3631,-0.4503,-0.4925,-0.5087,-0.51,-0.5048,-0.5154,-0.5366,-0.5744,-0.52,-0.4338,-0.3945,-0.318,-0.2358,-0.205,-0.2001,-0.2008,-0.2008,-0.2012,-0.1992,-0.2014,-0.2024,-0.2037,-0.2091,-0.2096,-0.2096,-0.2096,-0.2096,-0.2096,-0.2096,-0.2103,-0.2108,-0.2108,-0.2101,-0.2121,-0.2121,-0.2174,-0.2188,-0.2188,-0.2188,-0.2188,0.0,-0.2188,-0.249,-0.3161,-0.2558,-0.2928,-0.4536,-0.4402,-0.4739,-0.5683,-0.5683,-0.5683,-0.5683,-0.494,-0.4571,-0.4571,-0.4571,-0.4571,-0.457,-0.4368,-0.4402,-0.457,-0.4368,-0.43,-0.43,-0.43,-0.43,-0.4234,-0.3698,-0.3496,-0.3396,0.0,0.0,0.0,0.0,0.0,0.0,0.0,0.0,0.0,0.0,0.0,0.0,0.0,0.0,0.0,0.0,0.0,0.0,0.0,-0.048,-0.0505,-0.0354,-0.0354,-0.0354,-0.0354,-0.0354,-0.0354,-0.0354,-0.0354,-0.0429,-0.0581,-0.0732,-0.1186,-0.1917,-0.2068,-0.2446,-0.2997,-0.2997,-0.3012,0.0,0.0,-0.3601,-0.4203,-0.43,-0.4764,-0.5485,-0.6145,-0.6799,-0.7354,-0.7378,-0.7462,-0.7554,-0.7544,-0.6652,-0.5526,-0.4868,-0.3774,-0.2652,-0.2156,-0.2406,-0.2714,-0.213,-0.245,-0.2714,-0.214,-0.1987,-0.2023,-0.204,-0.2066,-0.2057,-0.2057,-0.2057,-0.2057,-0.2057,-0.2068,-0.2044,-0.2044,-0.2082,-0.2109,-0.2109,-0.217,-0.2188,-0.2188,-0.2188,-0.2188,-0.2188,-0.2188,-0.2356,-0.2726,-0.2389,-0.2691,-0.3798,-0.3831,-0.4168,-0.4908,-0.4908,-0.4908,-0.4908,-0.4168,-0.3831,-0.3831,-0.3831,-0.3831,-0.3798,0.0,-0.353,-0.3798,-0.3497,-0.3362,-0.3362,-0.3362,-0.3362,-0.3329,-0.2927,-0.2759,-0.2692,0.0,0.0,0.0,0.0,0.0,0.0,0.0,0.0,0.0,0.0,-0.5347,0.0,0.0,0.0,0.0,0.0,0.0,0.0,0.0,0.0,-0.0833,-0.0808,-0.0808,-0.0808,-0.0808,-0.0808,-0.0808,-0.0808,-0.0934,-0.1035,-0.106,-0.124,-0.1946,-0.3071,-0.3103,-0.3731,-0.4799,-0.4799,-0.4844,-0.4899,-0.5017,-0.5188,-0.536,0.0,-0.5712,-0.6017,-0.7242,-0.85,-0.9656,-0.9748,-0.9792,-0.9768,-0.9676,-0.8841,-0.7654,-0.6381,-0.5111,-0.3937,-0.2806,-0.3326,-0.3907,-0.2806,-0.3391,-0.3952,-0.2796,-0.2513,-0.2513,-0.2513,-0.252,-0.2469,-0.2284,-0.2253,-0.2192,-0.2038,-0.1997,-0.2013,-0.2013,-0.2061,-0.2097,-0.2097,-0.2161,-0.2182,-0.2182,-0.2186,-0.2188,-0.2188,-0.2188,-0.2188,-0.2188,-0.2188,-0.249,-0.3194,-0.3194,-0.3564,-0.43,-0.4201,-0.4166,-0.4132,-0.343,-0.306,-0.306,-0.306,-0.306,-0.3027,-0.2457,0.0,-0.3027,-0.2423,-0.2188,-0.2188,-0.2188,-0.2188,-0.2188,-0.2188,-0.2188,-0.2189,0.0,0.0,0.0,0.0,0.0,0.0,0.0,0.0,0.0,0.0,-0.6858,-0.5957,0.0,0.0,0.0,0.0,0.0,0.0,0.0,0.0,0.0,-0.0808,-0.0808,-0.0808,-0.0808,-0.0808,-0.0808,-0.0808,-0.1689,-0.2241,-0.2469,-0.3475,-0.4133,-0.4452,-0.4624,-0.4743,-0.4799,-0.4799,-0.4809,-0.483,-0.4895,-0.5587,-0.6595,-0.6629,0.0,0.0,-0.887,-0.9353,-0.9758,-0.9781,-0.9792,-0.9788,-0.9761,-0.8912,-0.7853,-0.7588,-0.6588,-0.5498,-0.5286,-0.5378,-0.5498,-0.5286,-0.5387,-0.5521,-0.5275,-0.5213,-0.5213,-0.5213,-0.5233,-0.4887,-0.3785,-0.357,-0.3234,-0.2161,-0.2012,-0.2015,-0.2015,-0.2013,-0.2002,-0.2002,-0.2083,-0.2117,-0.2117,-0.2173,-0.2188,0.0,-0.2188,-0.2188,-0.2188,-0.2188,-0.249,-0.3194,-0.3194,-0.3564,-0.43,-0.3697,-0.3396,-0.3396,-0.2692,-0.2389,-0.2389,-0.2389,-0.2389,-0.2356,-0.2256,0.0,-0.2356,-0.2256,-0.2188,-0.2188,-0.2188,-0.2188,-0.2188,-0.2188,-0.2188,-0.2192,0.0,0.0,0.0,0.0,0.0,0.0,0.0,-0.8779,-0.8552,-0.8407,-0.7832,-0.7182,-0.6487,-0.5454,-0.4549,0.0,0.0,0.0,0.0,0.0,0.0,-0.2894,-0.2343,-0.2043,-0.2043,-0.2043,-0.2043,-0.2043,0.0,-0.3721,-0.3847,-0.4438,-0.5044,-0.5632,-0.5735,-0.6032,-0.6454,-0.6454,-0.6454,-0.6464,-0.6613,-0.7064,-0.7637,-0.7787,0.0,0.0,-0.933,-0.9571,-0.9792,-0.9792,-0.9792,-0.9792,-0.9792,-0.893,-0.7889,-0.7889,-0.6938,-0.5896,-0.5896,-0.6416,-0.6785,-0.608,-0.6418,-0.6754,-0.6049,-0.5896,-0.5896,-0.5896,-0.5896,-0.5712,-0.5069,-0.4948,-0.4734,-0.4123,-0.3449,-0.2989,-0.2989,-0.2405,-0.1987,-0.1987,-0.2072,-0.2109,-0.2109,-0.217,-0.2188,-0.2188,-0.2188,-0.2188,-0.2188,-0.2188,-0.2357,-0.2658,-0.3027,-0.3194,-0.3194,-0.3194,-0.3027,-0.2691,-0.2356,-0.2188,-0.2188,-0.2188,-0.2188,-0.2188,-0.2188,0.0,-0.2188,-0.2188,-0.2188,-0.2188,-0.2188,-0.2188,-0.2188,-0.2188,-0.2199,-0.2215,0.0,0.0,0.0,0.0,0.0,0.0,0.0,-0.9055,-0.8804,-0.8606,-0.8531,-0.8081,-0.7033,-0.6054,-0.5402,0.0,0.0,0.0,0.0,0.0,0.0,0.0,0.0,0.0,-0.3504,0.0,0.0,-0.3504,-0.4591,0.0,0.0,0.0,0.0,0.0,-0.679,-0.7281,-0.8064,-0.803,-0.8033,0.0,0.0,-0.8267,-0.8328,0.0,0.0,0.0,0.0,-0.9571,-0.9792,-0.9792,-0.9792,-0.9792,-0.9792,-0.9113,-0.8316,-0.8316,-0.7551,-0.6721,-0.6721,-0.752,-0.8041,-0.6999,-0.752,-0.8039,-0.6968,-0.6721,-0.6721,-0.6721,-0.6721,-0.666,-0.6385,-0.6326,-0.6232,-0.5957,-0.5008,-0.4243,-0.3937,-0.3049,-0.2416,-0.2416,-0.2223,-0.2328,-0.2917,-0.2498,-0.2323,-0.2625,-0.2356,0.0,-0.2188,-0.2188,-0.2188,-0.2188,-0.2726,-0.2726,-0.2188,-0.2726,-0.2726,-0.2188,-0.2188,-0.2188,-0.2188,-0.2188,-0.2188,-0.2188,-0.2188,0.0,0.0,-0.2188,-0.2188,-0.2188,-0.2188,-0.2188,-0.2189,-0.2196,-0.2213,-0.2236,0.0,0.0,0.0,0.0,0.0,0.0,0.0,-0.9331,-0.9158,-0.9137,-0.8903,-0.8726,-0.8598,-0.8056,-0.7313,0.0,0.0,0.0,0.0,0.0,0.0,0.0,0.0,0.0,0.0,0.0,0.0,-0.4465,-0.5661,0.0,0.0,0.0,0.0,0.0,0.0,-0.8172,-0.8267,-0.8074,0.0,0.0,0.0,0.0,0.0,0.0,0.0,0.0,0.0,-0.9571,-0.9792,-0.9792,-0.9792,-0.9792,-0.9792,-0.9727,-0.9636,-0.9636,-0.9545,-0.9454,-0.9454,-0.9545,-0.9606,-0.9481,-0.9545,-0.9606,-0.9481,-0.9454,-0.9454,-0.9454,-0.9454,-0.9083,-0.7919,-0.7703,-0.7307,-0.611,-0.5804,-0.5284,-0.4059,-0.3788,-0.373,-0.373,-0.2758,-0.3066,-0.5572,-0.3639,-0.2726,-0.3999,-0.2927,0.0,-0.2188,-0.2188,-0.2188,-0.2188,-0.2256,-0.2256,-0.2188,-0.2256,-0.2256,-0.2188,-0.2188,-0.2188,-0.2188,-0.2188,-0.2188,-0.2188,-0.2188,0.0,0.0,-0.2188,-0.2188,-0.2188,-0.2188,-0.2188,-0.2192,-0.2186,-0.2198,-0.2414,0.0,0.0,0.0,0.0,0.0,0.0,-0.9603,-0.9505,-0.9381,-0.9208,-0.9109,-0.8981,-0.8825,-0.8602,-0.8304,-0.7879,0.0,0.0,0.0,0.0,0.0,0.0,0.0,0.0,0.0,0.0,-0.5913,-0.5913,-0.7201,0.0,0.0,0.0,0.0,0.0,0.0,-0.8657,-0.8772,-0.8708,0.0,0.0,0.0,0.0,0.0,0.0,0.0,0.0,0.0,0.0,-0.9693,-0.9693,-0.9721,-0.9792,-0.9792,-0.9792,-0.9792,-0.9792,-0.9792,-0.9792,-0.9792,-0.9792,-0.9792,-0.9792,-0.9792,-0.9792,-0.9792,-0.9792,-0.9792,-0.9792,-0.9792,-0.9636,-0.9143,-0.9052,-0.887,-0.8346,-0.7612,-0.6907,-0.6385,-0.5621,-0.51,-0.51,-0.48,-0.4984,-0.6106,-0.5312,-0.4599,-0.4333,-0.2994,0.0,-0.2188,-0.2188,-0.2188,-0.2188,-0.2188,-0.2188,-0.2188,-0.2188,-0.2188,-0.2188,-0.2188,-0.2188,-0.2188,-0.2188,-0.2188,-0.2188,-0.2188,0.0,0.0,-0.2188,-0.2188,-0.2188,-0.2188,-0.2772,-0.3574,-0.3594,-0.4193,-0.5135,0.0,0.0,0.0,0.0,0.0,-0.9603,-0.9603,-0.9603,-0.9529,-0.9331,-0.9307,-0.9257,-0.9051,-0.9027,-0.9027,-0.9027,-0.8899,0.0,0.0,0.0,0.0,0.0,0.0,0.0,0.0,0.0,-0.7322,-0.7322,-0.8329,-0.8701,0.0,0.0,-0.8701,-0.8531,0.0,0.0,0.0,0.0,0.0,0.0,0.0,0.0,0.0,0.0,0.0,0.0,0.0,0.0,0.0,0.0,0.0,-0.9737,-0.9775,-0.9792,-0.9792,-0.9792,-0.9792,-0.9792,-0.9792,-0.9792,-0.9792,-0.9792,-0.9792,-0.9792,-0.9792,-0.9792,-0.9792,-0.9792,-0.9792,-0.9792,-0.9792,-0.9792,-0.9792,-0.9792,-0.9052,-0.8316,-0.7947,-0.709,-0.6477,-0.6477,-0.6309,-0.6522,-0.7323,-0.7184,-0.6468,-0.5034,-0.3997,0.0,-0.3427,-0.306,-0.2625,-0.2222,-0.2188,-0.2188,-0.2188,-0.2188,-0.2188,-0.2188,-0.2625,-0.2826,-0.2826,-0.2826,-0.2826,-0.2792,-0.2389,0.0,0.0,-0.2188,-0.2457,-0.2827,-0.2872,-0.3808,-0.5141,-0.5184,-0.5927,-0.6954,0.0,0.0,0.0,0.0,0.0,0.0,-0.9603,-0.9603,-0.9603,-0.9603,-0.9603,-0.9603,-0.9603,-0.9603,-0.9603,-0.9603,-0.9101,0.0,0.0,0.0,0.0,0.0,0.0,0.0,0.0,0.0,-0.857,-0.857,-0.8722,-0.88,-0.88,-0.88,-0.88,-0.88,0.0,0.0,0.0,0.0,0.0,0.0,0.0,0.0,-0.8819,0.0,0.0,0.0,0.0,0.0,0.0,0.0,0.0,0.0,0.0,-0.9792,-0.9792,-0.9792,-0.9792,-0.9792,-0.9792,-0.9792,-0.9792,-0.9792,-0.9792,-0.9792,-0.9792,-0.9792,-0.9792,-0.9792,-0.9792,-0.9792,-0.9792,-0.9792,-0.9792,-0.9792,-0.9792,-0.9329,-0.8072,-0.7886,-0.7886,-0.7886,-0.6876,-0.7259,-0.999,-0.9225,-0.7971,-0.6498,0.0,0.0,-0.6366,-0.5034,-0.363,-0.2256,-0.2188,-0.2188,-0.2188,-0.2188,-0.2188,-0.2222,-0.3598,-0.4266,-0.4266,-0.4266,-0.4266,0.0,0.0,0.0,0.0,-0.2188,-0.3027,-0.4307,-0.4431,-0.5374,-0.6695,-0.6809,-0.6877,-0.714,0.0,0.0,0.0,0.0,0.0,0.0,0.0,-0.9603,-0.9603,-0.9603,-0.9603,-0.9603,-0.9603,-0.9603,-0.9603,-0.9603,-0.9451,0.0,0.0,0.0,0.0,0.0,0.0,0.0,0.0,-0.8905,-0.9007,-0.9007,-0.923,-0.9253,-0.908,-0.9253,-0.9253,-0.9088,-0.9395,-0.9678,0.0,0.0,0.0,0.0,0.0,-0.8952,-0.8804,0.0,0.0,0.0,0.0,0.0,0.0,0.0,0.0,0.0,0.0,0.0,0.0,-0.9792,-0.9792,-0.9792,-0.9792,-0.9792,-0.9792,-0.9792,-0.9792,-0.9792,-0.9792,-0.9792,-0.9792,-0.9792,-0.9792,-0.9792,-0.9792,-0.9792,-0.9792,-0.9792,-0.9792,-0.9667,-0.9268,-0.9207,-0.9207,-0.9207,-0.9081,-0.9418,-1.0463,0.0,-0.8407,-0.7938,0.0,0.0,-0.64,-0.5965,-0.5099,-0.3664,-0.363,-0.363,-0.363,-0.4599,-0.5064,-0.5064,-0.5533,-0.5235,-0.43,-0.43,-0.3764,0.0,0.0,0.0,0.0,-0.4664,-0.5332,-0.5741,-0.5924,-0.6917,-0.8275,-0.8419,-0.9166,-1.0182,0.0,0.0,0.0,0.0,0.0,0.0,0.0,-0.9727,-0.9603,-0.9603,-0.9603,-0.9603,-0.9603,-0.9603,-0.9603,-0.9603,-0.9603,0.0,0.0,0.0,0.0,0.0,0.0,0.0,-0.9101,-0.9253,-0.9356,-0.9356,-0.9529,-0.9505,-0.9356,-0.9529,-0.9505,-0.936,-0.9667,-0.9888,0.0,0.0,0.0,0.0,-0.9427,-0.9253,-0.9101,0.0,0.0,0.0,0.0,0.0,0.0,0.0,0.0,0.0,0.0,0.0,0.0,0.0,-0.9792,-0.9792,-0.9792,-0.9792,-0.9792,-0.9792,-0.9792,-0.9792,-0.9792,-0.9792,-0.9792,-0.9792,-0.9792,-0.9792,-0.9792,-0.9792,-0.9792,-0.9792,-0.9792,-0.9792,-0.9792,-0.9792,-0.9832,-0.9981,-1.0164,-1.0395,0.0,-0.9915,-0.9377,-0.9377,0.0,0.0,-0.8038,-0.7503,-0.6836,-0.5938,-0.5369,-0.5101,-0.5101,-0.5965,-0.64,-0.64,-0.6967,-0.6769,-0.5938,-0.5938,-0.5436,0.0,0.0,0.0,0.0,-0.6032,-0.6755,-0.7336,-0.751,-0.8517,-0.9934,-1.0063,-1.0743,-1.1584,0.0,0.0,0.0,0.0,0.0,0.0,0.0,-1.0019,-0.9727,-0.9727,-0.9677,-0.9653,-0.9653,-0.9628,-0.9603,-0.9603,0.0,0.0,0.0,0.0,0.0,0.0,0.0,0.0,-0.9603,-0.9603,-0.9603,-0.9603,-0.9603,-0.9603,-0.9603,-0.9603,-0.9603,-0.9603,-0.9616,-0.9734,0.0,0.0,0.0,0.0,-0.9668,-0.9603,0.0,0.0,0.0,0.0,0.0,0.0,0.0,0.0,0.0,0.0,0.0,0.0,0.0,0.0,0.0,0.0,0.0,-0.9792,-0.9792,-0.9792,-0.9792,-0.9792,-0.9792,-0.9792,0.0,-0.9792,-0.9792,-0.9792,-0.9792,-0.9792,-0.9792,-0.9792,-0.9792,-0.9792,-0.9792,-0.9798,-0.9947,-1.0246,-1.0322,-1.0409,-1.0657,-1.0688,-1.0688,0.0,0.0,0.0,-1.0688,-0.9443,-0.8742,-0.8742,-0.7436,-0.6667,-0.6566,-0.6667,-0.67,-0.6733,-0.8105,-0.8706,-0.8607,-0.8607,-0.854,0.0,0.0,0.0,0.0,-0.6667,-0.7598,-0.8973,-0.9098,-1.0065,-1.1409,-1.1562,-1.1584,-1.1584,0.0,0.0,0.0,0.0,0.0,0.0,0.0,0.0,0.0,0.0,-1.0462,-1.0216,-1.0216,-0.985,-0.9603,0.0,0.0,0.0,0.0,0.0,0.0,0.0,0.0,0.0,-0.9603,-0.9603,-0.9603,-0.9603,-0.9603,-0.9603,-0.9603,-0.9603,-0.9603,-0.9607,-0.9766,-0.9847,0.0,0.0,0.0,0.0,-0.962,-0.9603,0.0,0.0,0.0,0.0,-0.9993,-1.0101,0.0,0.0,0.0,0.0,0.0,0.0,0.0,0.0,-0.9707,-0.9792,-0.9792,0.0,-0.9792,-0.9792,-0.9792,-0.9792,0.0,-0.9792,-0.9792,-0.9792,-0.9792,-0.9792,-0.9792,-0.9792,-0.9792,-0.9792,-0.9792,-0.9792,-0.9792,-0.989,-1.0035,-1.0256,-1.0375,-1.0514,-1.0671,-1.0688,-1.0688,0.0,0.0,-1.0688,-1.0688,-1.0386,-1.0216,-1.0216,-0.9881,-0.9175,-0.8105,-0.9144,-0.9679,-0.9679,-1.0047,-0.9646,-0.8607,-0.8607,-0.7971,0.0,0.0,0.0,-0.8171,-0.9244,-0.9963,-1.0415,-1.0623,-1.0975,-1.1409,-1.1562,-1.1584,-1.1584,0.0,0.0,0.0,0.0,0.0,0.0,0.0,0.0,0.0,0.0,0.0,-1.0545,-1.059,-1.0373,0.0,0.0,0.0,0.0,0.0,0.0,0.0,0.0,0.0,-0.9603,-0.9603,-0.9603,-0.9603,-0.9603,-0.9603,-0.9603,-0.9603,-0.9603,-0.9603,-0.9607,-0.9726,-0.9766,0.0,0.0,0.0,-0.9603,-0.9603,0.0,0.0,0.0,0.0,0.0,-1.0203,-1.0298,0.0,-1.0284,-0.9983,-0.9706,0.0,0.0,0.0,0.0,-0.971,-0.9792,-0.9792,-0.9792,-0.9792,-0.9792,-0.9792,-0.9792,-0.9792,-0.9792,-0.9792,-0.9792,-0.9792,-0.9792,-0.9792,-0.9792,-0.9792,-0.9792,-0.9792,-0.9815,-0.9886,-0.9964,-1.0099,-1.0351,-1.0446,-1.0551,0.0,-1.0688,0.0,0.0,0.0,-1.0688,-1.0688,-1.0688,-1.0688,-1.0688,-1.0688,-1.0316,-0.9579,-1.0319,-1.0688,-1.0688,-1.0688,-1.0283,-0.9579,-0.9579,-0.9141,0.0,0.0,0.0,-0.9613,-1.0386,-1.0816,-1.1053,-1.1166,-1.1336,-1.1504,-1.1553,-1.1584,-1.1584,0.0,0.0,0.0,0.0,0.0,0.0,0.0,0.0,0.0,0.0,0.0,0.0,0.0,0.0,0.0,0.0,0.0,0.0,0.0,0.0,0.0,0.0,-0.9653,-0.9603,-0.9603,-0.9603,-0.9603,-0.9603,-0.9603,-0.9603,-0.9603,-0.9603,-0.9603,-0.9603,-0.9603,-0.9603,0.0,0.0,0.0,-0.9603,-0.9603,0.0,0.0,0.0,0.0,0.0,0.0,0.0,0.0,-1.0692,-1.0308,-0.9815,-0.9928,0.0,0.0,0.0,0.0,0.0,-0.9765,-0.9775,-0.9792,-0.9792,-0.9792,-0.9792,-0.9792,-0.9792,-0.9792,-0.9792,-0.9792,-0.9792,-0.9792,-0.9792,-0.9792,-0.9792,-0.9792,-0.9842,-0.9967,-1.0038,-1.0153,-1.046,-1.0514,0.0,-1.0674,0.0,0.0,0.0,0.0,-1.0688,-1.0688,-1.0688,-1.0688,-1.0688,-1.0688,-1.0688,-1.0688,-1.0688,-1.0688,-1.0688,-1.0688,-1.0688,-1.0688,-1.0688,-1.0688,-1.0688,0.0,0.0,-1.0688,-1.0711,-1.0917,-1.12,-1.1223,-1.1369,-1.1584,-1.1584,-1.1584,-1.1584,0.0,0.0,0.0,0.0,0.0,0.0,0.0,0.0,0.0,0.0,0.0,0.0,0.0,0.0,0.0,0.0,0.0,0.0,0.0,0.0,0.0,-1.029,-0.9846,-0.9603,-0.9603,-0.9603,-0.9603,-0.9603,-0.9603,-0.9603,-0.9603,-0.9603,-0.9603,-0.9603,-0.9603,-0.9603,-0.9603,-0.9603,0.0,-0.9603,-0.9603,0.0,0.0,0.0,0.0,0.0,0.0,0.0,0.0,-1.0692,-1.0308,-0.9792,-0.9818,0.0,0.0,0.0,0.0,0.0,-0.9676,-0.97,-0.9792,-0.9792,-0.9792,-0.9792,-0.9792,-0.9792,-0.9792,-0.9792,-0.9792,-0.9792,-0.9792,-0.9792,-0.9792,-0.9792,-0.9792,-0.9842,-0.9967,-1.0164,-1.0307,-1.0473,0.0,-1.0694,-1.0684,0.0,0.0,0.0,0.0,-1.0688,-1.0688,-1.0688,-1.0688,-1.0688,-1.0688,-1.0688,-1.0688,-1.0688,-1.0688,-1.0688,-1.0688,-1.0688,-1.0688,-1.0688,-1.0688,-1.0688,0.0,-1.0688,-1.0698,-1.0826,-1.1012,-1.121,-1.1304,-1.1463,-1.1584,-1.1584,-1.1584,-1.1584,0.0,0.0,0.0,0.0,0.0,0.0,0.0,0.0,0.0,0.0,0.0,0.0,0.0,0.0,0.0,0.0,0.0,0.0,0.0,0.0,-1.1267,-1.1267,-1.0752,-1.0191,-0.9603,-0.9603,-0.9603,-0.9603,-0.9603,-0.9648,-0.9766,-0.9766,-0.9766,-0.9762,-0.9644,-0.9603,-0.9603,-0.9603,-0.9603,-0.9611,0.0,0.0,0.0,0.0,0.0,0.0,0.0,0.0,0.0,0.0,-1.0308,-0.9789,-0.9789,0.0,0.0,0.0,0.0,0.0,-0.9649,-0.9683,-0.9792,-0.9792,-0.9792,-0.9792,-0.9792,-0.9792,-0.9792,-0.9792,-0.9792,-0.9792,-0.9792,-0.9792,-0.9792,-0.9792,-0.9792,-0.9873,-1.0141,-1.0236,-1.0397,0.0,0.0,-1.0688,0.0,0.0,0.0,0.0,0.0,0.0,-1.0688,-1.0688,-1.0688,-1.0688,-1.0688,-1.0688,-1.0688,-1.0688,-1.0688,-1.0688,-1.0688,-1.0688,-1.0688,-1.0688,-1.0688,-1.0688,0.0,-1.0688,-1.0698,-1.085,-1.1033,-1.1213,-1.1366,-1.1484,-1.1584,-1.1584,-1.1584,-1.1584,0.0,0.0,0.0,0.0,0.0,0.0,0.0,0.0,0.0,0.0,0.0,0.0,0.0,0.0,0.0,0.0,0.0,0.0,0.0,-1.2252,-1.2056,-1.2005,-1.1365,-1.063,-0.9801,-0.9797,-0.9727,-0.9603,-0.9603,-0.9713,-0.9909,-0.9909,-0.9909,-0.9901,-0.968,-0.9747,-0.9965,-0.9702,-0.9772,-1.002,0.0,0.0,0.0,0.0,0.0,0.0,0.0,0.0,0.0,0.0,0.0,0.0,0.0,0.0,0.0,-0.9186,-0.9445,-0.9751,-0.9605,-0.9686,-0.9792,-0.9792,-0.9792,-0.9792,-0.9792,-0.9792,-0.9792,-0.9792,-0.9792,-0.9792,-0.9792,-0.9792,-0.9792,-0.9792,-0.9819,-0.9937,-1.0274,-1.0342,-1.0426,-1.0654,-1.0688,-1.0688,0.0,0.0,0.0,0.0,0.0,0.0,-1.0688,-1.0688,-1.0688,-1.0688,-1.0688,-1.0688,-1.0688,-1.0688,-1.0688,-1.0688,-1.0688,-1.0688,-1.0688,-1.0688,-1.0688,-1.0688,-1.0688,-1.0688,-1.0701,-1.0887,-1.1063,-1.1217,-1.1369,-1.1514,-1.1584,-1.1584,-1.1584,-1.1584,0.0,0.0,0.0,0.0,0.0,0.0,0.0,0.0,0.0,0.0,0.0,0.0,0.0,0.0,0.0,0.0,0.0,0.0,0.0,-1.2713,-1.2213,-1.201,-1.0998,-1.0408,-1.0339,-1.0339,-1.0093,-0.9603,-0.9603,-0.9713,-0.9909,-0.9909,-0.9909,-0.9901,-0.968,-1.0158,-1.1028,-1.0015,-1.0236,-1.1191,-1.0281,0.0,0.0,0.0,0.0,0.0,0.0,0.0,0.0,0.0,0.0,0.0,0.0,0.0,-0.9323,-0.9011,-0.9335,-0.9727,-0.9476,-0.9605,-0.9792,-0.9792,-0.9792,-0.9792,-0.9792,-0.9792,-0.9792,-0.9792,-0.9792,-0.9792,-0.9792,-0.9792,-0.9792,-0.9792,-0.991,-1.0059,-1.0256,0.0,-1.0538,-1.0667,-1.0688,0.0,0.0,0.0,0.0,0.0,0.0,0.0,-1.0688,-1.0688,-1.0688,-1.0688,-1.0688,-1.0688,-1.0688,-1.0688,-1.0688,-1.0688,-1.0688,-1.0688,-1.0688,-1.0688,-1.0688,-1.0688,-1.0688,-1.0688,-1.0711,-1.1063,-1.1189,-1.1227,-1.1487,-1.1573,-1.1584,-1.1584,-1.1584,-1.1584,0.0,0.0,0.0,0.0,0.0,0.0,0.0,0.0,0.0,0.0,0.0,0.0,0.0,0.0,0.0,0.0,0.0,0.0,0.0,-1.3067,-1.2704,-1.2502,-1.2102,-1.1736,-1.1389,-1.0413,-0.9801,-0.9603,-0.9851,-1.0019,-1.0084,-1.0084,-1.0415,-1.1015,-1.0714,-1.0812,-1.117,-1.0763,-1.0559,-1.0445,-1.019,-1.0209,0.0,0.0,0.0,0.0,0.0,0.0,0.0,0.0,-1.017,-0.9776,-0.9709,-0.9486,-0.9264,-0.9218,-0.9439,-0.9666,-0.9554,-0.9669,-0.9792,-0.9792,-0.9792,-0.9792,-0.9792,-0.9792,-0.9792,-0.9792,-0.9792,-0.9792,-0.9792,-0.9792,-0.9792,-0.9792,-0.9917,-1.0072,-1.0259,-1.0434,-1.0548,-1.0671,-1.0688,0.0,0.0,0.0,0.0,0.0,0.0,0.0,-1.0688,-1.0688,-1.0688,-1.0688,-1.0688,-1.0688,-1.0688,-1.0688,-1.0688,-1.0688,-1.0688,-1.0688,-1.0688,-1.0688,-1.0688,-1.0688,-1.0688,-1.0688,-1.0744,-1.1074,-1.1196,-1.1227,-1.1501,-1.1584,-1.1584,-1.1584,-1.1584,-1.1584,0.0,0.0,0.0,0.0,0.0,0.0,0.0,0.0,0.0,0.0,0.0,0.0,0.0,0.0,0.0,0.0,0.0,0.0,-1.3398,-1.32,-1.3001,-1.2799,-1.2638,-1.237,-1.2005,-1.058,-0.985,-0.985,-1.0088,-1.0186,-1.0216,-1.0636,-1.115,-1.1695,-1.1435,-1.1457,-1.1634,-1.0984,-1.0619,-1.0438,-1.0267,-1.0329,0.0,0.0,0.0,0.0,0.0,0.0,0.0,0.0,-1.0091,-0.9787,-0.9637,-0.9436,-0.9274,-0.9379,-0.952,-0.9666,-0.9622,-0.9683,-0.9792,-0.9792,-0.9792,-0.9792,-0.9792,-0.9792,-0.9792,-0.9792,-0.9792,-0.9792,-0.9792,-0.9792,-0.9805,-0.9856,-0.9991,-1.0175,-1.0327,-1.0473,-1.0602,-1.0674,-1.0688,0.0,0.0,0.0,0.0,0.0,0.0,0.0,0.0,-1.0688,-1.0688,-1.0688,-1.0688,-1.0688,-1.0688,-1.0688,-1.0688,-1.0688,-1.0688,-1.0688,-1.0688,-1.0688,-1.0688,-1.0688,-1.0688,-1.0688,-1.0744,-1.1074,-1.1254,-1.1328,-1.1538,-1.1584,-1.1584,-1.1584,-1.1584,-1.1584,0.0,0.0,0.0,0.0,0.0,0.0,0.0,0.0,0.0,0.0,0.0,0.0,0.0,0.0,0.0,0.0,0.0,0.0,-1.312,-1.3104,-1.3001,-1.2799,-1.2297,-1.2005,-1.2005,-1.0949,-1.0413,-1.0388,-1.0267,-1.0216,-1.0246,-1.1582,-1.2037,-1.17,-1.1641,-1.1999,-1.2557,-1.0478,-1.0411,-1.1606,-1.0603,-1.0402,-1.0692,0.0,0.0,0.0,0.0,0.0,0.0,0.0,-1.0064,-0.9787,-0.9641,-0.9513,-0.941,-0.9413,-0.9591,-0.9758,-0.9649,-0.9713,-0.9792,-0.9792,-0.9792,-0.9792,-0.9792,-0.9792,-0.9792,-0.9792,-0.9792,-0.9792,-0.9792,-0.9792,-0.9842,-0.9994,-1.0178,-1.0363,-1.0473,-1.0622,-1.0688,-1.0688,0.0,0.0,0.0,0.0,0.0,0.0,0.0,0.0,0.0,-1.0688,-1.0688,-1.0688,-1.0688,-1.0688,-1.0688,-1.0688,-1.0688,-1.0688,-1.0688,-1.0688,-1.0688,-1.0688,-1.0688,-1.0688,-1.0688,-1.0688,-1.0744,-1.1074,-1.1345,-1.1584,-1.1584,-1.1584,-1.1584,-1.1584,-1.1584,-1.1584,0.0,0.0,0.0,0.0,0.0,0.0,0.0,0.0,0.0,0.0,0.0,0.0,0.0,0.0,0.0,0.0,0.0,0.0,-1.312,-1.3104,-1.3001,-1.2799,-1.2643,-1.2565,-1.2565,-1.1512,-1.0647,-1.0058,-1.0149,-1.0666,-1.1613,-1.2017,-1.2452,-1.29,-1.2768,-1.2311,-1.1619,-1.1087,-1.0776,-1.0637,-1.0408,-1.0489,-1.0692,0.0,0.0,0.0,0.0,0.0,0.0,0.0,0.0,0.0,-0.9517,-0.9355,-0.9311,-0.9598,-0.9683,-0.9686,-0.9714,-0.9758,-0.9792,-0.9792,-0.9792,-0.9792,-0.9792,-0.9792,-0.9792,-0.9792,-0.9792,-0.9792,-0.9792,-0.9792,-0.9842,-0.9994,-1.0178,-1.0363,-1.0473,-1.0622,-1.0688,-1.0688,0.0,0.0,0.0,0.0,0.0,0.0,0.0,0.0,0.0,-1.0688,-1.0688,-1.0688,-1.0688,-1.0688,-1.0688,-1.0688,-1.0688,-1.0688,-1.0688,-1.0688,-1.0688,-1.0688,-1.0688,-1.0688,-1.0688,-1.0688,-1.0744,-1.1074,-1.1345,-1.1584,-1.1584,-1.1584,-1.1584,-1.1584,-1.1584,-1.1584,0.0,0.0,0.0,0.0,0.0,0.0,0.0,0.0,0.0,0.0,-1.3592,-1.3506,0.0,0.0,0.0,0.0,0.0,0.0,-1.298,-1.2994,-1.2934,-1.2818,-1.2813,-1.2589,-1.2175,-1.1541,-1.0971,-1.0513,-1.0759,-1.1342,-1.2204,-1.2733,-1.3105,-1.3386,-1.2912,-1.2343,-1.177,-1.1576,-1.1212,-1.0824,-1.1045,-1.0939,-1.0692,0.0,0.0,0.0,0.0,0.0,0.0,0.0,0.0,0.0,-0.9476,-0.939,-0.9427,-0.9727,-0.9731,-0.971,-0.9768,-0.9792,-0.9792,-0.9792,-0.9792,-0.9792,-0.9792,-0.9792,-0.9792,-0.9792,-0.9839,-0.9883,-0.9883,-0.993,-1.0053,-1.017,-1.0304,-1.0415,-1.0561,-1.0663,-1.0688,-1.0688,0.0,0.0,0.0,0.0,0.0,0.0,0.0,0.0,0.0,-1.0688,-1.0688,-1.0688,-1.0688,-1.0688,-1.0688,-1.0688,-1.0688,-1.0688,-1.0688,-1.0688,-1.0688,-1.0688,-1.0688,-1.0688,-1.0688,-1.0789,-1.0911,-1.1121,-1.1345,-1.1584,-1.1584,-1.1584,-1.1584,-1.1584,-1.1584,-1.1584,0.0,0.0,0.0,0.0,0.0,0.0,0.0,0.0,0.0,0.0,-1.3452,-1.3441,0.0,0.0,0.0,0.0,0.0,0.0,0.0,-1.2813,-1.2813,-1.2813,-1.2813,-1.2322,-1.1296,-1.134,-1.1412,-1.1461,-1.175,-1.2037,-1.2363,-1.3548,-1.3805,-1.3238,-1.2391,-1.2219,-1.2525,-1.1874,-1.1638,-1.1728,-1.1979,-1.1513,-1.0692,-1.0692,0.0,0.0,0.0,0.0,0.0,0.0,0.0,0.0,-0.9463,-0.9496,-0.9639,-0.9748,-0.9792,-0.9792,-0.9792,-0.9792,-0.9792,-0.9792,-0.9802,-0.9812,-0.9812,-0.9822,-0.9829,-0.9812,-0.992,-1.0021,-1.0004,-1.0185,-1.0327,-1.047,-1.049,-1.0544,-1.0667,-1.0688,-1.0688,0.0,0.0,0.0,0.0,0.0,0.0,0.0,0.0,0.0,0.0,-1.0688,-1.0688,-1.0688,-1.0688,-1.0688,-1.0688,-1.0688,-1.0688,-1.0688,-1.0688,-1.0688,-1.0688,-1.0688,-1.0688,-1.0688,-1.0688,-1.0887,-1.1196,-1.1196,-1.1345,-1.1584,-1.1584,-1.1584,-1.1584,-1.1584,-1.1584,-1.1584,0.0,0.0,0.0,0.0,0.0,0.0,0.0,0.0,0.0,0.0,0.0,0.0,0.0,0.0,0.0,0.0,0.0,0.0,0.0,-1.2813,-1.2813,-1.2813,-1.2813,-1.2492,-1.1834,-1.2403,-1.2459,-1.2038,-1.195,-1.2422,-1.3399,-1.3864,-1.3435,-1.2237,-1.2828,-1.2501,-1.1541,-1.1632,-1.1693,-1.1664,-1.1201,-1.0901,-1.0692,-1.0692,-1.0692,0.0,0.0,0.0,0.0,0.0,0.0,0.0,-0.9561,-0.9585,-0.9639,-0.9748,-0.9792,-0.9792,-0.9792,-0.9792,-0.9792,-0.9792,-0.9879,-0.9967,-0.9967,-1.0093,-1.0148,-0.9994,-0.9994,-1.0055,-1.0209,-1.0256,-1.0327,-1.047,-1.049,-1.0544,-1.0667,-1.0688,-1.0688,0.0,0.0,0.0,0.0,0.0,0.0,0.0,0.0,0.0,-1.0688,-1.0688,-1.0688,-1.0688,-1.0688,-1.0688,-1.0688,-1.0688,-1.0688,0.0,-1.0688,-1.0688,-1.0688,-1.0688,-1.0688,-1.0688,-1.0688,-1.0887,-1.1196,-1.1196,-1.1345,-1.1584,-1.1584,-1.1584,-1.1584,-1.1584,-1.1584,-1.1584,0.0,0.0,0.0,0.0,0.0,0.0,0.0,0.0,0.0,0.0,0.0,0.0,0.0,0.0,0.0,0.0,0.0,0.0,0.0,0.0,-1.2813,-1.2813,-1.3147,-1.3087,-1.253,-1.3149,-1.321,-1.262,-1.255,-1.2936,-1.3709,-1.3916,-1.3519,-1.2617,-1.2511,-1.2523,-1.2691,-1.2562,-1.2499,-1.2405,-1.1774,-1.1177,-1.0692,-1.0692,-1.0692,-1.0692,-1.0527,0.0,0.0,0.0,0.0,0.0,0.0,0.0,-0.9697,-0.9768,-0.9792,-0.9792,-0.9792,-0.9792,-0.9792,-0.9792,-0.9907,-0.9987,-0.9987,-1.0168,-1.0276,-1.0263,-1.0231,-1.0255,-1.0368,-1.0443,-1.0514,-1.0588,-1.0602,-1.0629,-1.0677,-1.0688,-1.0688,0.0,0.0,0.0,0.0,0.0,0.0,0.0,0.0,-1.0688,-1.0688,-1.0688,-1.0688,-1.0688,-1.0688,-1.0688,-1.0688,-1.0688,-1.0688,-1.0688,-1.0688,-1.0688,-1.0688,-1.0688,-1.0688,-1.0688,-1.0688,-1.0887,-1.1196,-1.1196,-1.1345,-1.1584,-1.1584,-1.1584,-1.1584,-1.1584,-1.1584,-1.1584,0.0,0.0,0.0,0.0,0.0,0.0,0.0,0.0,0.0,0.0,0.0,0.0,0.0,0.0,0.0,0.0,0.0,0.0,0.0,0.0,0.0,-1.2813,-1.3643,-1.3824,-1.324,-1.3728,-1.3728,-1.3245,-1.324,-1.3256,-1.3299,-1.3639,-1.3532,-1.3016,-1.2269,-1.2733,-1.4056,-1.3593,-1.3259,-1.3019,-1.2369,-1.1528,-1.0692,-1.0692,-1.0692,-1.0692,-1.0637,-1.0369,-0.9985,-0.9982,0.0,0.0,0.0,0.0,-0.9792,-0.9792,-0.9792,-0.9792,-0.9792,-0.9792,-0.9792,-0.9792,-0.9927,-1.0059,-1.0059,-1.0229,-1.0388,-1.0507,-1.051,-1.05,-1.0527,-1.0633,-1.0688,-1.0688,-1.0664,-1.0657,-1.0684,-1.0664,-1.0657,0.0,0.0,0.0,0.0,0.0,0.0,0.0,0.0,-1.0688,-1.0688,-1.0688,-1.0688,-1.0688,-1.0688,-1.0688,-1.0688,-1.0688,-1.0688,-1.0688,-1.0688,-1.0688,-1.0688,-1.0688,-1.0688,-1.0688,-1.0688,-1.0873,-1.1162,-1.1186,-1.1328,-1.1582,-1.1573,-1.1584,-1.1584,-1.1584,-1.1584,-1.1584,0.0,0.0,0.0,0.0,0.0,0.0,0.0,0.0,0.0,0.0,-1.2813,-1.305,0.0,0.0,0.0,0.0,0.0,0.0,-1.2953,0.0,0.0,-1.2837,-1.4172,-1.4573,-1.3806,-1.4082,-1.4106,-1.3781,-1.356,-1.2865,-1.1723,-1.2909,-1.2827,-1.1731,-1.3422,-1.3796,-1.319,-1.3274,-1.2858,-1.2087,-1.1255,-1.0825,-1.0692,-1.0692,-1.0692,-1.0665,-1.0449,-1.0203,-0.9975,-0.9882,-0.9729,0.0,0.0,0.0,-0.9792,-0.9792,-0.9792,-0.9792,-0.9792,-0.9792,-0.9792,-0.9792,-1.0036,-1.0249,-1.0249,-1.0463,-1.0633,-1.0683,-1.0585,-1.0531,-1.0666,-1.0707,-1.0688,-1.0688,-1.0609,-1.0568,-1.0667,-1.0605,-1.0571,0.0,0.0,0.0,0.0,0.0,0.0,0.0,-1.0688,-1.0688,-1.0688,-1.0688,-1.0688,-1.0688,-1.0688,-1.0688,-1.0688,-1.0688,-1.0688,-1.0688,-1.0688,-1.0688,-1.0688,-1.0688,-1.0688,-1.0688,-1.0688,-1.0786,-1.0951,-1.1145,-1.1298,-1.1436,-1.1533,-1.1584,-1.1584,-1.1584,-1.1584,-1.1584,0.0,0.0,0.0,0.0,0.0,0.0,0.0,0.0,0.0,0.0,0.0,-1.3546,0.0,0.0,0.0,-1.3908,-1.4028,-1.41,-1.41,-1.4382,-1.443,-1.41,-1.5123,-1.5361,-1.4597,-1.4663,-1.4148,-1.2998,-1.2462,-1.1584,-1.0436,-1.2178,-1.2762,-1.2344,-1.3292,-1.3788,-1.3836,-1.2941,-1.2341,-1.1917,-1.105,-1.0692,-1.0692,-1.0692,-1.0692,-1.0704,-1.0699,-1.0457,-1.0165,-1.0182,-0.9991,-0.9707,-0.9771,0.0,0.0,0.0,-0.9792,-0.9792,-0.9792,-0.9792,-0.9792,-0.9792,-1.0053,-1.0312,-1.0312,-1.051,-1.0688,-1.0688,-1.0633,-1.0639,-1.0674,-1.0688,-1.0688,-1.0688,-1.0592,-1.0544,-1.0667,-1.0588,-1.0548,0.0,0.0,0.0,0.0,0.0,0.0,0.0,-1.0688,-1.0688,-1.0688,-1.0688,-1.0688,-1.0688,-1.0688,-1.0688,-1.0688,-1.0688,-1.0688,-1.0688,-1.0688,-1.0688,-1.0688,-1.0688,-1.0688,-1.0688,-1.0688,-1.0772,-1.0924,-1.1104,-1.1288,-1.1406,-1.1558,-1.1584,-1.1584,-1.1584,-1.1584,-1.1584,0.0,0.0,0.0,0.0,0.0,0.0,0.0,0.0,0.0,0.0,0.0,0.0,0.0,0.0,0.0,0.0,-1.4741,-1.5099,-1.5099,-1.5289,-1.5289,-1.5099,-1.5812,-1.5859,-1.5123,-1.4711,-1.3788,-1.229,-1.1419,-1.0522,-0.9653,-1.1736,-1.2665,-1.2619,-1.3167,-1.3723,-1.4182,-1.2659,-1.1877,-1.1621,-1.0962,-1.0692,-1.0692,-1.0692,-1.0692,-1.0744,-1.0931,-1.0736,-1.0414,-1.0465,-1.0239,-0.9913,-0.9819,-0.9792,0.0,0.0,0.0,-0.9792,-0.9792,-0.9792,-0.9792,-0.9792,-1.0022,-1.0222,-1.0222,-1.0422,-1.0619,-1.0656,-1.0663,-1.0673,-1.0681,-1.0688,-1.0674,-1.0637,-1.0534,-1.049,-1.0639,-1.0531,-1.0507,0.0,0.0,0.0,0.0,0.0,0.0,0.0,-1.0688,-1.0688,-1.0688,-1.0688,-1.0688,-1.0688,-1.0688,-1.0688,-1.0688,-1.0688,-1.0688,-1.0688,-1.0688,-1.0688,-1.0688,-1.0688,-1.0688,-1.0688,-1.0688,-1.0752,-1.0867,-1.105,-1.1196,-1.1348,-1.1501,-1.1586,-1.1584,-1.1584,-1.1584,-1.1584,0.0,0.0,0.0,0.0,0.0,0.0,0.0,0.0,0.0,0.0,0.0,0.0,-1.3811,-1.3932,-1.4238,-1.498,-1.5075,-1.5099,-1.5099,-1.5741,-1.5835,-1.5123,-1.5812,0.0,-1.5123,-1.3842,-1.2896,-1.229,-1.1062,-1.0142,-0.9653,-1.1736,-1.2268,-1.1562,-1.3609,-1.4088,-1.3309,-1.2383,-1.1532,-1.0762,-1.0715,-1.0692,-1.0692,-1.0692,-1.0692,-1.0744,-1.0931,-1.085,-1.067,-1.0553,-1.0389,-1.0213,-0.9913,-0.9792,-0.9792,0.0,0.0,0.0,-0.9792,-0.9792,-0.9792,-0.9792,-0.991,-1.0032,-1.0032,-1.0153,-1.0373,-1.0477,-1.0504,-1.0548,-1.0694,-1.0688,-1.0673,-1.0527,-1.0385,-1.0373,-1.0483,-1.0382,-1.0399,0.0,0.0,0.0,0.0,0.0,0.0,0.0,-1.0688,-1.0688,-1.0688,-1.0688,-1.0688,-1.0688,-1.0688,-1.0688,-1.0688,-1.0688,-1.0688,-1.0688,-1.0688,-1.0688,-1.0688,-1.0688,-1.0688,-1.0688,-1.0688,-1.0691,-1.0711,-1.0863,-1.1046,-1.1223,-1.1345,-1.1491,-1.1584,-1.1584,-1.1584,-1.1584,0.0,0.0,0.0,0.0,0.0,0.0,0.0,0.0,0.0,0.0,0.0,0.0,0.0,-1.5099,-1.5313,-1.5123,-1.5527,-1.6001,-1.6473,-1.6308,-1.6072,-1.5812,-1.5598,-1.5123,-1.4358,-1.3511,-1.2616,-1.16,-1.1145,-1.0458,-0.9628,-1.1424,-1.1949,-1.1471,-1.3067,-1.3289,-1.2457,-1.2326,-1.1652,-1.0774,-1.15,-1.1341,-1.0704,-1.0854,-1.0899,-1.0939,-1.1232,-1.0996,-1.0575,-1.0677,-1.0379,-0.9974,-0.9849,-0.9792,-0.9792,-0.9792,-0.9792,-0.9792,-0.9792,-0.9792,-0.9761,-0.9548,-0.9599,-0.9676,-0.9483,-0.9532,-0.9682,-0.9729,-0.9739,-0.9755,-0.9806,-1.0294,-1.067,-1.0517,-1.0403,-1.0363,-1.0473,-1.0371,-1.0388,0.0,0.0,0.0,0.0,0.0,0.0,0.0,0.0,-1.0688,-1.0688,-1.0688,-1.0688,-1.0688,-1.0688,-1.0688,-1.0688,-1.0688,-1.0688,-1.0688,-1.0688,-1.0688,-1.0688,-1.0688,-1.0688,-1.0688,-1.0688,-1.0688,-1.0698,-1.085,-1.1033,-1.1213,-1.1366,-1.1484,-1.1584,-1.1584,-1.1584,-1.1584,0.0,0.0,0.0,0.0,0.0,0.0,0.0,0.0,-1.3835,-1.4573,0.0,0.0,0.0,0.0,-1.6096,-1.5859,-1.6285,-1.6786,-1.7279,-1.6833,-1.6574,-1.6574,-1.5859,-1.5218,-1.4693,-1.3992,-1.313,-1.2116,-1.1673,-1.1013,-1.0158,-1.1275,-1.1517,-1.105,-1.2298,-1.2554,-1.1992,-1.1873,-1.1396,-1.0774,-1.1528,-1.1407,-1.0825,-1.0951,-1.1033,-1.1122,-1.1395,-1.1146,-1.0665,-1.0767,-1.0425,-0.994,-0.9819,-0.9792,-0.9792,-0.9792,-0.9792,-0.9792,-0.9792,-0.9792,-0.9761,-0.9518,-0.9471,-0.945,-0.9227,-0.9175,-0.9192,-0.921,-0.9219,-0.9231,-0.9306,-0.9819,-1.0228,-1.0211,-1.0107,-1.0161,-1.0399,-1.0373,-1.0388,0.0,0.0,0.0,0.0,0.0,0.0,0.0,0.0,0.0,-1.0688,-1.0688,-1.0688,-1.0688,-1.0688,-1.0688,-1.0688,-1.0688,-1.0688,-1.0688,-1.0688,-1.0688,-1.0688,-1.0688,-1.0688,-1.0688,-1.0688,-1.0688,-1.0694,-1.0796,-1.0985,-1.1206,-1.1308,-1.144,-1.1584,-1.1584,-1.1584,-1.1584,0.0,0.0,0.0,0.0,0.0,0.0,0.0,0.0,-1.5361,-1.6072,0.0,0.0,0.0,0.0,0.0,-1.7232,-1.7302,-1.7302,-1.7302,-1.7279,-1.7279,-1.7279,-1.6567,-1.6167,-1.6167,-1.5159,-1.4394,-1.383,-1.2587,-1.1687,-1.115,-1.1313,-1.0973,-1.0246,-1.1419,-1.1956,-1.1921,-1.11,-1.0719,-1.0692,-1.0751,-1.0865,-1.1,-1.1008,-1.1086,-1.1252,-1.1443,-1.1301,-1.0999,-1.0857,-1.0577,-1.0243,-0.9913,-0.9792,-0.9792,-0.9792,-0.9792,-0.9792,0.0,0.0,0.0,-0.9792,-0.9548,-0.9305,-0.9278,-0.9068,-0.8922,-0.9057,-0.9084,-0.9093,-0.925,-0.9271,-0.9323,-0.954,-0.9583,-0.9763,-1.0221,-1.0308,-1.0388,-1.0647,0.0,0.0,0.0,0.0,0.0,0.0,-1.0688,-1.0688,-1.0688,-1.0688,-1.0688,-1.0688,-1.0688,-1.0688,-1.0688,-1.0688,-1.0688,-1.0688,-1.0688,-1.0688,-1.0688,-1.0688,-1.0688,-1.0688,-1.0688,-1.0688,-1.0688,-1.0688,-1.0894,-1.1196,-1.1196,-1.1352,-1.1584,-1.1584,-1.1584,-1.1584,0.0,0.0,0.0,0.0,0.0,-1.4502,-1.5289,-1.5242,-1.517,0.0,0.0,0.0,-1.5906,-1.6544,-1.7091,-1.7279,-1.7302,-1.7302,-1.7302,-1.6803,-1.6497,-1.6497,-1.5788,-1.5313,-1.5112,-1.407,-1.3221,-1.2538,-1.177,-1.0944,-1.0068,-1.0636,-1.0655,-1.022,-1.0639,-1.0923,-1.1105,-1.1665,-1.1446,-1.0782,-1.1769,-1.1694,-1.1025,-1.1285,-1.1382,-1.1447,-1.1634,-1.1511,-1.118,-1.0895,-1.0577,-1.0243,-0.9913,-0.9792,-0.9792,-0.9792,-0.9792,-0.9792,-0.9792,0.0,0.0,0.0,0.0,0.0,-0.8763,-0.8583,-0.8561,-0.86,-0.8387,-0.8304,-0.8588,-0.8436,-0.8456,-0.9008,-0.9363,-0.9727,-1.0044,-1.0209,-1.0348,-1.0534,0.0,0.0,0.0,0.0,0.0,0.0,-1.0688,-1.0688,-1.0688,-1.0688,-1.0688,-1.0688,-1.0688,-1.0688,-1.0688,-1.0688,-1.0688,-1.0688,-1.0688,-1.0688,-1.0688,-1.0688,-1.0688,-1.0688,-1.0688,-1.0688,-1.0688,-1.0688,-1.0894,-1.1196,-1.1196,-1.1352,-1.1584,-1.1584,-1.1584,-1.1584,0.0,0.0,-1.3908,-1.4334,-1.4406,-1.4669,-1.5432,-1.5551,-1.5669,0.0,0.0,0.0,-1.6662,-1.7044,-1.7302,-1.7302,-1.7302,-1.7302,-1.7302,-1.6904,-1.6622,-1.6534,-1.6109,-1.5557,-1.4843,-1.4136,-1.3336,-1.2465,-1.1619,-1.0912,-1.0357,-1.0454,-1.0414,-1.0282,-1.0461,-1.0599,-1.0747,-1.1419,-1.1314,-1.0791,-1.1636,-1.1625,-1.1106,-1.139,-1.1549,-1.163,-1.177,-1.1587,-1.1273,-1.1061,-1.0698,-1.0243,-0.9913,-0.9792,-0.9792,-0.9792,-0.9792,-0.9792,-0.9792,-0.9792,-0.9761,-0.9548,0.0,0.0,-0.8854,-0.8702,-0.8583,-0.843,-0.8244,-0.8119,-0.8183,-0.8027,-0.8116,-0.8793,-0.9137,-0.9456,-0.9946,-1.0096,-1.0239,-1.0385,0.0,0.0,0.0,-1.0683,-1.0688,-1.0688,-1.0688,-1.0688,-1.0688,-1.0688,-1.0688,-1.0688,-1.0688,-1.0688,-1.0688,-1.0688,-1.0688,-1.0688,-1.0688,-1.0688,-1.0688,-1.0688,-1.0688,-1.0688,-1.0688,-1.0688,-1.0688,-1.0688,-1.086,-1.108,-1.1172,-1.1346,-1.1531,-1.1596,-1.1584,-1.1584,0.0,0.0,-1.5099,-1.5099,-1.517,-1.5432,-1.6096,-1.6261,-1.6567,0.0,-1.7302,-1.7302,-1.7302,-1.7302,-1.7302,-1.7302,-1.7302,-1.7302,-1.7302,-1.7279,-1.72,-1.7003,-1.6979,-1.6376,-1.5164,-1.4854,-1.4226,-1.3221,-1.2024,-1.1401,-1.1395,-1.0737,-1.041,-1.0417,-1.0615,-1.0692,-1.0692,-1.0692,-1.0704,-1.0741,-1.0951,-1.1102,-1.1273,-1.1459,-1.1634,-1.1806,-1.1806,-1.1617,-1.1333,-1.1273,-1.0819,-1.0243,-0.9913,-0.9792,-0.9792,-0.9792,-0.9792,-0.9792,-0.9792,-0.9792,-0.9792,-0.9792,-0.9579,0.0,-0.9305,-0.9126,-0.8854,0.0,-0.8491,-0.8366,-0.8055,-0.7994,-0.8147,-0.8793,-0.8885,-0.9139,-0.9881,-0.9977,-1.0069,-1.0239,0.0,0.0,-1.047,-1.0592,-1.0644,-1.0694,-1.0677,-1.0688,-1.0688,-1.0688,-1.0688,-1.0688,-1.0688,-1.0688,-1.0688,-1.0688,-1.0688,-1.0688,-1.0688,-1.0688,-1.0688,-1.0688,-1.0688,-1.0688,-1.0688,-1.0688,-1.0688,-1.0688,-1.0775,-1.0928,-1.1107,-1.1291,-1.1409,-1.1562,-1.1584,-1.1584,-1.486,-1.498,-1.5099,-1.5099,-1.5598,-1.6025,-1.619,-1.6692,-1.7138,-1.7279,-1.7302,-1.7302,-1.7302,-1.7302,-1.7302,-1.7302,-1.7302,-1.7302,-1.7302,-1.7153,-1.7043,-1.7003,-1.6784,-1.6447,-1.5974,-1.5123,-1.4495,-1.4076,-1.3221,-1.2318,-1.1421,-1.1675,-1.1323,-1.0417,-1.0615,-1.0692,-1.0692,-1.0692,-1.0777,-1.096,-1.1102,-1.1281,-1.1464,-1.165,-1.1774,-1.1806,-1.1806,-1.1776,-1.1621,-1.1095,-1.0637,-1.0243,-0.9913,-0.9792,-0.9792,-0.9792,-0.9792,-0.9792,-0.9792,-0.9792,-0.9792,0.0,0.0,0.0,-0.9366,-0.9247,-0.9217,-0.9126,-0.8946,-0.8793,-0.8732,-0.8488,-0.843,-0.8824,-0.8885,-0.9105,-0.9741,-0.994,-0.9997,-1.0059,0.0,0.0,-1.0352,-1.0348,-1.0415,-1.0527,-1.0649,-1.0688,-1.0688,-1.0688,-1.0688,-1.0688,-1.0688,-1.0688,-1.0688,-1.0688,-1.0688,-1.0688,-1.0688,-1.0688,-1.0688,-1.0688,-1.0688,-1.0688,-1.0688,-1.0688,-1.0688,-1.0688,-1.0775,-1.0928,-1.1107,-1.1291,-1.1409,-1.1562,-1.1584,-1.1584,-1.4502,-1.4813,-1.5099,-1.5099,-1.5717,-1.619,-1.619,-1.6833,-1.7302,-1.7302,-1.7302,-1.7302,-1.7302,-1.7302,-1.7302,-1.7302,-1.7302,-1.7302,-1.7302,-1.7113,-1.6932,-1.6807,-1.6548,-1.6045,-1.5261,-1.4902,-1.4382,-1.3748,-1.2946,-1.2282,-1.1782,-1.145,-1.1036,-1.0539,-1.0655,-1.0692,-1.0692,-1.0692,-1.0846,-1.1102,-1.1159,-1.1334,-1.152,-1.1707,-1.1806,-1.1806,-1.1806,-1.1806,-1.1716,-1.1216,-1.094,0.0,-1.0213,-1.0061,-1.0035,0.0,-0.9792,-0.9792,0.0,0.0,0.0,-0.9792,0.0,0.0,0.0,-0.9548,-0.9488,-0.9335,-0.9186,-0.9065,-0.8915,-0.8766,-0.8732,-0.9034,-0.9095,-0.9278,-0.9731,-0.9856,-0.9903,-0.9903,0.0,0.0,-1.0164,-1.0236,-1.0342,-1.0414,-1.046,-1.0531,-1.0602,-1.0605,-1.0639,-1.0684,-1.0688,-1.0688,-1.0688,-1.0688,-1.0688,-1.0688,-1.0688,-1.0688,-1.0688,-1.0688,-1.0688,-1.0688,-1.0688,-1.0688,-1.0688,-1.0688,-1.0732,-1.0823,-1.1111,-1.1244,-1.1304,-1.1535,-1.1584,-1.1584,-1.4094,-1.4765,-1.5266,-1.5123,-1.5835,-1.6355,-1.6214,-1.6833,-1.7302,-1.7302,-1.7302,-1.7286,-1.7239,-1.7239,-1.7216,-1.7169,-1.7169,-1.7169,-1.7169,-1.7029,-1.6852,-1.6632,-1.6402,-1.5807,-1.4788,-1.4974,-1.4583,-1.3552,-1.2879,-1.2441,-1.2146,-1.1211,-1.0743,-1.0692,-1.0692,-1.0692,-1.0692,-1.0729,-1.0932,-1.1195,-1.1232,-1.1386,-1.1569,-1.1749,-1.1806,-1.1806,-1.1806,-1.1806,-1.1746,-1.1398,-1.1303,-1.1182,-1.0577,-1.0334,0.0,0.0,0.0,0.0,0.0,0.0,0.0,0.0,0.0,-0.9792,0.0,0.0,0.0,-0.9457,-0.9396,-0.9305,-0.9037,0.0,0.0,0.0,0.0,0.0,0.0,-0.9771,0.0,-0.9792,0.0,0.0,-0.9974,-1.0144,-1.0236,-1.0236,-1.0263,-1.0363,-1.0446,-1.0477,-1.0548,-1.0673,-1.0704,-1.0688,-1.0688,-1.0688,-1.0688,-1.0688,-1.0688,-1.0688,-1.0688,-1.0688,-1.0688,-1.0688,-1.0688,-1.0688,-1.0688,-1.0688,-1.0688,-1.0718,-1.108,-1.1196,-1.1234,-1.1508,-1.1584,-1.1584,-1.4813,-1.5551,-1.5859,-1.5218,-1.6261,-1.6951,-1.6308,-1.6833,-1.7302,-1.7302,-1.7302,-1.7216,-1.7043,-1.7026,-1.6949,-1.6699,-1.6683,-1.6683,-1.6683,-1.6711,-1.6725,-1.6701,-1.6646,-1.6582,-1.6426,-1.6459,-1.5915,-1.4795,-1.4922,-1.397,-1.2009,-1.2138,-1.1642,-1.0692,-1.0692,-1.0692,-1.0704,-1.0894,-1.1045,-1.1207,-1.1403,-1.1577,-1.1778,-1.1798,-1.1806,-1.1806,-1.1806,-1.1806,-1.1746,0.0,-1.1303,-1.1243,0.0,-1.0547,-1.0304,-1.0243,0.0,0.0,0.0,0.0,0.0,0.0,-0.9792,0.0,0.0,0.0,-0.9792,-0.9761,0.0,-0.964,-0.9305,0.0,0.0,0.0,0.0,0.0,-0.9593,-0.971,-0.9792,-0.9792,-0.9805,0.0,0.0,-0.9954,-1.0045,-1.0045,-1.0202,-1.0318,-1.0335,-1.0454,-1.05,-1.0517,-1.0649,-1.0688,-1.0688,-1.0688,-1.0688,-1.0688,-1.0688,-1.0688,-1.0688,-1.0688,-1.0688,-1.0688,-1.0688,-1.0688,-1.0688,-1.0688,-1.0688,-1.0718,-1.108,-1.1196,-1.1234,-1.1508,-1.1584,-1.1584,-1.443,-1.5027,-1.5456,-1.5146,-1.5977,-1.6567,-1.6261,-1.6833,-1.7302,-1.7302,-1.7302,-1.7335,-1.7454,-1.7316,-1.7275,-1.7356,-1.7218,-1.7113,-1.7113,-1.7001,-1.6936,-1.6936,-1.6771,-1.6707,-1.6707,-1.6899,-1.6757,-1.6285,-1.5193,-1.4146,-1.3192,-1.1973,-1.1149,-1.0692,-1.0692,-1.0692,-1.0704,-1.0919,-1.1066,-1.1211,-1.1423,-1.161,-1.1806,-1.1806,-1.1806,-1.1806,-1.1806,-1.1806,-1.1776,0.0,-1.1587,0.0,0.0,0.0,0.0,-1.0395,0.0,0.0,0.0,0.0,0.0,0.0,0.0,0.0,-0.9792,0.0,-0.9792,0.0,0.0,0.0,0.0,0.0,0.0,0.0,-0.9566,0.0,0.0,0.0,-0.9792,0.0,0.0,0.0,0.0,0.0,0.0,0.0,-0.9975,-1.0053,-1.0109,-1.029,-1.0409,-1.049,-1.0639,-1.0688,-1.0688,-1.0688,-1.0688,-1.0688,-1.0688,-1.0688,-1.0688,-1.0688,-1.0688,-1.0688,-1.0688,-1.0688,-1.0688,-1.0688,-1.0688,-1.0718,-1.108,-1.1196,-1.1234,-1.1508,-1.1584,-1.1584,-1.3998,-1.4717,-1.5408,-1.5408,-1.6001,-1.6497,-1.6497,-1.7022,-1.7417,-1.7347,-1.7403,-1.75,-1.761,-1.742,-1.7397,-1.7548,-1.7381,-1.7281,-1.7281,-1.7189,-1.7143,-1.7143,-1.7009,-1.6947,-1.6947,-1.7187,-1.7158,-1.6847,-1.499,-1.3949,-1.3599,-1.161,-1.0692,-1.0692,-1.0692,-1.072,-1.0777,-1.0992,-1.1139,-1.1313,-1.15,-1.1658,-1.1806,-1.1806,-1.1806,-1.1806,-1.1806,-1.1806,-1.1806,-1.1806,-1.1806,0.0,-1.1522,0.0,-1.1212,0.0,0.0,0.0,-1.0001,0.0,0.0,0.0,0.0,0.0,0.0,0.0,0.0,0.0,0.0,0.0,0.0,0.0,-0.9778,-0.9741,0.0,-0.9775,0.0,-0.9765,0.0,0.0,0.0,0.0,0.0,0.0,0.0,0.0,0.0,-0.9839,-0.995,-1.0175,-1.0327,-1.0429,-1.0619,-1.0688,-1.0688,-1.0688,-1.0688,-1.0688,-1.0688,-1.0688,-1.0688,-1.0688,-1.0688,-1.0688,-1.0688,-1.0688,-1.0688,-1.0688,-1.0688,-1.0744,-1.1002,-1.1162,-1.1234,-1.1508,-1.1584,-1.1584,-1.3908,-1.5123,-1.6167,-1.6167,-1.6756,-1.7255,-1.7255,-1.7549,-1.7681,-1.743,-1.7671,-1.769,-1.7182,-1.7107,-1.7007,-1.6757,-1.6732,-1.6732,-1.6732,-1.7025,-1.7186,-1.7186,-1.7434,-1.7582,-1.7582,-1.7588,-1.7054,-1.5929,-1.4695,-1.3545,-1.244,-1.1259,-1.0692,-1.0692,-1.0692,-1.0821,-1.1,-1.1143,-1.1321,-1.1504,-1.1725,-1.1802,-1.1806,0.0,-1.1806,-1.1806,-1.1806,0.0,0.0,-1.1806,-1.1806,0.0,0.0,0.0,0.0,0.0,0.0,0.0,0.0,0.0,0.0,-0.9792,0.0,0.0,0.0,0.0,-0.9792,0.0,0.0,0.0,0.0,-0.9792,-0.9748,-0.9639,-0.97,0.0,0.0,0.0,0.0,0.0,0.0,0.0,0.0,0.0,0.0,0.0,0.0,0.0,-0.9798,-1.0117,-1.0315,-1.0318,-1.0568,-1.0688,-1.0688,-1.0688,-1.0688,-1.0688,-1.0688,-1.0688,-1.0688,-1.0688,-1.0688,-1.0688,-1.0688,-1.0688,-1.0688,-1.0688,-1.0688,-1.0701,-1.086,-1.104,-1.1234,-1.1508,-1.1584,-1.1584,-1.4226,-1.4585,-1.5038,-1.5408,-1.5937,-1.6486,-1.7015,-1.7392,-1.7573,-1.7475,-1.7566,-1.7664,-1.7691,-1.7491,-1.742,-1.7559,-1.7392,-1.7314,-1.7314,-1.7408,-1.7461,-1.7461,-1.7555,-1.7608,-1.7608,-1.7608,-1.7424,-1.7015,-1.5855,-1.4701,-1.3491,-1.2363,-1.1419,-1.0692,-1.0692,-1.0821,-1.1008,-1.1151,-1.133,-1.1516,-1.1733,-1.1806,-1.1806,0.0,0.0,-1.1806,-1.1806,-1.1806,0.0,-1.1806,-1.1806,-1.1806,-1.1806,-1.1712,-1.1587,-1.1367,-1.1152,0.0,0.0,0.0,-1.0092,-0.9852,0.0,0.0,0.0,0.0,0.0,0.0,0.0,0.0,0.0,-0.9792,-0.9775,-0.9727,-0.9758,-0.9771,0.0,0.0,0.0,0.0,0.0,0.0,0.0,0.0,0.0,0.0,0.0,0.0,0.0,-1.0114,-1.0312,-1.0312,-1.0568,-1.0688,-1.0688,-1.0688,-1.0688,-1.0688,-1.0688,-1.0688,-1.0688,-1.0688,-1.0688,-1.0688,-1.0688,-1.0688,-1.0688,-1.0688,-1.0688,-1.0701,-1.0857,-1.1036,-1.1223,-1.1392,-1.1531,-1.1584,-1.4092,-1.4019,-1.4332,-1.5343,-1.6017,-1.6442,-1.652,-1.719,-1.7641,-1.7523,-1.7588,-1.7733,-1.785,-1.7664,-1.7616,0.0,-1.7694,-1.7608,-1.7608,-1.7608,0.0,-1.7608,-1.7608,-1.7608,0.0,-1.7608,-1.7608,-1.7608,-1.6452,-1.5509,-1.4701,-1.3139,-1.2014,-1.1286,-1.095,-1.0919,-1.107,-1.1244,-1.1427,-1.161,-1.1758,-1.1806,0.0,0.0,-1.1806,-1.1806,0.0,-1.1806,-1.1806,-1.1806,-1.1806,-1.1806,-1.1806,-1.1806,-1.1776,-1.1553,-1.1398,-1.1212,-1.0759,-1.0577,0.0,-1.0061,-0.997,0.0,-0.9819,0.0,0.0,0.0,0.0,0.0,0.0,0.0,-0.9792,-0.9792,-0.9792,-0.9792,0.0,-0.9792,0.0,0.0,0.0,0.0,0.0,0.0,0.0,0.0,0.0,0.0,0.0,0.0,-1.0312,-1.0312,-1.0568,-1.0688,-1.0688,-1.0688,-1.0688,-1.0688,-1.0688,-1.0688,-1.0688,-1.0688,-1.0688,-1.0688,-1.0688,-1.0688,-1.0688,-1.0688,-1.0688,-1.0698,-1.0796,-1.0989,-1.1217,-1.1335,-1.1487,-1.1584,-1.3377,-1.3413,-1.4005,-1.5714,-1.6812,-1.7064,-1.596,-1.703,-1.7867,-1.756,-1.7787,-1.7885,-1.7635,-1.7608,-1.7608,-1.7608,-1.7608,-1.7608,-1.7608,-1.7608,0.0,0.0,-1.7608,-1.7608,-1.7608,0.0,0.0,-1.7608,-1.6505,-1.5968,-1.5861,-1.3572,-1.244,-1.2372,-1.1409,-1.1066,-1.1207,-1.1419,-1.1606,-1.1806,-1.1806,-1.1806,-1.1806,-1.1806,-1.1806,-1.1806,-1.1806,-1.1806,-1.1806,-1.1806,-1.1806,-1.1806,-1.1806,-1.1806,-1.1806,-1.1806,-1.1557,-1.1333,-1.1303,-1.1061,-1.0728,-1.0395,0.0,0.0,0.0,0.0,-0.9792,0.0,0.0,0.0,0.0,0.0,0.0,-0.9792,-0.9792,-0.9792,-0.9792,-0.9792,-0.9792,0.0,0.0,0.0,0.0,0.0,0.0,0.0,0.0,0.0,0.0,0.0,-1.0312,-1.0312,-1.0568,-1.0688,-1.0688,-1.0688,-1.0688,-1.0688,-1.0688,-1.0688,-1.0688,-1.0688,-1.0688,-1.0688,-1.0688,-1.0688,-1.0688,-1.0688,-1.0688,-1.0688,-1.0688,-1.09,-1.1217,-1.1345,-1.1494,-1.1584,-1.1653,-1.2374,-1.2808,-1.2047,-1.455,-1.6702,0.0,0.0,0.0,-1.7599,-1.7647,-1.7687,-1.7608,-1.7608,-1.7608,-1.7608,-1.7608,0.0,0.0,0.0,0.0,-1.7608,-1.7608,-1.7608,-1.7608,-1.7608,-1.7608,-1.7608,-1.7312,-1.6723,-1.5861,-1.4379,-1.3221,-1.2372,-1.1409,-1.1066,-1.1207,-1.1419,-1.1606,-1.1806,-1.1806,-1.1806,-1.1806,0.0,-1.1806,-1.1806,-1.1806,-1.1806,-1.1806,-1.1806,-1.1806,-1.1806,-1.1806,-1.1806,-1.1806,-1.1806,-1.1742,-1.1617,-1.1367,-1.1061,-1.0728,-1.0395,-1.0122,-0.9913,0.0,0.0,0.0,0.0,0.0,0.0,0.0,0.0,0.0,-0.9792,-0.9792,-0.9792,-0.9792,0.0,0.0,-0.9792,0.0,0.0,0.0,0.0,0.0,0.0,0.0,0.0,0.0,0.0,0.0,-1.0312,-1.0568,-1.0688,-1.0688,-1.0688,-1.0688,-1.0688,-1.0688,-1.0688,-1.0688,-1.0688,-1.0688,-1.0688,-1.0688,-1.0688,-1.0688,-1.0688,-1.0688,-1.0688,-1.0688,-1.09,-1.123,-1.1463,-1.1586,-1.1584,-1.1628,-1.2566,-1.3124,-1.2167,-1.432,0.0,-1.588,-1.6832,0.0,-1.7608,-1.7702,0.0,-1.7756,-1.7903,-1.7976,-1.7976,-1.7862,0.0,-1.7756,0.0,0.0,-1.7608,-1.7608,-1.7608,-1.7608,-1.7608,0.0,-1.7608,-1.7608,-1.7015,-1.5861,-1.4674,-1.3542,-1.2486,-1.1528,-1.1179,-1.1329,-1.1541,-1.1713,-1.1806,-1.1806,-1.1806,0.0,-1.1806,-1.1806,-1.1806,-1.1806,-1.1806,-1.1806,-1.1806,-1.1806,-1.1806,-1.1806,-1.1806,-1.1806,-1.1806,-1.1806,-1.1742,-1.1398,-1.1152,-1.091,-1.0425,-1.0152,-0.997,-0.9819,-0.9792,-0.9792,0.0,0.0,0.0,0.0,0.0,0.0,-0.9792,-0.9792,-0.9792,0.0,0.0,0.0,0.0,-0.9792,0.0,0.0,0.0,0.0,0.0,0.0,0.0,0.0,0.0,0.0,-1.0403,-1.0599,-1.0688,-1.0688,-1.0688,-1.0688,-1.0688,-1.0688,-1.0688,-1.0688,-1.0688,-1.0688,-1.0688,-1.0688,-1.0688,-1.0688,-1.0688,-1.0688,-1.0698,-1.0863,-1.1016,-1.1234,-1.1508,-1.1584,-1.1584,-1.2173,-1.2977,-1.3706,-1.3836,-1.4862,0.0,0.0,-1.6262,0.0,-1.7642,0.0,-1.8076,-1.8076,-1.8337,-1.849,-1.849,-1.8229,-1.8063,-1.7995,-1.7796,-1.7648,-1.7608,-1.7608,-1.7608,-1.7608,-1.7608,-1.7608,0.0,-1.7444,-1.6882,-1.5861,-1.4546,-1.3481,-1.2664,-1.1678,-1.1362,-1.1545,-1.1737,-1.1806,-1.1806,-1.1806,-1.1806,-1.1806,-1.1806,-1.1806,-1.1806,-1.1806,-1.1806,-1.1806,-1.1806,-1.1806,-1.1806,-1.1806,-1.1806,-1.1806,-1.1806,-1.1806,-1.1742,-1.1428,-1.1303,-1.1091,-1.0516,-1.0304,-1.0152,-0.9852,-0.9805,-0.9815,-0.9795,-0.9805,-0.9815,0.0,0.0,0.0,-0.9792,0.0,0.0,0.0,0.0,0.0,0.0,0.0,0.0,0.0,0.0,0.0,0.0,0.0,0.0,0.0,0.0,0.0,-1.0487,-1.0639,-1.0688,-1.0688,0.0,-1.0688,-1.0688,-1.0688,-1.0688,-1.0688,-1.0688,-1.0688,-1.0688,-1.0688,-1.0688,-1.0688,-1.0688,-1.0688,-1.0718,-1.108,-1.1196,-1.1234,-1.1508,-1.1584,-1.1584,-1.0989,-1.1149,-1.1582,-1.2521,-1.3652,-1.4741,-1.5765,-1.7046,-1.7936,-1.7936,-1.8196,-1.841,-1.841,-1.8464,-1.849,-1.849,-1.8444,0.0,0.0,0.0,0.0,-1.7622,-1.7608,-1.7608,-1.7608,-1.7608,-1.7608,0.0,0.0,-1.6101,-1.5867,-1.3883,-1.2868,-1.2669,-1.1818,-1.1553,-1.1762,-1.1794,0.0,-1.1806,-1.1806,-1.1806,-1.1806,-1.1806,-1.1806,-1.1806,-1.1806,-1.1806,-1.1806,-1.1806,-1.1806,-1.1806,-1.1806,-1.1806,-1.1806,-1.1806,-1.1806,-1.1776,-1.1742,-1.1311,-1.0849,-1.0728,-1.0304,-0.9883,-0.9822,-0.989,-0.9944,-0.9815,-0.989,-0.994,-0.9812,0.0,0.0,0.0,0.0,0.0,0.0,0.0,0.0,0.0,0.0,-0.9792,0.0,0.0,0.0,0.0,0.0,0.0,0.0,0.0,0.0,0.0,-1.0639,0.0,0.0,0.0,-1.0688,-1.0688,-1.0688,-1.0688,-1.0688,-1.0688,-1.0688,-1.0688,-1.0688,-1.0688,-1.0688,-1.0688,-1.0688,-1.0718,-1.108,-1.1196,-1.1234,-1.1508,-1.1584,-1.1584,-1.0692,-1.0692,-1.1067,-1.22,0.0,0.0,0.0,-1.7535,-1.8423,-1.8269,-1.8531,-1.8718,-1.8718,-1.8851,-1.8973,-1.8973,-1.8804,-1.8629,-1.8483,-1.8329,-1.8116,-1.7809,-1.7822,-1.7749,-1.7615,-1.7608,-1.7312,-1.6723,0.0,-1.5391,-1.4227,-1.3294,-1.2587,-1.208,-1.1786,-1.1725,-1.1806,0.0,0.0,-1.1806,-1.1806,-1.1806,-1.1806,-1.1806,-1.1806,-1.1806,-1.1806,-1.1806,-1.1806,-1.1806,-1.1806,-1.1806,-1.1806,-1.1806,-1.1806,-1.1806,-1.1806,-1.1766,-1.1668,-1.1291,-1.0877,-1.0811,-1.0433,-1.0059,-1.0059,-1.0117,-1.0148,-1.0076,-1.0117,-1.0148,-1.0073,-1.0059,0.0,0.0,0.0,0.0,0.0,0.0,-0.9907,0.0,0.0,0.0,0.0,0.0,0.0,0.0,0.0,0.0,0.0,0.0,0.0,0.0,0.0,0.0,0.0,0.0,0.0,-1.0688,-1.0688,-1.0688,-1.0688,-1.0688,-1.0688,-1.0688,-1.0688,-1.0688,-1.0688,-1.0688,-1.0688,-1.0718,-1.108,-1.1196,-1.1234,-1.1508,-1.1584,-1.1584,-1.1067,-1.1316,-1.1886,0.0,-1.4247,0.0,-1.6664,-1.8017,-1.881,-1.8611,-1.8838,-1.9018,-1.9018,-1.9225,-1.9395,-1.9395,-1.9152,-1.8991,-1.8896,-1.8711,-1.845,-1.8129,-1.8116,-1.7996,-1.7809,-1.7802,-1.7336,0.0,0.0,0.0,0.0,-1.2819,-1.2273,-1.1565,0.0,0.0,0.0,0.0,-1.1651,-1.1591,-1.1591,-1.1591,-1.1591,-1.1591,-1.1591,-1.1591,-1.1591,-1.1591,-1.1591,-1.1591,-1.1682,-1.1806,-1.1806,-1.1746,-1.172,-1.1817,-1.1803,-1.1717,-1.1607,-1.1312,-1.1034,-1.0851,-1.0566,-1.0312,-1.0312,-1.0335,-1.0317,-1.0318,-1.0312,-1.0312,-1.0312,-1.0312,0.0,0.0,0.0,0.0,0.0,0.0,0.0,0.0,0.0,0.0,-0.9842,0.0,0.0,0.0,0.0,0.0,0.0,0.0,0.0,0.0,0.0,-1.0688,-1.0688,0.0,-1.0688,0.0,-1.0688,-1.0688,-1.0688,-1.0688,-1.0688,-1.0688,-1.0688,-1.0688,-1.0688,-1.0688,-1.0688,-1.0718,-1.108,-1.1196,-1.1234,-1.1508,-1.1584,-1.1584,0.0,-1.3332,0.0,0.0,0.0,0.0,-1.8453,-1.88,-1.8883,-1.8856,-1.9145,-1.9354,-1.9354,-1.9381,-1.9395,-1.9395,-1.9368,-1.9212,-1.8916,-1.887,-1.8751,-1.8464,-1.845,-1.8437,-1.841,-1.841,-1.8348,0.0,0.0,0.0,0.0,-1.2511,-1.1688,0.0,0.0,0.0,0.0,-1.1363,-1.1186,-1.088,-1.088,-1.088,-1.088,-1.088,-1.088,-1.088,-1.088,-1.088,-1.088,-1.088,-1.1311,-1.1806,-1.1806,-1.1587,-1.1425,-1.1863,-1.1757,-1.1549,-1.1728,-1.1522,-1.121,-1.0876,-1.0566,-1.0312,-1.0312,-1.0378,-1.0436,-1.0339,-1.0312,-1.0312,-1.0312,-1.0312,-1.0312,0.0,0.0,0.0,0.0,0.0,-1.0259,-1.0259,0.0,0.0,0.0,-0.9967,0.0,0.0,-0.9967,0.0,0.0,0.0,0.0,-1.0714,0.0,-1.0688,-1.0688,-1.0688,-1.0688,-1.0688,-1.0688,-1.0688,-1.0688,-1.0688,-1.0688,-1.0688,-1.0688,-1.0688,-1.0688,-1.0688,-1.0688,-1.0718,-1.108,-1.1196,-1.1234,-1.1508,-1.1584,-1.1584,0.0,0.0,0.0,0.0,0.0,0.0,0.0,-1.9078,-1.9192,-1.9192,-1.9321,-1.9395,-1.9395,-1.9395,-1.9395,-1.9395,-1.9395,-1.9348,-1.9199,-1.9192,-1.9058,-1.8736,-1.8751,-1.8664,-1.8497,-1.849,-1.8151,0.0,0.0,0.0,0.0,0.0,0.0,0.0,0.0,-1.2272,-1.2088,-1.1333,-1.091,-1.0789,-1.0789,-1.0789,-1.0789,-1.0789,-1.0789,-1.0789,-1.0789,-1.0789,-1.0789,-1.0789,-1.0974,-1.119,-1.119,-1.1168,-1.1168,-1.1329,-1.1359,-1.1351,-1.1581,-1.1369,-1.1102,-1.1041,-1.0805,-1.0544,-1.0544,-1.0588,-1.0612,-1.0558,-1.0544,-1.0544,-1.0544,-1.0544,-1.0544,0.0,0.0,0.0,0.0,0.0,0.0,-1.0409,0.0,-1.0256,0.0,0.0,0.0,0.0,0.0,0.0,0.0,0.0,0.0,-1.0714,0.0,-1.0688,-1.0688,-1.0688,-1.0688,-1.0688,-1.0688,-1.0688,-1.0688,-1.0688,-1.0688,-1.0688,-1.0688,-1.0688,-1.0688,-1.0688,-1.0688,-1.0718,-1.108,-1.1196,-1.1234,-1.1508,-1.1584,-1.1584,-1.5204,0.0,-1.6194,0.0,-1.7647,-1.8122,-1.8909,-1.9261,-1.9395,-1.9395,-1.9395,-1.9395,-1.9395,-1.9395,-1.9395,-1.9395,-1.9395,-1.9395,-1.9395,-1.9395,-1.9301,-1.9065,-1.9052,0.0,-1.8779,-1.8751,-1.8316,-1.7422,-1.6253,0.0,0.0,0.0,0.0,0.0,-1.3105,-1.2449,-1.1937,-1.1031,-1.0607,-1.0516,-1.0516,-1.0516,-1.0516,-1.0516,-1.0516,-1.0516,-1.0516,-1.0515,-1.0558,-1.0558,-1.0591,-1.0681,-1.0817,-1.0887,-1.0968,-1.1106,-1.1139,-1.1169,-1.1362,-1.1243,-1.1072,-1.1054,-1.0883,-1.0688,-1.0688,-1.0688,-1.0688,-1.0688,-1.0688,-1.0688,-1.0688,-1.0688,-1.0688,-1.0688,0.0,0.0,0.0,0.0,0.0,0.0,-1.047,-1.0392,-1.0348,-1.0373,0.0,0.0,0.0,0.0,0.0,0.0,0.0,0.0,0.0,0.0,0.0,-1.0688,-1.0688,-1.0688,-1.0688,-1.0688,-1.0688,-1.0688,-1.0688,-1.0688,-1.0688,-1.0688,-1.0688,-1.0688,-1.0688,-1.0718,-1.108,-1.1196,-1.1234,-1.1508,-1.1584,-1.1584,-1.676,-1.7883,-1.8855,-1.8861,-1.9136,-1.9388,-1.9395,-1.9395,-1.9395,-1.9395,-1.9395,-1.9395,-1.9395,-1.9395,-1.9395,-1.9395,-1.9395,-1.9395,-1.9395,-1.9395,-1.9395,0.0,0.0,-1.9388,-1.9388,-1.9388,-1.9236,-1.8868,0.0,0.0,-1.6241,0.0,-1.3795,-1.2719,-1.2719,-1.1812,-1.0334,-1.0304,-1.0122,-0.9822,-0.9822,-0.9822,-0.9822,-0.9822,-0.9822,-0.9822,-0.9822,-0.9886,-1.0015,-1.0015,-1.0148,-1.0404,-1.0842,-1.0904,-1.0877,-1.1346,-1.1261,-1.1041,-1.1168,-1.1211,-1.1115,-1.0787,-1.0688,-1.0688,-1.0688,-1.0688,-1.0688,-1.0688,-1.0688,-1.0688,-1.0688,-1.0688,-1.0688,-1.0688,0.0,0.0,0.0,0.0,0.0,-1.0684,-1.0684,-1.0656,-1.0504,-1.049,0.0,0.0,0.0,0.0,0.0,0.0,0.0,-1.0688,-1.0688,0.0,-1.0688,-1.0688,-1.0688,-1.0688,-1.0688,-1.0688,-1.0688,-1.0688,-1.0688,-1.0688,-1.0688,-1.0688,-1.0688,-1.0688,-1.0688,-1.0718,-1.108,-1.1196,-1.1234,-1.1508,-1.1584,-1.1584,-1.8203,-1.8603,-1.8956,-1.9192,-1.9334,-1.9395,-1.9395,-1.9395,-1.9395,-1.9395,-1.9395,-1.9395,-1.9395,-1.9395,-1.9395,0.0,-1.9395,-1.9395,0.0,-1.9395,-1.9395,-1.9395,-1.9395,-1.9395,-1.9395,-1.9178,-1.8997,-1.8903,0.0,0.0,0.0,-1.5761,-1.5239,-1.4649,-1.3754,-1.259,-1.1209,-1.0334,-0.9913,-0.9792,-0.9792,-0.9792,-0.9792,-0.9792,-0.9792,-0.9805,-0.9907,-0.9978,-1.0035,-1.0171,-1.0304,-1.0448,-1.0621,-1.0642,-1.0626,-1.0768,-1.0826,-1.0788,-1.084,-1.0853,-1.0817,-1.0721,-1.0688,-1.0688,-1.0688,-1.0688,-1.0688,-1.0688,-1.0688,-1.0688,-1.0688,-1.0688,-1.0688,-1.0688,-1.0688,0.0,0.0,0.0,0.0,0.0,-1.0688,-1.0667,0.0,-1.0649,0.0,0.0,0.0,0.0,0.0,0.0,0.0,0.0,-1.0688,0.0,-1.0688,-1.0688,-1.0688,-1.0688,-1.0688,-1.0688,-1.0688,-1.0688,-1.0688,-1.0688,-1.0688,-1.0688,-1.0688,-1.0688,-1.0688,-1.0718,-1.108,-1.1196,-1.1234,-1.1508,-1.1584,-1.1584,-1.9052,-1.9092,-1.9152,-1.9361,-1.9395,-1.9395,-1.9395,-1.9395,-1.9395,-1.9395,-1.9395,-1.9395,-1.9395,-1.9395,0.0,-1.9395,-1.9395,-1.9395,-1.9395,-1.9395,-1.9395,-1.9395,-1.9272,-1.9214,-1.9214,0.0,0.0,-1.8567,-1.7437,-1.6791,-1.662,-1.662,-1.5994,-1.4857,-1.4053,-1.2676,-1.0936,-1.0152,-0.9792,-0.9792,-0.9792,-0.9792,-0.9798,-0.9852,-0.9876,-0.9896,-1.0052,-1.014,-1.0197,-1.0327,-1.0456,-1.0578,-1.0578,-1.0578,-1.0578,-1.0578,-1.0643,-1.0688,-1.0688,-1.0688,-1.0688,-1.0688,-1.0688,-1.0688,-1.0688,-1.0688,-1.0688,-1.0688,-1.0688,-1.0688,-1.0688,-1.0688,-1.0688,-1.0688,-1.0688,-1.0688,-1.0688,0.0,0.0,0.0,0.0,0.0,0.0,-1.0688,-1.0688,0.0,0.0,0.0,0.0,0.0,0.0,-1.0688,-1.0688,0.0,-1.0688,-1.0688,-1.0688,-1.0688,-1.0688,-1.0688,-1.0688,-1.0688,-1.0688,-1.0688,-1.0688,-1.0688,-1.0688,-1.0688,-1.0688,-1.0718,-1.108,-1.1196,-1.1234,-1.1508,-1.1584,-1.1584,-1.9395,-1.9395,0.0,0.0,-1.9395,0.0,-1.9395,-1.9395,-1.9395,-1.9395,-1.9395,-1.9366,-1.9366,-1.9336,-1.9336,-1.9336,0.0,0.0,0.0,-1.9336,-1.9336,-1.9336,-1.9033,-1.8874,-1.8874,-1.8538,-1.8252,-1.7972,-1.7667,-1.7514,-1.7514,-1.742,-1.6048,-1.3695,-1.3605,-1.2165,-0.9792,-0.9792,-0.9792,-0.9792,-0.9792,-0.9798,-0.9822,-0.9964,-1.0025,-1.0055,-1.0239,-1.0378,-1.0493,-1.0504,-1.0602,-1.0688,-1.0688,-1.0688,-1.0688,-1.0688,-1.0688,-1.0688,-1.0688,-1.0688,-1.0688,-1.0688,-1.0688,-1.0688,-1.0688,-1.0688,-1.0688,-1.0688,-1.0688,-1.0688,-1.0688,-1.0688,-1.0688,-1.0688,-1.0688,-1.0688,-1.0688,0.0,0.0,0.0,0.0,0.0,0.0,-1.0688,-1.0688,0.0,0.0,0.0,0.0,0.0,-1.0688,-1.0688,-1.0688,-1.0688,-1.0688,-1.0688,-1.0688,-1.0688,-1.0688,-1.0688,-1.0688,-1.0688,-1.0688,-1.0688,-1.0688,-1.0688,-1.0688,-1.0688,-1.0688,-1.0718,-1.108,-1.1196,-1.1234,-1.1508,-1.1584,-1.1584,0.0,0.0,-1.9395,-1.9395,-1.9395,-1.9395,-1.9395,-1.9395,-1.9395,-1.9395,-1.9178,-1.9033,-1.9033,-1.88,-1.8625,-1.8625,-1.8858,-1.9033,-1.9033,-1.8771,-1.8625,-1.8625,-1.8561,-1.8532,-1.8532,-1.8252,-1.7931,-1.7608,-1.7543,-1.7514,-1.7485,-1.6496,-1.5213,-1.3665,-1.262,-1.1295,-0.9792,-0.9792,-0.9792,-0.9792,-0.9792,-0.9859,-0.9967,-0.9974,-1.0092,-1.0246,-1.0388,-1.0463,-1.051,-1.0626,-1.0657,-1.0688,-1.0688,-1.0688,-1.0688,-1.0688,-1.0688,-1.0688,-1.0688,-1.0688,-1.0688,-1.0688,-1.0688,-1.0688,-1.0688,-1.0688,-1.0688,-1.0688,-1.0688,-1.0688,-1.0688,-1.0688,-1.0688,-1.0688,-1.0688,-1.0688,-1.0688,-1.0688,0.0,0.0,-1.0688,-1.0688,-1.0688,-1.0688,-1.0688,0.0,0.0,0.0,0.0,-1.0688,-1.0688,-1.0688,-1.0688,-1.0688,-1.0688,-1.0688,-1.0688,-1.0688,-1.0688,-1.0688,-1.0688,-1.0688,-1.0688,-1.0688,-1.0688,-1.0688,-1.0688,-1.0688,-1.0688,-1.0718,-1.108,-1.1196,-1.1234,-1.1508,-1.1584,-1.1584,-1.9395,-1.9272,-1.9214,-1.9366,-1.9162,-1.8981,-1.9156,-1.9039,-1.8952,-1.8952,-1.8771,-1.8677,-1.8677,-1.8509,-1.8392,-1.8392,-1.8561,-1.8677,-1.8677,-1.8502,-1.8392,-1.8392,-1.8282,-1.8223,-1.8223,-1.7931,-1.7696,-1.7514,-1.7514,-1.7514,-1.7479,-1.6797,-1.548,-1.3665,-1.2946,-1.1567,-0.9792,-0.9792,-0.9792,-0.9795,-0.9866,-0.9944,-1.0032,-1.0167,-1.0304,-1.0395,-1.0541,-1.0595,-1.0609,-1.0694,-1.0688,-1.0688,-1.0688,-1.0688,-1.0688,-1.0688,-1.0688,-1.0688,-1.0688,-1.0688,-1.0688,-1.0688,-1.0688,-1.0688,-1.0688,-1.0688,-1.0688,-1.0688,-1.0688,-1.0688,-1.0688,-1.0688,-1.0688,-1.0688,-1.0688,-1.0688,-1.0688,-1.0688,0.0,-1.0688,-1.0688,-1.0688,-1.0688,-1.0688,-1.0688,-1.0688,-1.0688,0.0,-1.0688,-1.0688,-1.0688,-1.0688,-1.0688,-1.0688,-1.0688,-1.0688,-1.0688,-1.0688,-1.0688,-1.0688,-1.0688,-1.0688,-1.0688,-1.0688,-1.0688,-1.0688,-1.0688,-1.0688,-1.0688,-1.0718,-1.108,-1.1196,-1.1234,-1.1508,-1.1584,-1.1584,-1.9307,-1.9062,-1.891,-1.9191,-1.8777,-1.8502,-1.8794,-1.859,-1.8392,-1.8392,-1.8363,-1.8334,-1.8334,-1.8305,-1.8275,-1.8275,-1.8275,-1.8305,-1.8334,-1.8305,-1.8275,-1.8275,-1.8048,-1.7908,-1.7908,-1.7667,-1.7514,-1.7514,-1.7514,-1.7514,-1.7479,-1.712,-1.5782,-1.3695,-1.3276,-1.1894,-0.9792,-0.9792,-0.9792,-0.9805,-0.9957,-1.0032,-1.0082,-1.0388,-1.0507,-1.0544,-1.0673,-1.0688,-1.0688,-1.0688,-1.0688,-1.0688,-1.0688,-1.0688,-1.0688,-1.0688,-1.0688,-1.0688,-1.0688,-1.0688,-1.0688,-1.0688,-1.0688,-1.0688,-1.0688,-1.0688,-1.0688,-1.0688,-1.0688,-1.0688,-1.0688,-1.0688,-1.0688,-1.0688,-1.0688,-1.0688,-1.0688,0.0,-1.0688,-1.0688,-1.0688,-1.0688,-1.0688,-1.0688,-1.0688,-1.0688,-1.0688,-1.0688,0.0,-1.0688,-1.0688,-1.0688,-1.0688,-1.0688,-1.0688,-1.0688,-1.0688,-1.0688,-1.0688,-1.0688,-1.0688,-1.0688,-1.0688,-1.0688,-1.0688,-1.0688,-1.0688,-1.0688,-1.0688,-1.0748,-1.1057,-1.1176,-1.1234,-1.148,-1.1563,-1.1584,-1.8968,-1.8706,-1.848,-1.8538,-1.848,-1.8421,-1.8473,-1.8421,-1.8392,-1.8392,-1.8194,-1.8054,-1.8054,-1.7813,-1.7625,-1.7625,-1.7625,-1.7749,-1.8054,-1.7813,-1.7625,-1.7625,-1.7602,-1.7573,-1.7573,-1.7543,-1.7514,-1.7514,-1.7514,-1.7514,-1.7449,-1.5302,-1.4083,-1.3605,-1.1382,-1.0183,-0.9792,-0.9792,-0.9792,-0.9805,-0.9957,-1.0096,-1.0263,-1.0429,-1.0571,-1.0654,-1.0677,-1.0688,-1.0688,-1.0688,-1.0688,-1.0688,-1.0688,-1.0688,-1.0688,-1.0688,-1.0688,-1.0688,-1.0688,-1.0688,-1.0688,-1.0688,-1.0688,-1.0688,-1.0688,-1.0688,-1.0688,-1.0688,-1.0688,-1.0688,-1.0688,-1.0688,-1.0688,-1.0688,-1.0688,-1.0688,-1.0688,0.0,-1.0688,-1.0688,-1.0688,-1.0688,-1.0688,-1.0688,-1.0688,-1.0688,-1.0688,-1.0688,-1.0688,-1.0688,-1.0688,-1.0688,-1.0688,-1.0688,-1.0688,-1.0688,-1.0688,-1.0688,-1.0688,-1.0688,-1.0688,-1.0688,-1.0688,-1.0688,-1.0688,-1.0688,-1.0688,-1.0688,-1.0688,-1.0704,-1.088,-1.1056,-1.122,-1.1362,-1.1508,-1.1584,-1.8619,-1.8392,-1.8223,-1.8363,-1.8129,-1.7983,-1.8165,-1.8041,-1.7924,-1.7924,-1.7813,-1.7726,-1.7726,-1.7602,-1.7514,-1.7514,-1.7514,-1.7573,-1.7726,-1.7602,-1.7514,-1.7514,-1.7514,-1.7514,-1.7514,-1.7514,-1.7514,-1.7514,-1.7514,-1.7514,-1.7449,-1.5599,-1.4351,-1.3605,-1.1687,-1.0452,-0.9792,-0.9792,-0.9839,-0.9927,-1.0079,-1.0263,-1.0412,-1.0558,-1.066,-1.0688,-1.0688,-1.0688,-1.0688,-1.0688,-1.0688,-1.0688,-1.0688,-1.0688,-1.0688,-1.0688,-1.0688,-1.0688,-1.0688,-1.0688,-1.0688,-1.0688,-1.0688,-1.0688,-1.0688,-1.0688,-1.0688,-1.0688,-1.0688,-1.0688,-1.0688,-1.0688,-1.0688,-1.0688,-1.0688,0.0,0.0,-1.0688,-1.0688,-1.0688,-1.0688,-1.0688,-1.0688,-1.0688,-1.0688,-1.0688,-1.0688,-1.0688,-1.0688,-1.0688,-1.0688,-1.0688,-1.0688,-1.0688,-1.0688,-1.0688,-1.0688,-1.0688,-1.0688,-1.0283,-0.9579,-0.9579,-0.9579,-0.9579,-0.9579,-1.0014,-1.0688,-1.0688,-1.0688,-1.0701,-1.0857,-1.1036,-1.1217,-1.1335,-1.1487,-1.1584,-1.8311,-1.8077,-1.796,-1.8158,-1.7807,-1.7602,-1.7849,-1.7667,-1.7514,-1.7514,-1.7514,-1.7514,-1.7514,-1.7514,-1.7514,-1.7514,-1.7514,-1.7514,-1.7514,-1.7514,-1.7514,-1.7514,-1.7514,-1.7514,-1.7514,-1.7514,-1.7514,-1.7514,-1.7514,-1.7361,-1.7032,-1.5752,-1.447,-1.3186,-1.1838,-1.0728,-0.9792,-0.9829,-0.991,-1.0035,-1.0253,-1.0395,-1.051,-1.0663,-1.0688,-1.0688,-1.0688,-1.0688,-1.0688,-1.0688,-1.0688,-1.0688,-1.0688,-1.0688,-1.0688,-1.0688,-1.0688,-1.0688,-1.0688,-1.0688,-1.0688,-1.0688,-1.0688,-1.0688,-1.0688,-1.0688,-1.0688,-1.0688,-1.0688,-1.0688,-1.0688,-1.0688,-1.0688,-1.0688,0.0,0.0,0.0,-1.0688,-1.0688,-1.0688,-1.0688,-1.0688,-1.0688,-1.0688,-1.0688,-1.0688,-1.0688,-1.0688,-1.0688,-1.0688,-1.0688,-1.0688,-1.0688,-1.0688,-1.0688,-1.0688,-1.0688,-1.0688,-1.0688,-1.0114,-0.9075,-0.8742,-0.8773,-0.9078,-0.8742,-0.941,-1.0688,-1.0688,-1.0688,-1.0698,-1.0816,-1.0985,-1.1166,-1.1315,-1.1436,-1.1572,-1.8031,-1.7755,-1.7543,-1.7573,-1.7543,-1.7514,-1.7543,-1.7514,-1.7514,-1.7514,-1.7514,-1.7514,-1.7514,-1.7514,-1.7514,-1.7514,-1.7514,-1.7514,-1.7514,-1.7514,-1.7514,-1.7514,-1.7514,-1.7514,-1.7514,-1.7514,-1.7514,-1.7514,-1.7514,-1.6885,-1.5723,-1.4441,-1.3126,-1.1782,-1.0516,-0.9879,-0.9798,-0.994,-0.9977,-1.0042,-1.0361,-1.0483,-1.051,-1.0663,-1.0688,-1.0688,-1.0688,-1.0688,-1.0688,-1.0688,-1.0688,-1.0688,-1.0688,-1.0688,-1.0688,-1.0688,-1.0688,-1.0688,-1.0688,-1.0688,-1.0688,-1.0688,-1.0688,-1.0688,-1.0688,-1.0688,-1.0688,-1.0688,-1.0688,-1.0688,-1.0688,-1.0688,-1.0688,-1.0688,0.0,0.0,-1.0688,-1.0688,-1.0688,-1.0688,-1.0688,-1.0688,-1.0688,-1.0688,-1.0688,-1.0688,-1.0688,-1.0688,-1.0688,-1.0688,-1.0688,-1.0688,-1.0688,-1.0688,-1.0688,-1.0688,-1.0688,-1.0688,-1.0688,-1.0654,-1.0485,-0.9208,-0.931,-1.0485,-0.9178,-0.941,-1.0688,-1.0688,-1.0688,-1.0688,-1.0698,-1.0796,-1.0948,-1.1128,-1.1312,-1.1426,-1.7696,-1.7602,-1.7514,-1.7514,-1.7514,-1.7514,-1.7514,-1.7514,-1.7514,-1.7514,-1.7514,-1.7514,-1.7514,-1.7514,-1.7514,-1.7514,-1.7514,-1.7514,-1.7514,-1.7514,-1.7514,-1.7514,-1.7514,-1.7514,-1.7514,-1.7514,-1.7514,-1.7514,-1.7514,-1.7244,-1.6732,-1.4679,-1.3426,-1.2856,-1.0755,-0.9792,-0.9802,-0.9954,-1.0072,-1.0212,-1.0412,-1.0548,-1.0639,-1.0664,-1.0688,-1.0688,-1.0688,-1.0688,-1.0688,-1.0688,-1.0688,-1.0688,-1.0688,-1.0688,-1.0688,-1.0688,-1.0688,-1.0688,-1.0688,-1.0688,-1.0688,-1.0688,-1.0688,-1.0688,-1.0688,-1.0688,-1.0688,-1.0688,-1.0688,-1.0688,-1.0688,-1.0688,-1.0688,-1.0688,0.0,-1.0688,-1.0688,-1.0688,-1.0688,-1.0688,-1.0688,-1.0688,-1.0688,-1.0688,-1.0688,-1.0688,-1.0688,-1.0688,-1.0688,-1.0688,-1.0688,-1.0688,-1.0688,-1.0688,-1.0688,-1.0688,-1.0688,-1.0688,-1.0688,-1.025,-0.9377,-0.8842,-0.8909,-0.9377,-0.8842,-0.941,-1.0688,-1.0688,-1.0688,-1.0688,-1.0688,-1.0779,-1.0931,-1.1145,-1.1295,-1.1413,-1.7514,-1.7514,-1.7514,-1.7514,-1.7514,-1.7514,-1.7514,-1.7514,-1.7514,-1.7514,-1.7514,-1.7514,-1.7514,-1.7514,-1.7514,-1.7514,-1.7514,-1.7514,-1.7514,-1.7514,-1.7514,-1.7514,-1.7514,-1.7514,-1.7514,-1.7514,-1.7514,-1.7514,-1.7514,-1.7097,-1.6255,-1.453,-1.3276,-1.2406,-1.0604,-0.9792,-0.9805,-1.0005,-1.0181,-1.0329,-1.0487,-1.0626,-1.0688,-1.0688,-1.0688,-1.0688,-1.0688,-1.0688,-1.0688,-1.0688,-1.0688,-1.0688,-1.0688,-1.0688,-1.0688,-1.0688,-1.0688,-1.0688,-1.0688,-1.0688,-1.0688,-1.0688,-1.0688,-1.0688,-1.0688,-1.0688,-1.0688,-1.0688,-1.0688,-1.0688,-1.0688,-1.0688,-1.0688,-1.0688,-1.0688,-1.0688,-1.0688,-1.0688,-1.0688,-1.0688,-1.0688,-1.0688,-1.0688,-1.0688,-1.0688,-1.0688,-1.0688,-1.0688,-1.0688,-1.0688,-1.0688,-1.0688,-1.0688,-1.0688,-1.0688,-1.0688,-1.0688,-1.0688,-1.0688,-1.0183,-0.9244,-0.8338,-0.8171,-0.8573,-0.8105,-0.8706,-1.0081,-1.0518,-1.0688,-1.0688,-1.0688,-1.0752,-1.0867,-1.1125,-1.1264,-1.1348,-1.7514,-1.7514,-1.7514,-1.7514,-1.7514,-1.7514,-1.7514,-1.7514,-1.7514,-1.7514,-1.7514,-1.7514,-1.7514,-1.7514,-1.7514,-1.7514,-1.7514,-1.7514,-1.7514,-1.7514,-1.7514,-1.7514,-1.7514,-1.7514,-1.7514,-1.7514,-1.7514,-1.7514,-1.7479,-1.6196,-1.3695,-1.3695,-1.2316,-0.9822,-0.9792,-0.9792,-0.9812,-1.0151,-1.0312,-1.0307,-1.0602,-1.0688,-1.0688,-1.0688,-1.0688,-1.0688,-1.0688,-1.0688,-1.0688,-1.0688,-1.0688,-1.0688,-1.0688,-1.0688,-1.0688,-1.0688,-1.0688,-1.0688,-1.0688,-1.0688,-1.0688,-1.0688,-1.0688,-1.0688,-1.0688,-1.0688,-1.0688,-1.0688,-1.0688,-1.0688,-1.0688,-1.0688,-1.0688,-1.0688,-1.0688,-1.0688,-1.0688,-1.0688,-1.0688,-1.0688,-1.0688,-1.0688,-1.0688,-1.0688,-1.0688,-1.0688,-1.0688,-1.0688,-1.0688,-1.0688,-1.0688,-1.0688,-1.0688,-1.0688,-1.0688,-1.0688,-1.0688,-1.0688,-1.0688,-1.0688,-1.0585,-0.7736,-0.7234,-0.854,-0.7067,-0.7267,-0.874,-1.0114,-1.0688,-1.0688,-1.0688,-1.0688,-1.0755,-1.1087,-1.1196,-1.124,-1.7514,-1.7514,-1.7514,-1.7514,-1.7514,-1.7514,-1.7514,-1.7514,-1.7514,-1.7514,-1.7514,-1.7514,-1.7514,-1.7514,-1.7514,-1.7514,-1.7514,-1.7514,-1.7514,-1.7514,-1.7514,-1.7514,-1.7514,-1.7514,-1.7514,-1.7514,-1.7514,-1.7514,-1.6585,-1.5782,-1.4976,-1.3156,-1.1868,-1.1088,-1.0213,-0.9849,-0.9964,-1.0195,-1.0337,-1.0446,-1.0639,-1.0688,-1.0688,-1.0688,-1.0688,-1.0688,-1.0688,-1.0688,-1.0688,-1.0688,-1.0688,-1.0688,-1.0688,-1.0688,-1.0688,-1.0688,-1.0688,-1.0688,-1.0688,-1.0688,-1.0688,-1.0688,-1.0688,-1.0688,-1.0688,-1.0688,-1.0688,-1.0688,-1.0688,-1.0688,-1.0688,-1.0688,-1.0688,-1.0688,-1.0688,-1.0688,-1.0688,-1.0688,-1.0688,-1.0688,-1.0688,-1.0688,-1.0688,-1.0688,-1.0688,-1.0688,-1.0688,-1.0688,-1.0688,-1.0688,-1.0688,-1.0688,-1.0688,-1.0688,-1.0688,-1.0688,-1.0688,-1.0688,-1.0688,-1.0688,-1.0688,-0.9812,-0.9646,-1.0047,-0.9613,-0.9679,-1.0117,-1.0518,-1.0688,-1.0688,-1.0688,-1.0688,-1.0755,-1.1087,-1.1196,-1.124,-1.7514,-1.7514,-1.7514,-1.7514,-1.7514,-1.7514,-1.7514,-1.7514,-1.7514,-1.7514,-1.7514,-1.7514,-1.7514,-1.7514,-1.7514,-1.7514,-1.7514,-1.7514,-1.7514,-1.7514,-1.7514,-1.7514,-1.7514,-1.7514,-1.7514,-1.7514,-1.7514,-1.7514,-1.6231,-1.5332,-1.4798,-1.2676,-1.142,-1.0906,-1.0152,-0.9876,-0.9997,-1.0215,-1.0393,-1.0507,-1.066,-1.0688,-1.0688,-1.0688,-1.0688,-1.0688,-1.0688,-1.0688,-1.0688,-1.0688,-1.0688,-1.0688,-1.0688,-1.0688,-1.0688,-1.0688,-1.0688,-1.0688,-1.0688,-1.0688,-1.0688,-1.0688,-1.0688,-1.0688,-1.0688,-1.0688,-1.0688,-1.0688,-1.0688,-1.0688,-1.0688,-1.0688,-1.0688,-1.0688,-1.0688,-1.0688,-1.0688,-1.0688,-1.0688,-1.0688,-1.0688,-1.0688,-1.0688,-1.0688,-1.0688,-1.0688,-1.0688,-1.0688,-1.0688,-1.0688,-1.0688,-1.0688,-1.0688,-1.0688,-1.0688,-1.0688,-1.0688,-1.0688,-1.0688,-1.0688,-1.0688,-1.0114,-0.9881,-0.9881,-0.9881,-0.9881,-0.9915,-1.0485,-1.0688,-1.0688,-1.0688,-1.0688,-1.0715,-1.0989,-1.1114,-1.1234,-1.7514,-1.7514,-1.7514,-1.7514,-1.7514,-1.7514,-1.7514,-1.7514,-1.7514,-1.7514,-1.7514,-1.7514,-1.7514,-1.7514,-1.7514,-1.7514,-1.7514,-1.7514,-1.7514,-1.7514,-1.7514,-1.7514,-1.7514,-1.7514,-1.7514,-1.7514,-1.7514,-1.7514,-1.6113,-1.4827,-1.3665,-1.22,-1.0906,-0.9792,-0.9792,-0.9876,-0.9997,-1.0215,-1.0393,-1.0507,-1.066,-1.0688,-1.0688,-1.0688,-1.0688,-1.0688,-1.0688,-1.0688,-1.0688,-1.0688,-1.0688,-1.0688,-1.0688,-1.0688,-1.0688,-1.0688,-1.0688,-1.0688,-1.0688,-1.0688,-1.0688,-1.0688,-1.0688,-1.0688,-1.0688,-1.0688,-1.0688,-1.0688,-1.0688,-1.0688,-1.0688,-1.0688,-1.0688,-1.0688,-1.0688,-1.0688,-1.0688,-1.0688,-1.0688,-1.0688,-1.0688,-1.0688,-1.0688,-1.0688,-1.0688,-1.0688,-1.0688,-1.0688,-1.0688,-1.0688,-1.0688,-1.0688,-1.0688,-1.0688,-1.0688,-1.0688,-1.0688,-1.0688,-1.0688,-1.0688,-1.0651,-0.9377,-0.8773,-0.8773,-0.8773,-0.8773,-0.8875,-1.0183,-1.0688,-1.0688,-1.0688,-1.0688,-1.0708,-1.086,-1.104,-1.1223,-1.7514,-1.7514,-1.7514,-1.7514,-1.7514,-1.7514,-1.7514,-1.7514,-1.7514,-1.7514,-1.7514,-1.7514,-1.7514,-1.7514,-1.7514,-1.7514,-1.7514,-1.7514,-1.7514,-1.7514,-1.7514,-1.7514,-1.7514,-1.7514,-1.7514,-1.7514,-1.7514,-1.7514,-1.5213,-1.3963,-1.3665,-1.1295,-1.0061,-0.9792,-0.9792,-0.9876,-0.9997,-1.0215,-1.0393,-1.0507,-1.066,-1.0688,-1.0688,-1.0688,-1.0688,-1.0688,-1.0688,-1.0688,-1.0688,-1.0688,-1.0688,-1.0688,-1.0688,-1.0688,-1.0688,-1.0688,-1.0688,-1.0688,-1.0688,-1.0688,-1.0688,-1.0688,-1.0688,-1.0688,-1.0688,-1.0688,-1.0688,-1.0688,-1.0688,-1.0688,-1.0688,-1.0688,-1.0688,-1.0688,-1.0688,-1.0688,-1.0688,-1.0688,-1.0688,-1.0688,-1.0688,-1.0688,-1.0688,-1.0688,-1.0688,-1.0688,-1.0688,-1.0688,-1.0688,-1.0688,-1.0688,-1.0688,-1.0688,-1.0688,-1.0688,-1.0688,-1.0688,-1.0688,-1.0688,-1.0688,-1.0688,-1.0386,-1.025,-1.025,-1.025,-1.025,-1.0283,-1.0585,-1.0688,-1.0688,-1.0688,-1.0688,-1.0708,-1.086,-1.104,-1.1237,-1.7514,-1.7514,-1.7514,-1.7514,-1.7514,-1.7514,-1.7514,-1.7514,-1.7514,-1.7514,-1.7514,-1.7514,-1.7514,-1.7514,-1.7514,-1.7514,-1.7514,-1.7514,-1.7514,-1.7514,-1.7514,-1.7514,-1.7514,-1.7514,-1.7514,-1.7514,-1.7514,-1.7514,-1.5575,-1.4292,-1.3665,-1.1657,-1.0395,-0.9792,-0.9792,-0.9876,-0.9997,-1.0215,-1.0393,-1.0507,-1.066,-1.0688,-1.0688,-1.0688,-1.0688,-1.0688,-1.0688,-1.0688,-1.0688,-1.0688,-1.0688,-1.0688,-1.0688,-1.0688,-1.0688,-1.0688,-1.0688,-1.0688,-1.0688,-1.0688,-1.0688,-1.0688,-1.0688,-1.0688,-1.0688,-1.0688,-1.0688,-1.0688,-1.0688,-1.0688,-1.0688,-1.0688,-1.0688,-1.0688,-1.0688,-1.0688,-1.0688,-1.0688,-1.0688,-1.0688,-1.0688,-1.0688,-1.0688,-1.0688,-1.0688,-1.0688,-1.0688,-1.0688,-1.0688,-1.0688,-1.0688,-1.0688,-1.0688,-1.0688,-1.0688,-1.0688,-1.0688,-1.0688,-1.0688,-1.0688,-1.0688,-1.0688,-1.0688,-1.0688,-1.0688,-1.0688,-1.0688,-1.0688,-1.0688,-1.0688,-1.0688,-1.0688,-1.0698,-1.0775,-1.0975,-1.1206,-1.7514,-1.7514,-1.7514,-1.7514,-1.7514,-1.7514,-1.7514,-1.7514,-1.7514,-1.7514,-1.7514,-1.7514,-1.7514,-1.7514,-1.7514,-1.7514,-1.7514,-1.7514,-1.7514,-1.7514,-1.7514,-1.7514,-1.7514,-1.7514,-1.7514,-1.7514,-1.7514,-1.7514,-1.6231,-1.4946,-1.3665,-1.232,-1.1027,-0.9792,-0.9792,-0.9859,-0.9991,-1.0205,-1.0348,-1.047,-1.0649,-1.0688,-1.0688,-1.0688,-1.0688,-1.0688,-1.0688,-1.0688,-1.0688,-1.0688,-1.0688,-1.0688,-1.0688,-1.0688,-1.0688,-1.0688,-1.0688,-1.0688,-1.0688,-1.0688,-1.0688,-1.0688,-1.0688,-1.0688,-1.0688,-1.0688,-1.0688,-1.0688,-1.0688,-1.0688,-1.0688,-1.0688,-1.0688,-1.0688,-1.0688,-1.0688,-1.0688,-1.0688,-1.0688,-1.0688,-1.0688,-1.0688,-1.0688,-1.0688,-1.0688,-1.0688,-1.0688,-1.0688,-1.0688,-1.0688,-1.0688,-1.0688,-1.0688,-1.0688,-1.0688,-1.0688,-1.0688,-1.0688,-1.0688,-1.0688,-1.0688,-1.0688,-1.0688,-1.0688,-1.0688,-1.0688,-1.0688,-1.0688,-1.0688,-1.0688,-1.0688,-1.0688,-1.0724,-1.0775,-1.0917,-1.1102,-1.7514,-1.7514,-1.7514,-1.7514,-1.7514,-1.7514,-1.7514,-1.7514,-1.7514,-1.7514,-1.7514,-1.7514,-1.7514,-1.7514,-1.7514,-1.7514,-1.7514,-1.7514,-1.7514,-1.7514,-1.7514,-1.7514,-1.7514,-1.7514,-1.7514,-1.7514,-1.7514,-1.7514,-1.6231,-1.4946,-1.3665,-1.232,-1.1027,-0.9792,-0.9792,-0.9802,-0.9839,-1.0158,-1.0322,-1.0366,-1.0609,-1.0688,-1.0688,-1.0688,-1.0688,-1.0688,-1.0688,-1.0688,-1.0688,-1.0688,-1.0688,-1.0688,-1.0688,-1.0688,-1.0688,-1.0688,-1.0688,-1.0688,-1.0688,-1.0688,-1.0688,-1.0688,-1.0688,-1.0688,-1.0688,-1.0688,-1.0688,-1.0688,-1.0688,-1.0688,-1.0688,-1.0688,-1.0688,-1.0688,-1.0688,-1.0688,-1.0688,-1.0688,-1.0688,-1.0688,-1.0688,-1.0688,-1.0688,-1.0688,-1.0688,-1.0688,-1.0688,-1.0688,-1.0688,-1.0688,-1.0688,-1.0688,-1.0688,-1.0688,-1.0688,-1.0688,-1.0688,-1.0688,-1.0688,-1.0688,-1.0688,-1.0688,-1.0688,-1.0688,-1.0688,-1.0688,-1.0688,-1.0688,-1.0688,-1.0688,-1.0688,-1.0688,-1.0751,-1.1043,-1.0956,-1.072,-1.7514,-1.7514,-1.7514,-1.7514,-1.7514,-1.7514,-1.7514,-1.7514,-1.7514,-1.7514,-1.7514,-1.7514,-1.7514,-1.7514,-1.7514,-1.7514,-1.7514,-1.7514,-1.7514,-1.7514,-1.7514,-1.7514,-1.7514,-1.7514,-1.7514,-1.7514,-1.7514,-1.7514,-1.6944,-1.5663,-1.3695,-1.3096,-1.1744,-0.9792,-0.9792,-0.9792,-0.9808,-1.0151,-1.0312,-1.0307,-1.0602,-1.0688,-1.0688,-1.0688,-1.0688,-1.0688,-1.0688,-1.0688,-1.0688,-1.0688,-1.0688,-1.0688,-1.0688,-1.0688,-1.0688,-1.0688,-1.0688,-1.0688,-1.0688,-1.0688,-1.0688,-1.0688,-1.0688,-1.0688,-1.0688,-1.0688,-1.0688,-1.0688,-1.0688,-1.0688,-1.0688,-1.0688,-1.0688,-1.0688,-1.0688,-1.0688,-1.0688,-1.0688,-1.0688,-1.0688,-1.0688,-1.0688,-1.0688,-1.0688,-1.0688,-1.0688,-1.0688,-1.0688,-1.0688,-1.0688,-1.0688,-1.0688,-1.0688,-1.0688,-1.0688,-1.0688,-1.0688,-1.0688,-1.0688,-1.0688,-1.0688,-1.0688,-1.0688,-1.0688,-1.0688,-1.0688,-1.0688,-1.0688,-1.0688,-1.0688,-1.0688,-1.0588,-1.0458,-1.0745,-1.0643,-1.0341]},{"header":{"parameterUnit":"m.s-1","parameterCategory":1,"la1":30.6,"la2":28.766,"lo1":-90.7593,"lo2":-88.6598,"dy":0.0162,"dx":0.0183,"nx":116,"ny":114,"refTime":"2023-10-01T12:00:00:Z","depth":0,"parameterNumber":3,"parameterNumberName":"V-component_of_WINDS"},"data":[0.0,0.0,0.0,0.0,0.0,0.0,0.0,0.0,0.0,0.0,0.0,0.0,0.0,0.0,0.0,0.0,0.0,0.0,0.0,0.0,0.0,0.0,0.0,0.0,0.0,0.0,0.0,0.0,0.0,0.0,0.0,0.0,0.0,0.0,0.0,0.0,0.0,0.0,0.0,0.0,0.0,0.0,0.0,0.0,0.0,0.0,0.0,0.0,0.0,0.0,0.0,0.0,0.0,0.0,0.0,0.0,0.0,0.0,0.0,0.0,0.0,0.0,0.0,0.0,0.0,0.0,0.0,0.0,0.0,0.0,0.0,0.0,0.0,0.0,0.0,0.0,0.0,0.0,0.0,0.0,0.0,0.0,0.0,0.0,0.0,0.0,0.0,0.0,0.0,0.0,0.0,0.0,0.0,0.0,0.0,0.0,0.0,0.0,0.0,0.0,0.0,0.0,0.0,0.0,0.0,0.0,0.0,0.0,0.0,0.0,0.0,0.0,0.0,0.0,0.0,0.0,0.0,0.0,0.0,0.0,0.0,0.0,0.0,0.0,0.0,0.0,0.0,0.0,0.0,0.0,0.0,0.0,0.0,0.0,0.0,0.0,0.0,0.0,0.0,0.0,0.0,0.0,0.0,0.0,0.0,0.0,0.0,0.0,0.0,0.0,0.0,0.0,0.0,0.0,0.0,0.0,0.0,0.0,0.0,0.0,0.0,0.0,0.0,0.0,0.0,0.0,0.0,0.0,0.0,0.0,0.0,0.0,0.0,0.0,0.0,0.0,0.0,0.0,0.0,0.0,0.0,0.0,0.0,0.0,0.0,0.0,0.0,0.0,0.0,0.0,0.0,0.0,0.0,0.0,0.0,0.0,0.0,0.0,0.0,0.0,0.0,0.0,0.0,0.0,0.0,0.0,0.0,0.0,0.0,0.0,0.0,0.0,0.0,0.0,0.0,0.0,0.0,0.0,0.0,0.0,0.0,0.0,0.0,0.0,0.0,0.0,0.0,0.0,0.0,0.0,0.0,0.0,0.0,0.0,0.0,0.0,0.0,0.0,0.0,0.0,0.0,0.0,0.0,0.0,0.0,0.0,0.0,0.0,0.0,0.0,0.0,0.0,0.0,0.0,0.0,0.0,0.0,0.0,0.0,0.0,0.0,0.0,0.0,0.0,0.0,0.0,0.0,0.0,0.0,0.0,0.0,0.0,0.0,0.0,0.0,0.0,0.0,0.0,0.0,0.0,0.0,0.0,0.0,0.0,0.0,0.0,0.0,0.0,0.0,0.0,0.0,0.0,0.0,0.0,0.0,0.0,0.0,0.0,0.0,0.0,0.0,0.0,0.0,0.0,0.0,0.0,0.0,0.0,0.0,0.0,0.0,0.0,0.0,0.0,0.0,0.0,0.0,0.0,0.0,0.0,0.0,0.0,0.0,0.0,0.0,0.0,0.0,0.0,0.0,0.0,0.0,0.0,0.0,0.0,0.0,0.0,0.0,0.0,0.0,0.0,0.0,0.0,0.0,0.0,0.0,0.0,0.0,0.0,0.0,0.0,0.0,0.0,0.0,0.0,0.0,0.0,0.0,0.0,0.0,0.0,0.0,0.0,0.0,0.0,0.0,0.0,0.0,0.0,0.0,0.0,0.0,0.0,0.0,0.0,0.0,0.0,0.0,0.0,0.0,0.0,0.0,0.0,0.0,0.0,0.0,0.0,0.0,0.0,0.0,0.0,0.0,0.0,0.0,0.0,0.0,0.0,0.0,0.0,0.0,0.0,0.0,0.0,0.0,0.0,0.0,0.0,0.0,0.0,0.0,0.0,0.0,0.0,0.0,0.0,0.0,0.0,0.0,0.0,0.0,0.0,0.0,0.0,0.0,0.0,0.0,0.0,0.0,0.0,0.0,0.0,0.0,0.0,0.0,0.0,0.0,0.0,0.0,0.0,0.0,0.0,0.0,0.0,0.0,0.0,0.0,0.0,0.0,0.0,0.0,0.0,0.0,0.0,0.0,0.0,0.0,0.0,0.0,0.0,0.0,0.0,0.0,0.0,0.0,0.0,0.0,0.0,0.0,0.0,0.0,0.0,0.0,0.0,0.0,0.0,0.0,0.0,0.0,0.0,0.0,0.0,0.0,0.0,0.0,0.0,0.0,0.0,0.0,0.0,0.0,0.0,0.0,0.0,0.0,0.0,0.0,0.0,0.0,0.0,0.0,0.0,0.0,0.0,0.0,0.0,0.0,0.0,0.0,0.0,0.0,0.0,0.0,0.0,0.0,0.0,0.0,0.0,0.0,0.0,0.0,0.0,0.0,0.0,0.0,0.0,0.0,0.0,0.0,0.0,0.0,0.0,0.0,0.0,0.0,0.0,0.0,0.0,0.0,0.0,0.0,0.0,0.0,0.0,0.0,0.0,0.0,0.0,0.0,0.0,0.0,0.0,0.0,0.0,0.0,0.0,0.0,0.0,0.0,0.0,0.0,0.0,0.0,0.0,0.0,0.0,0.0,0.0,0.0,0.0,0.0,0.0,0.0,0.0,0.0,0.0,0.0,0.0,0.0,0.0,0.0,0.0,0.0,0.0,0.0,0.0,0.0,0.0,0.0,0.0,0.0,0.0,0.0,0.0,0.0,0.0,0.0,0.0,0.0,0.0,0.0,0.0,0.0,0.0,0.0,0.0,0.0,0.0,0.0,0.0,0.0,0.0,0.0,0.0,0.0,0.0,0.0,0.0,0.0,0.0,0.0,0.0,0.0,0.0,0.0,0.0,0.0,0.0,0.0,0.0,0.0,0.0,0.0,0.0,0.0,0.0,0.0,0.0,0.0,0.0,0.0,0.0,0.0,0.0,0.0,0.0,0.0,0.0,0.0,0.0,0.0,0.0,0.0,0.0,0.0,0.0,0.0,0.0,0.0,0.0,0.0,0.0,0.0,0.0,0.0,0.0,0.0,0.0,0.0,0.0,0.0,0.0,0.0,0.0,0.0,0.0,0.0,0.0,0.0,0.0,0.0,0.0,0.0,0.0,0.0,0.0,0.0,0.0,0.0,0.0,0.0,0.0,0.0,0.0,0.0,0.0,0.0,0.0,0.0,0.0,0.0,0.0,0.0,0.0,0.0,0.0,0.0,0.0,0.0,0.0,0.0,0.0,0.0,0.0,0.0,0.0,0.0,0.0,0.0,0.0,0.0,0.0,0.0,0.0,0.0,0.0,0.0,0.0,0.0,0.0,0.0,0.0,0.0,0.0,0.0,0.0,0.0,0.0,0.0,0.0,0.0,0.0,0.0,0.0,0.0,0.0,0.0,0.0,0.0,0.0,0.0,0.0,0.0,0.0,0.0,0.0,0.0,0.0,0.0,0.0,0.0,0.0,0.0,0.0,0.0,0.0,0.0,0.0,0.0,0.0,0.0,0.0,0.0,0.0,0.0,0.0,0.0,0.0,0.0,0.0,0.0,0.0,0.0,0.0,0.0,0.0,0.0,0.0,0.0,0.0,0.0,0.0,0.0,0.0,0.0,0.0,0.0,0.0,0.0,0.0,0.0,0.0,0.0,0.0,0.0,0.0,0.0,0.0,0.0,0.0,0.0,0.0,0.0,0.0,0.0,0.0,0.0,0.0,0.0,0.0,0.0,0.0,0.0,0.0,0.0,0.0,0.0,0.0,0.0,0.0,0.0,0.0,0.0,0.0,0.0,0.0,0.0,0.0,0.0,0.0,0.0,0.0,0.0,0.0,0.0,0.0,0.0,0.0,0.0,0.0,0.0,0.0,0.0,0.0,0.0,0.0,0.0,0.0,0.0,0.0,0.0,0.0,0.0,0.0,0.0,0.0,0.0,0.0,0.0,0.0,0.0,0.0,0.0,0.0,0.0,0.0,0.0,0.0,0.0,0.0,0.0,0.0,0.0,0.0,0.0,0.0,0.0,0.0,0.0,0.0,0.0,0.0,0.0,0.0,0.0,0.0,0.0,0.0,0.0,0.0,0.0,0.0,0.0,0.0,0.0,0.0,0.0,0.0,0.0,0.0,0.0,0.0,0.0,0.0,0.0,0.0,0.0,0.0,0.0,0.0,0.0,0.0,0.0,0.0,0.0,0.0,0.0,0.0,0.0,0.0,0.0,0.0,0.0,0.0,0.0,0.0,0.0,0.0,0.0,0.0,0.0,0.0,0.0,0.0,0.0,0.0,0.0,0.0,0.0,0.0,0.0,0.0,0.0,0.0,0.0,0.0,0.0,0.0,0.0,0.0,0.0,0.0,0.0,0.0,0.0,0.0,0.0,0.0,0.0,0.0,0.0,0.0,0.0,0.0,0.0,0.0,0.0,0.0,0.0,0.0,0.0,0.0,0.0,0.0,0.0,0.0,0.0,0.0,0.0,0.0,0.0,0.0,0.0,0.0,0.0,0.0,0.0,0.0,0.0,0.0,0.0,0.0,0.0,0.0,0.0,0.0,0.0,0.0,0.0,0.0,0.0,0.0,0.0,0.0,0.0,0.0,0.0,0.0,0.0,0.0,0.0,0.0,0.0,0.0,0.0,0.0,0.0,0.0,0.0,0.0,0.0,0.0,0.0,0.0,0.0,0.0,0.0,0.0,0.0,0.0,0.0,0.0,0.0,0.0,0.0,0.0,0.0,0.0,0.0,0.0,0.0,0.0,0.0,0.0,0.0,0.0,0.0,0.0,0.0,0.0,0.0,0.0,0.0,0.0,0.0,0.0,0.0,0.0,0.0,0.0,0.0,0.0,0.0,0.0,0.0,0.0,0.0,0.0,0.0,0.0,0.0,0.0,0.0,0.0,0.0,0.0,0.0,0.0,0.0,0.0,0.0,0.0,0.0,0.0,0.0,0.0,0.0,0.0,0.0,0.0,0.0,0.0,0.0,0.0,0.0,0.0,0.0,0.0,0.0,0.0,0.0,0.0,0.0,0.0,0.0,0.0,0.0,0.0,0.0,0.0,0.0,0.0,0.0,0.0,0.0,0.0,0.0,0.0,0.0,0.0,0.0,0.0,0.0,0.0,0.0,0.0,0.0,0.0,0.0,0.0,0.0,0.0,0.0,0.0,0.0,0.0,0.0,0.0,0.0,0.0,0.0,0.0,0.0,0.0,0.0,0.0,0.0,0.0,0.0,0.0,0.0,0.0,0.0,0.0,0.0,0.0,0.0,0.0,0.0,0.0,0.0,0.0,0.0,0.0,0.0,0.0,0.0,0.0,0.0,0.0,0.0,0.0,0.0,0.0,0.0,0.0,0.0,0.0,0.0,0.0,0.0,0.0,0.0,0.0,0.0,0.0,0.0,0.0,0.0,0.0,0.0,0.0,0.0,0.0,0.0,0.0,0.0,0.0,0.0,0.0,0.0,0.0,0.0,0.0,0.0,0.0,0.0,0.0,0.0,0.0,0.0,0.0,0.0,0.0,0.0,0.0,0.0,0.0,0.0,0.0,0.0,0.0,0.0,0.0,0.0,0.0,0.0,0.0,0.0,0.0,0.0,0.0,0.0,0.0,0.0,0.0,0.0,0.0,0.0,0.0,0.0,0.0,0.0,0.0,0.0,0.0,0.0,0.0,0.0,0.0,0.0,0.0,0.0,0.0,0.0,0.0,0.0,0.0,0.0,0.0,0.0,0.0,0.0,0.0,0.0,0.0,0.0,0.0,0.0,0.0,0.0,0.0,0.0,0.0,0.0,0.0,0.0,0.0,0.0,0.0,0.0,0.0,0.0,0.0,0.0,0.0,0.0,0.0,0.0,0.0,0.0,0.0,0.0,0.0,0.0,0.0,0.0,0.0,0.0,0.0,0.0,0.0,0.0,0.0,0.0,0.0,0.0,0.0,0.0,0.0,0.0,0.0,0.0,0.0,0.0,0.0,0.0,0.0,0.0,0.0,0.0,0.0,0.0,0.0,0.0,0.0,0.0,0.0,0.0,0.0,0.0,0.0,0.0,0.0,0.0,0.0,0.0,0.0,0.0,0.0,0.0,0.0,0.0,0.0,0.0,0.0,0.0,0.0,0.0,0.0,0.0,0.0,0.0,0.0,0.0,0.0,0.0,0.0,0.0,0.0,0.0,0.0,0.0,0.0,0.0,0.0,0.0,0.0,0.0,0.0,0.0,0.0,5.0742,0.0,0.0,0.0,0.0,0.0,0.0,0.0,0.0,0.0,0.0,0.0,0.0,0.0,0.0,0.0,0.0,0.0,0.0,0.0,0.0,0.0,0.0,0.0,0.0,0.0,0.0,0.0,0.0,0.0,0.0,0.0,0.0,0.0,0.0,0.0,0.0,0.0,0.0,4.0704,4.0704,4.0704,4.0704,4.0664,4.0652,4.0659,0.0,0.0,0.0,0.0,0.0,0.0,0.0,0.0,0.0,0.0,0.0,0.0,0.0,0.0,0.0,0.0,0.0,0.0,0.0,0.0,0.0,0.0,0.0,0.0,0.0,0.0,0.0,0.0,0.0,0.0,0.0,0.0,0.0,0.0,0.0,0.0,0.0,0.0,0.0,0.0,0.0,0.0,0.0,0.0,0.0,0.0,0.0,0.0,0.0,0.0,0.0,0.0,0.0,0.0,0.0,0.0,0.0,0.0,0.0,0.0,0.0,0.0,0.0,0.0,0.0,0.0,0.0,0.0,0.0,0.0,0.0,5.0784,0.0,0.0,0.0,0.0,0.0,0.0,0.0,0.0,0.0,0.0,0.0,0.0,0.0,0.0,0.0,0.0,0.0,0.0,0.0,0.0,0.0,0.0,0.0,4.0793,4.0793,4.0793,4.0793,4.0793,0.0,0.0,0.0,0.0,0.0,0.0,4.0803,4.0797,4.0797,4.0803,4.0803,4.0808,4.0829,4.077,4.0742,4.0747,4.0652,0.0,0.0,0.0,0.0,0.0,0.0,0.0,0.0,0.0,0.0,0.0,0.0,0.0,0.0,0.0,0.0,0.0,0.0,0.0,0.0,0.0,0.0,0.0,0.0,0.0,0.0,0.0,0.0,0.0,0.0,0.0,0.0,0.0,0.0,0.0,0.0,0.0,0.0,0.0,0.0,0.0,0.0,0.0,0.0,0.0,0.0,0.0,0.0,0.0,0.0,0.0,0.0,0.0,0.0,0.0,0.0,0.0,0.0,0.0,0.0,0.0,0.0,0.0,5.085,5.0879,5.0936,5.0882,5.0912,5.1017,5.0906,5.0869,5.0908,0.0,0.0,0.0,0.0,0.0,0.0,0.0,0.0,0.0,0.0,0.0,0.0,0.0,0.0,0.0,0.0,0.0,0.0,0.0,0.0,4.0779,4.0796,4.0796,4.0796,4.0796,4.0796,4.0796,4.0796,0.0,0.0,0.0,0.0,4.0791,4.0791,4.0806,4.0806,4.0791,4.0791,4.0859,4.0968,4.0915,4.0894,4.0944,4.0714,4.0591,4.0595,0.0,0.0,0.0,0.0,0.0,0.0,0.0,0.0,0.0,0.0,0.0,0.0,0.0,0.0,0.0,0.0,0.0,0.0,0.0,0.0,0.0,0.0,0.0,0.0,0.0,0.0,0.0,0.0,0.0,0.0,0.0,0.0,0.0,0.0,0.0,0.0,0.0,0.0,0.0,0.0,0.0,4.7027,4.7016,0.0,0.0,0.0,0.0,0.0,0.0,0.0,0.0,0.0,0.0,0.0,0.0,0.0,5.0959,5.1063,5.0936,5.0955,5.1066,5.1066,5.1072,5.1074,5.1123,5.1137,5.1096,5.1075,0.0,5.089,5.0886,0.0,0.0,0.0,0.0,0.0,0.0,0.0,0.0,0.0,0.0,0.0,0.0,0.0,0.0,0.0,0.0,0.0,0.0,0.0,0.0,0.0,4.0807,4.0807,4.0807,4.0807,4.0807,4.0807,4.0807,0.0,0.0,4.0793,4.0807,4.0807,4.0795,4.0795,4.0807,4.0807,4.0831,4.0885,4.0866,4.0855,4.0883,4.0757,4.071,4.0713,4.0746,0.0,0.0,0.0,0.0,0.0,0.0,0.0,0.0,0.0,0.0,0.0,0.0,0.0,0.0,0.0,0.0,0.0,0.0,0.0,0.0,0.0,0.0,0.0,0.0,0.0,0.0,0.0,0.0,0.0,0.0,0.0,0.0,0.0,0.0,0.0,0.0,0.0,0.0,0.0,4.7674,4.7917,4.7879,4.8632,4.9151,0.0,0.0,0.0,0.0,0.0,0.0,0.0,0.0,0.0,5.096,5.0914,5.0958,5.1102,5.0552,5.0334,5.0415,4.9924,4.972,4.9769,5.0246,5.0463,5.0509,5.0968,5.1098,5.1007,5.0937,5.0898,5.0898,0.0,0.0,0.0,0.0,5.1211,5.1621,0.0,0.0,0.0,0.0,0.0,0.0,0.0,0.0,0.0,0.0,0.0,0.0,4.0831,4.0831,4.0831,4.0831,4.0831,4.0831,4.0831,4.0831,4.0831,4.0831,4.0823,4.0837,4.0837,4.0837,4.0837,4.0837,4.0837,4.082,4.0848,4.084,4.0826,4.0826,4.0826,4.082,4.0797,4.0797,4.091,4.1084,0.0,0.0,0.0,0.0,0.0,0.0,0.0,0.0,0.0,0.0,0.0,0.0,0.0,0.0,0.0,0.0,0.0,0.0,0.0,0.0,0.0,0.0,0.0,0.0,0.0,0.0,0.0,0.0,0.0,0.0,0.0,0.0,0.0,0.0,0.0,0.0,0.0,4.8683,4.8825,4.8771,4.9528,5.0055,0.0,0.0,0.0,0.0,0.0,0.0,5.1097,5.1053,5.102,5.102,5.0987,5.1002,5.1094,5.0467,5.0169,5.0223,4.9599,4.9322,4.938,5.0235,5.0629,5.0708,5.1528,5.1836,5.1701,5.1168,5.1056,5.1231,5.1231,5.1366,5.1579,5.1579,5.1989,5.2535,0.0,0.0,0.0,0.0,0.0,0.0,0.0,0.0,0.0,0.0,0.0,4.0883,4.0883,4.0883,4.0883,4.0883,4.0883,4.0883,4.0883,4.0883,4.0883,4.0883,4.0898,4.0883,4.0883,4.0883,4.0883,4.0883,4.0883,4.0934,4.0999,4.0918,4.0888,4.0886,4.0886,4.0852,4.0797,4.0797,4.1238,4.1874,4.1103,0.0,0.0,0.0,0.0,0.0,0.0,0.0,0.0,0.0,0.0,0.0,0.0,0.0,0.0,0.0,0.0,0.0,0.0,0.0,0.0,0.0,0.0,0.0,0.0,0.0,0.0,0.0,0.0,0.0,0.0,0.0,0.0,0.0,0.0,0.0,0.0,0.0,0.0,4.973,5.0507,0.0,0.0,0.0,0.0,5.1094,5.1097,5.1097,5.1097,5.1097,5.1094,5.1094,5.1094,5.1089,5.1092,5.1053,5.1074,5.1125,5.1153,5.1177,5.12,5.2124,5.2533,5.2527,5.3385,5.3651,5.3351,5.174,5.1502,5.2128,5.2128,5.2631,5.3366,5.3366,5.3405,5.3424,0.0,0.0,0.0,0.0,0.0,0.0,0.0,0.0,4.0582,4.0782,4.0855,4.0907,4.0907,4.0935,4.0952,4.0952,4.0957,4.0953,4.0953,4.0968,4.0952,4.0952,4.0914,4.0893,4.0893,4.0893,4.0893,4.0893,4.0893,4.0903,4.0941,4.0912,4.1172,4.1665,4.1665,4.1961,4.2445,4.1875,4.2105,4.2802,4.2512,4.2763,0.0,0.0,0.0,0.0,0.0,0.0,0.0,0.0,0.0,0.0,0.0,0.0,0.0,0.0,0.0,0.0,0.0,0.0,0.0,0.0,0.0,0.0,0.0,0.0,0.0,0.0,0.0,0.0,0.0,0.0,0.0,0.0,0.0,0.0,0.0,0.0,0.0,5.0636,5.0908,0.0,5.1101,5.1101,5.1095,5.1095,5.1134,5.1166,5.1166,5.1128,5.1095,5.1095,5.1091,5.1121,5.1157,5.0607,5.0354,5.0421,4.9889,4.9917,5.0491,5.1383,5.2087,5.2653,5.3512,5.3812,5.3616,5.3011,5.2871,5.3041,5.3089,5.3294,5.3569,5.3557,5.3913,5.4398,0.0,0.0,0.0,0.0,0.0,0.0,0.0,4.0526,4.0668,4.0812,4.0886,4.0935,4.0935,4.098,4.0995,4.0995,4.0998,4.0992,4.0992,4.1009,4.0995,4.0995,4.097,4.1064,4.136,4.1379,4.1506,4.1781,4.1781,4.1772,4.1771,4.1771,4.2055,4.2568,4.2568,4.3045,4.3809,4.3221,4.3263,4.3708,4.3437,4.3663,4.4117,0.0,0.0,0.0,0.0,0.0,0.0,0.0,0.0,0.0,0.0,0.0,0.0,0.0,0.0,0.0,0.0,0.0,0.0,0.0,0.0,0.0,0.0,0.0,0.0,0.0,0.0,0.0,0.0,0.0,0.0,0.0,0.0,0.0,0.0,5.1137,5.1124,5.1137,5.1137,5.1124,5.1137,5.1137,5.1133,5.1133,5.1423,5.161,5.161,5.1845,5.1991,5.1991,5.1985,5.2009,5.2076,5.151,5.1249,5.1311,5.0731,5.0767,5.1344,5.2192,5.2908,5.349,5.437,5.4681,5.4577,5.4577,5.4501,5.4397,5.4138,5.4227,5.4483,5.447,5.4846,5.533,0.0,0.0,0.0,0.0,0.0,0.0,4.0484,4.0567,4.0665,4.0871,4.0964,4.0992,4.0992,4.0992,4.0994,4.0994,4.0994,4.0995,4.0995,4.0994,4.1011,4.1031,4.1031,4.1443,4.2323,4.234,4.2726,4.3493,4.3491,4.3491,4.3491,4.3508,4.3508,4.3547,4.3547,4.3997,4.473,4.473,4.4696,4.4576,4.3785,4.4405,4.571,0.0,0.0,0.0,0.0,0.0,0.0,0.0,0.0,0.0,0.0,0.0,0.0,0.0,0.0,0.0,0.0,0.0,0.0,0.0,0.0,0.0,0.0,0.0,0.0,0.0,0.0,0.0,0.0,0.0,0.0,0.0,0.0,0.0,5.1199,5.1199,5.1199,5.1199,5.1219,5.1238,5.1238,5.1258,5.1277,5.1277,5.1999,5.2445,5.2445,5.3245,5.3692,5.3692,5.3692,5.3736,5.3794,5.3794,5.3832,5.3896,5.3894,5.3916,5.3953,5.473,5.5111,5.5186,5.6028,5.6357,5.6308,5.6308,5.6255,5.6125,5.5276,5.5466,5.6203,5.6203,5.6203,5.621,0.0,0.0,0.0,0.0,0.0,0.0,4.0417,4.0568,4.07,4.0751,4.0896,4.0992,4.0992,4.1031,4.1063,4.1063,4.1063,4.1073,4.1073,4.1075,4.1328,4.1912,4.193,4.2356,4.3222,4.3242,4.3353,4.3576,4.3523,4.3506,4.3506,4.3506,4.3838,4.4443,4.4443,4.4887,4.5639,4.5639,4.5637,4.56,4.5324,4.5483,4.5845,0.0,0.0,0.0,0.0,0.0,0.0,0.0,0.0,0.0,0.0,0.0,0.0,0.0,0.0,0.0,0.0,0.0,0.0,0.0,0.0,0.0,0.0,0.0,0.0,0.0,0.0,0.0,0.0,0.0,0.0,0.0,5.1199,5.1199,5.1199,5.1199,5.1199,5.1199,5.1707,5.2076,5.2076,5.2643,5.3012,5.3012,5.3225,5.3342,5.3342,5.3575,5.3692,5.3692,5.3692,5.3727,5.3805,5.3808,5.3813,5.3837,5.389,5.418,5.4718,5.4985,5.5411,5.5978,5.6214,5.6314,5.63,5.63,5.6298,5.6242,5.5962,5.5991,5.6208,5.6255,5.6265,5.6265,0.0,0.0,0.0,0.0,0.0,0.0,4.0469,4.0639,4.0762,4.0815,4.0954,4.1031,4.1031,4.1083,4.1091,4.1091,4.1103,4.1109,4.1109,4.1449,4.2022,4.2849,4.2887,4.327,4.4133,4.4133,4.4322,4.4699,4.4656,4.4626,4.4624,4.4636,4.4887,4.5332,4.5332,4.5592,4.5999,4.5999,4.5991,4.5994,4.5955,4.5932,4.5908,4.5908,4.5908,4.5908,4.5908,4.5908,4.5905,4.5906,0.0,0.0,0.0,0.0,0.0,0.0,0.0,0.0,0.0,0.0,0.0,0.0,0.0,0.0,0.0,0.0,0.0,0.0,0.0,0.0,0.0,0.0,0.0,0.0,5.1784,5.1893,5.2236,5.1958,5.1843,5.2193,5.2662,5.2934,5.2934,5.34,5.3692,5.3692,5.4041,5.4235,5.4235,5.4585,5.4799,5.4799,5.4799,5.4816,5.4845,5.4849,5.4867,5.4883,5.4928,5.5165,5.5583,5.5601,5.5867,0.0,5.6295,5.6295,5.6333,5.6683,5.6838,0.0,0.0,0.0,0.0,0.0,5.6838,5.6897,0.0,0.0,0.0,0.0,0.0,0.0,4.0596,4.0724,4.0844,4.0981,4.1064,4.1109,4.1109,4.1109,4.1109,4.1109,4.1109,4.1147,4.1245,4.1967,4.2825,4.3802,4.3841,4.4223,4.504,4.5058,4.5436,4.6209,4.6206,4.6204,4.6204,4.6199,4.6179,4.6104,4.6104,4.608,4.602,4.602,4.6015,4.601,4.601,4.5975,4.5901,4.5901,4.5901,4.5901,4.5901,4.5901,4.5901,4.5917,0.0,0.0,0.0,0.0,0.0,0.0,0.0,0.0,0.0,0.0,0.0,0.0,0.0,0.0,0.0,0.0,0.0,0.0,0.0,0.0,0.0,0.0,0.0,0.0,5.2748,5.3024,5.3835,5.3314,5.3057,5.3636,5.3866,5.3983,5.3983,5.4158,5.4274,5.4274,5.499,5.5434,5.5434,0.0,0.0,0.0,0.0,5.6301,5.6297,5.6305,5.6331,5.639,5.639,5.6407,5.6381,5.6324,5.6351,5.645,5.645,5.6508,5.6641,5.7421,5.7732,5.7654,5.6877,5.6583,5.6683,5.7441,5.7732,5.7849,0.0,0.0,0.0,0.0,0.0,0.0,4.0659,4.0751,4.0859,4.0982,4.1064,4.1109,4.1109,4.1109,4.1109,4.1109,4.1109,4.1401,4.2103,4.2317,4.3098,4.4679,4.4757,4.5146,4.6002,4.6021,4.6117,4.6288,4.6229,4.6199,4.6198,4.6191,4.6194,4.6187,4.6187,4.6164,4.6156,4.6156,4.6136,4.6082,4.6082,4.6032,4.5983,4.5983,4.5983,4.5983,4.5983,4.5983,4.598,4.5975,4.5877,4.5754,4.5812,4.5772,0.0,0.0,0.0,0.0,0.0,0.0,0.0,0.0,0.0,0.0,0.0,0.0,0.0,0.0,0.0,0.0,0.0,0.0,0.0,5.3506,5.3642,5.3933,5.4741,5.5239,5.5091,5.3856,5.4935,5.5809,5.5809,5.701,5.7806,5.7806,5.7962,5.8075,5.8075,5.7615,5.7344,5.7344,5.6664,5.6305,5.63,5.6301,5.6331,5.639,0.0,0.0,5.6315,5.6318,5.6685,5.7344,5.7344,5.7713,5.8331,5.8506,5.8564,5.8545,5.8389,5.8311,5.835,5.8506,5.8564,5.8583,0.0,0.0,0.0,0.0,0.0,0.0,4.2038,4.2077,4.2164,4.2334,4.2385,4.2397,4.2397,4.2397,4.2397,4.2397,4.2401,4.2776,4.3637,4.3693,4.4275,4.5584,4.5658,4.5851,4.6281,4.6301,4.6301,4.6301,4.6271,4.6246,4.6246,4.6253,4.6238,4.6204,4.6204,4.6195,4.6197,4.6197,4.6187,4.6148,4.6148,4.6136,4.6091,4.6022,4.5999,4.5999,4.5999,4.5999,4.5999,4.6003,4.5938,4.5854,4.5922,4.5904,4.588,0.0,0.0,0.0,0.0,0.0,0.0,0.0,0.0,0.0,0.0,0.0,0.0,0.0,0.0,5.2226,5.3084,0.0,5.3543,5.4456,5.4967,5.5526,5.6345,5.7164,5.7181,5.5828,5.678,5.7554,5.7554,5.8311,5.8794,5.8794,5.8794,5.8794,5.8794,5.8428,5.8198,5.8198,5.7787,5.7547,5.7551,5.7588,5.74,5.7008,5.7021,5.7024,5.6948,5.6948,5.7419,5.8198,5.8198,5.8428,5.8833,5.9263,5.971,6.0095,6.0095,5.9571,5.8852,5.9283,5.9458,5.9516,0.0,0.0,0.0,0.0,0.0,0.0,0.0,4.3408,4.3463,4.3675,4.3705,4.3705,4.3707,4.3707,4.3708,4.3709,4.3696,4.4071,4.4934,4.5008,4.5396,4.6256,4.6309,4.6305,4.6303,4.6303,4.6302,4.6301,4.6301,4.6301,4.6301,4.6301,4.6272,4.6215,4.6215,4.6223,4.6219,4.6219,4.6214,4.6208,4.6208,4.6204,4.619,4.6082,4.6025,4.6015,4.6004,4.5999,4.5999,4.5999,4.5999,4.5999,4.5999,4.6116,4.6252,4.6252,4.6871,0.0,0.0,0.0,0.0,0.0,0.0,0.0,0.0,5.1551,5.1934,5.2694,5.2863,5.315,5.4014,5.4311,5.4729,5.5647,5.6528,5.7301,5.7962,5.8793,5.904,5.8218,5.8701,5.9089,5.9089,5.9225,5.9319,5.9322,5.9322,5.9316,5.9299,5.9143,5.905,5.905,5.8891,5.8794,5.8794,5.886,5.8532,5.7834,5.7888,5.7884,5.7831,5.7831,5.8271,5.9069,5.9221,5.9318,5.9357,6.006,6.0778,6.1396,6.1396,6.0542,5.9396,6.0099,6.0351,6.0448,0.0,0.0,0.0,0.0,0.0,0.0,0.0,0.0,4.3463,4.3675,4.3705,4.3708,4.3695,4.3696,4.3698,4.3703,4.3704,4.4075,4.4934,4.4992,4.5383,4.6262,4.63,4.6297,4.6292,4.6292,4.6308,4.6301,4.6301,4.6301,4.6301,4.6301,4.6299,4.6297,4.6297,4.6296,4.6294,4.6294,4.6244,4.6202,4.6202,4.6206,4.6197,4.6189,4.6142,4.6082,4.6017,4.5999,4.5999,4.5999,4.5999,4.5999,4.5999,4.6521,4.714,4.714,4.7764,4.8813,5.0464,5.1603,5.2368,5.2511,5.2574,5.2565,0.0,5.3038,5.3629,5.373,5.3791,5.4101,5.4983,5.5783,5.6564,5.7387,5.8246,5.8848,5.8944,5.9643,6.0127,6.0001,6.0081,6.0129,6.0129,6.0772,6.12,6.1203,6.12,6.1172,6.1109,6.039,5.9943,5.9943,5.9205,5.8794,5.8794,5.881,5.8759,5.8662,5.8678,5.8678,5.8662,5.8662,5.9141,6.0001,6.0775,6.1105,6.1124,6.1202,6.1319,6.1396,6.1396,6.128,6.1124,6.1222,6.1241,6.128,0.0,0.0,0.0,0.0,0.0,0.0,0.0,0.0,4.4904,4.5076,4.5153,4.5211,4.5219,4.5203,4.5207,4.5211,4.5212,4.5369,4.5721,4.5759,4.5914,4.6286,4.6303,4.6301,4.6299,4.6299,4.6295,4.6308,4.6308,4.6306,4.6301,4.6301,4.6301,4.6301,4.6301,4.6301,4.6301,4.6301,4.6277,4.6268,4.6268,4.6262,4.6251,4.6215,4.618,4.6141,4.6074,4.6066,0.0,4.6012,4.5999,4.5999,4.5999,4.6625,4.7466,4.7974,4.9087,5.0548,5.2295,5.3031,5.3323,5.3357,5.3735,5.3997,5.3526,5.3663,5.4053,5.4598,5.5135,5.5767,5.6607,5.7465,5.8166,5.8499,5.93,5.9866,5.9866,6.0577,6.1116,6.1116,6.1104,6.1079,6.101,6.1295,6.15,6.1497,6.1504,6.1488,6.146,6.1071,6.0853,6.0853,6.0503,6.0309,6.0309,6.0309,6.0056,5.9555,5.9555,5.9555,5.9555,5.9555,6.004,6.0872,6.1241,6.1396,6.1396,6.1396,6.1396,6.1396,6.1396,6.1396,6.1396,6.1396,6.1396,6.1396,0.0,0.0,0.0,0.0,0.0,0.0,0.0,0.0,0.0,0.0,4.6217,4.6308,4.6297,4.6303,4.6306,4.6307,4.6308,4.6308,4.6308,4.6308,4.6308,4.6308,4.6306,4.6305,4.6303,4.6303,4.6301,4.6296,4.6294,4.6291,4.6304,4.6302,4.6301,4.6301,4.6301,4.6301,4.6301,4.6301,4.6301,4.6301,4.6301,4.6301,4.6299,4.6245,4.6238,4.6211,4.6144,4.6134,4.613,4.6075,4.6064,4.6141,4.6591,4.7375,4.8297,4.916,5.0641,5.228,5.3555,5.4086,5.4264,5.427,5.4762,5.5063,5.4495,5.4681,5.516,5.5843,5.6684,5.7464,5.805,5.887,5.9455,5.9455,6.0198,6.0764,6.0764,6.1309,6.1699,6.1699,6.1699,6.1664,6.1553,6.1567,6.1543,6.153,6.1534,6.1518,6.1503,6.1453,6.1418,6.1396,6.1417,6.1417,6.1396,6.1396,6.1086,6.0468,6.0468,6.0468,6.0468,6.0468,6.0794,6.1396,6.1396,6.1396,6.1396,6.1396,6.1396,6.1396,6.1396,6.1396,6.1396,6.1396,6.1396,6.1396,0.0,0.0,0.0,0.0,0.0,0.0,0.0,0.0,0.0,0.0,0.0,4.6297,4.6306,4.6308,4.6308,4.6308,4.6308,4.6308,4.6308,4.6308,4.6308,4.6308,4.6308,4.6308,4.6307,4.6307,4.6305,4.6301,4.6296,4.6293,4.6293,4.6304,4.6301,4.6301,4.6301,4.6301,4.6301,4.6301,4.6301,4.6301,4.6301,4.6301,4.6301,4.63,4.63,4.6294,4.6222,4.6196,4.6196,4.6194,4.6194,4.6488,4.8107,4.9218,5.009,5.0973,5.2452,5.3822,5.3881,5.4515,5.5186,5.5234,5.5279,5.5298,5.528,5.6528,5.7699,5.7719,5.8421,5.9025,5.9064,5.9768,6.0354,6.0354,6.1094,6.166,6.166,6.168,6.1699,6.1699,6.1699,6.1698,6.1697,6.1697,6.1667,6.1597,6.1593,6.1576,6.1509,6.1497,6.1476,6.14,6.1464,6.1467,6.1396,6.1396,6.1396,6.1358,6.1358,6.1358,6.1358,6.1358,6.1377,6.1396,6.1396,6.1396,6.1396,6.1396,6.1396,6.1396,6.1396,6.1396,6.1396,6.1396,6.1396,6.1396,0.0,0.0,0.0,0.0,0.0,0.0,0.0,0.0,0.0,0.0,0.0,0.0,0.0,0.0,0.0,0.0,4.6308,4.6308,4.6308,4.6308,4.6308,4.6308,4.6308,4.6308,4.6308,4.6308,4.6308,4.6305,4.6304,4.6302,4.6299,4.6293,4.6309,4.6309,4.6303,4.6301,4.6301,4.6301,4.6301,4.6301,4.6301,4.6651,4.7158,4.7158,4.749,4.7958,0.0,4.7185,4.6209,4.6206,4.694,4.7955,4.8522,5.0098,5.2012,5.3514,5.3967,5.4084,5.4679,5.5033,5.527,5.5297,5.5728,5.6294,5.6841,5.7407,5.7953,5.8538,5.9358,5.9963,5.9963,6.0665,6.125,6.125,6.1504,6.1699,6.1699,6.1699,6.1699,6.1699,6.1699,6.1699,6.1699,6.1699,0.0,6.1667,6.1628,6.1573,6.1507,6.15,6.1479,6.14,6.1467,6.147,6.1396,6.1396,6.1396,6.1396,6.1396,6.1396,6.1396,6.1396,6.1396,6.1396,6.1396,6.1396,6.1396,6.1396,6.1396,6.1396,6.1396,6.1396,6.14,6.1451,6.1467,6.1467,0.0,0.0,0.0,0.0,0.0,0.0,0.0,0.0,0.0,0.0,0.0,0.0,0.0,0.0,0.0,0.0,0.0,4.6308,4.6308,4.6308,4.6308,4.6308,4.6308,4.6308,4.6308,4.6308,4.6308,4.6308,4.6307,4.6306,4.6304,4.6299,4.6295,4.6293,4.6307,4.6303,4.6301,4.6301,4.6475,4.6768,4.6768,4.7276,4.8036,4.8036,4.8349,0.0,4.8779,4.8232,4.7528,4.7524,4.8434,4.9697,5.0268,5.1819,5.3608,5.4498,5.4588,5.4532,5.5139,5.5533,5.5767,5.5767,5.6391,5.7153,5.768,5.8031,5.8421,5.8986,5.9552,5.9944,5.9944,6.0392,6.0762,6.0762,6.1036,6.1231,6.1231,6.1504,6.1699,6.1699,6.1699,6.1699,6.1699,6.1699,6.1699,6.1699,6.1664,6.1618,6.1539,6.1551,6.1527,6.1441,6.1484,6.1475,6.1396,6.1396,6.1396,6.1396,6.1424,6.1434,6.1434,6.1434,6.1434,6.1438,6.1444,6.1441,6.1438,6.1444,6.1434,6.1434,6.1434,6.1434,6.144,6.1482,6.1495,6.1495,0.0,0.0,0.0,0.0,0.0,0.0,0.0,0.0,0.0,0.0,0.0,0.0,0.0,0.0,0.0,0.0,0.0,0.0,4.6308,4.6308,4.6308,4.6308,4.6308,4.6308,4.6308,4.6308,4.6308,4.6308,4.6308,4.6307,4.6307,4.6303,4.6299,4.6293,4.6293,4.6308,4.6301,4.6301,4.6788,4.7548,4.7587,4.8074,4.8795,4.8834,4.8872,4.8903,4.8899,4.9393,5.007,4.9934,5.0538,5.1594,5.3221,5.4262,5.4781,5.4121,5.448,5.5141,5.5325,5.5962,5.6605,5.6605,5.7172,5.7759,5.7798,5.8441,5.9045,5.9084,5.9103,5.9103,5.9103,5.9103,5.9103,5.9103,5.9788,6.0334,6.0334,6.1075,6.1621,6.1621,6.168,6.1699,6.1699,6.1699,6.1699,6.1699,0.0,6.1668,6.1598,6.1666,6.1638,6.1492,6.1502,6.1476,6.1403,6.14,6.14,6.1403,6.1476,6.1506,6.1506,6.1506,6.1506,6.149,6.1507,6.15,6.1492,6.1507,6.149,6.149,6.149,6.149,6.149,6.1493,6.1514,6.1514,0.0,0.0,0.0,0.0,0.0,0.0,0.0,0.0,0.0,0.0,0.0,0.0,0.0,0.0,0.0,0.0,0.0,0.0,4.6308,4.6308,4.6308,4.6308,4.6308,4.6308,4.6308,4.6308,4.6308,4.6308,4.6308,4.6308,4.6307,4.6303,4.6299,4.6293,4.6306,4.6302,4.6301,4.6301,4.6436,4.669,4.7333,4.8054,4.8792,4.9398,4.9966,5.0522,5.115,5.1939,5.2369,5.0412,5.1186,5.3285,5.4935,5.5264,5.5122,5.5544,5.5475,5.5399,5.6076,5.6429,5.6605,5.6605,5.6742,5.7055,5.766,5.7972,5.8324,5.8967,5.9103,5.9103,5.9103,5.9103,5.9103,5.9103,5.9299,5.9435,5.9435,6.0178,6.0725,6.0725,6.1309,6.1699,6.1699,6.1699,6.1699,0.0,6.1699,6.1668,6.1598,6.1666,6.1649,6.1493,6.1503,6.1497,6.1476,6.1476,6.1476,6.1476,6.1481,6.151,6.151,6.151,6.151,6.149,6.1505,6.1503,6.149,6.1505,6.149,6.149,6.149,6.149,6.1514,6.1569,6.1561,6.1586,0.0,0.0,0.0,0.0,0.0,0.0,0.0,0.0,0.0,0.0,0.0,0.0,0.0,0.0,0.0,0.0,0.0,0.0,0.0,4.6306,4.6306,4.6307,4.6307,4.6307,4.6307,4.6307,4.6307,4.6307,4.6307,4.6306,4.6305,4.6303,4.6274,4.621,4.6204,4.6185,4.6114,4.6114,4.6347,0.0,0.0,4.846,4.9274,5.0089,5.0636,5.1113,5.1923,5.2983,5.3816,5.2709,5.3308,5.4617,5.5209,5.5422,5.5487,5.5647,5.5712,5.5855,5.6443,5.6531,5.6497,5.6581,5.6822,5.7162,5.7675,5.7798,5.7933,5.8421,5.8244,5.7991,5.7991,5.7991,5.7991,5.7991,5.8303,5.8538,5.8538,5.9612,6.0393,6.0393,6.1172,6.1699,6.1699,6.1699,6.1699,6.1699,6.1699,6.1674,6.1658,6.1672,6.164,6.1543,6.1541,6.1539,6.1504,6.1504,6.1504,6.1504,6.1539,6.1541,6.1541,6.1541,6.1541,6.1543,0.0,6.1578,6.1543,6.158,6.1588,6.1588,6.1588,6.1588,6.159,6.163,6.1637,6.166,0.0,0.0,0.0,0.0,0.0,0.0,0.0,0.0,0.0,0.0,4.5822,0.0,0.0,0.0,0.0,0.0,0.0,0.0,0.0,0.0,4.6301,4.6301,4.6301,4.6301,4.6301,4.6301,4.6301,4.6301,4.628,4.6277,4.6277,4.637,4.6307,4.6089,4.6185,4.6119,4.5902,4.5902,4.6329,4.7109,4.7981,4.8846,4.9692,0.0,5.0872,5.1072,5.1939,5.3291,5.4761,5.5458,5.5708,5.5574,5.4876,5.5234,5.5786,5.5199,5.5625,5.6308,5.6493,5.6406,5.631,5.6493,5.6969,5.7423,5.7549,5.7562,5.7562,5.7562,5.7014,5.6548,5.6555,5.6557,5.6579,5.6604,5.7192,5.7641,5.7641,5.9026,6.0041,6.0041,6.0938,6.1524,6.1524,6.1621,6.1699,6.1699,6.1699,6.1699,6.1699,6.1699,6.1668,6.1597,6.1597,6.1576,6.149,6.1517,6.15,6.1502,6.1584,6.1604,6.1604,6.1604,6.1604,6.1625,6.167,0.0,6.1625,6.1671,6.1699,6.1699,6.1699,6.1699,6.1699,6.1699,6.1699,6.1719,0.0,0.0,0.0,0.0,0.0,0.0,0.0,0.0,0.0,0.0,4.5719,4.5825,0.0,0.0,0.0,0.0,0.0,0.0,0.0,0.0,0.0,4.6301,4.6301,4.6301,4.6301,4.6301,4.6301,4.6301,4.6199,4.6137,4.6145,4.6765,4.6653,4.5976,4.6686,4.6595,4.5902,4.5902,4.5999,4.6193,4.707,4.7878,4.8657,4.9519,0.0,0.0,5.2478,5.408,5.5516,5.5651,5.5708,5.5689,5.5535,5.5678,5.5877,5.5755,5.5922,5.6138,5.6178,5.6169,5.6138,5.6178,5.6266,5.6371,5.6394,5.64,5.64,5.64,5.6281,5.6214,5.6338,5.6352,5.6411,5.658,5.6722,5.68,5.68,5.7641,5.8247,5.8247,5.9651,6.0627,6.0627,6.127,6.1699,0.0,6.1699,6.1699,6.1699,6.1699,6.1668,6.1597,6.1597,6.1576,6.149,6.1549,6.1586,6.1586,6.166,6.1672,6.1672,6.1672,6.1672,6.1674,6.1697,0.0,6.1674,6.1697,6.1699,6.1699,6.1699,6.1699,6.1699,6.1699,6.1699,6.1797,0.0,0.0,0.0,0.0,0.0,0.0,0.0,4.5429,4.5452,4.5499,4.5582,4.5669,4.5793,4.5868,4.5928,0.0,0.0,0.0,0.0,0.0,0.0,4.6081,4.6151,4.6205,4.6205,4.6205,4.6205,4.6205,0.0,4.6002,4.5992,4.635,4.6288,4.5866,4.6287,4.6209,4.5738,4.5738,4.5738,4.5816,4.6682,4.7268,4.7713,4.8994,0.0,0.0,5.2914,5.428,5.5708,5.5708,5.5708,5.5708,5.5708,5.5794,5.5911,5.5911,5.5998,5.6097,5.6097,5.604,5.6016,5.6078,5.6059,5.602,5.6081,5.6097,5.6097,5.6097,5.6097,5.6116,5.6178,5.6208,5.6227,5.6314,5.6398,5.6444,5.6444,5.7235,5.7798,5.7798,5.9339,6.0393,6.0393,6.1192,6.1699,6.1699,6.1699,6.1699,6.1699,6.1699,6.1693,6.1642,6.1625,6.1597,6.1597,6.1597,6.1625,6.164,6.1674,6.1699,6.1699,6.1699,6.1699,6.1699,6.1699,0.0,6.1699,6.1699,6.1699,6.1699,6.1699,6.1699,6.1699,6.1699,6.1992,6.2441,0.0,0.0,0.0,0.0,0.0,0.0,0.0,4.5395,4.5424,4.5462,4.5476,4.5538,4.5692,4.5793,4.5855,0.0,0.0,0.0,0.0,0.0,0.0,0.0,0.0,0.0,4.5804,0.0,0.0,4.5804,4.5845,0.0,0.0,0.0,0.0,0.0,4.5946,4.597,4.5879,4.5686,4.5706,0.0,0.0,4.6735,4.7081,0.0,0.0,0.0,0.0,5.428,5.5708,5.5708,5.5708,5.5708,5.5708,5.5764,5.5849,5.5849,5.5938,5.6004,5.6004,5.5942,5.5889,5.599,5.5942,5.587,5.5994,5.6004,5.6004,5.6004,5.6004,5.6012,5.6044,5.607,5.6061,5.6091,5.6183,5.6266,5.6308,5.6989,5.7488,5.7488,5.904,6.0091,6.0046,6.1043,6.1694,6.1663,6.1674,0.0,6.1699,6.1699,6.1699,6.1699,6.1658,6.1658,6.1699,6.1658,6.1658,6.1699,6.1699,6.1699,6.1699,6.1699,6.1699,6.1699,6.1699,0.0,0.0,6.1699,6.1699,6.1699,6.1699,6.1699,6.1719,6.1914,6.2402,6.3046,0.0,0.0,0.0,0.0,0.0,0.0,0.0,4.5359,4.5394,4.5418,4.5405,4.5419,4.5424,4.5543,4.5688,0.0,0.0,0.0,0.0,0.0,0.0,0.0,0.0,0.0,0.0,0.0,0.0,4.4837,4.5489,0.0,0.0,0.0,0.0,0.0,0.0,4.6792,4.6735,4.5936,0.0,0.0,0.0,0.0,0.0,0.0,0.0,0.0,0.0,5.428,5.5708,5.5708,5.5708,5.5708,5.5708,5.57,5.5716,5.5716,5.5731,5.5747,5.5747,5.5731,5.5721,5.5722,5.5731,5.5721,5.5722,5.5747,5.5747,5.5747,5.5747,5.5769,5.5907,5.5917,5.597,5.6074,5.6107,5.6158,5.6279,5.6377,5.6439,5.6439,5.8079,5.912,5.8877,6.0574,6.1658,6.153,6.163,0.0,6.1699,6.1699,6.1699,6.1699,6.1697,6.1697,6.1699,6.1697,6.1697,6.1699,6.1699,6.1699,6.1699,6.1699,6.1699,6.1699,6.1699,0.0,0.0,6.1699,6.1699,6.1699,6.1699,6.1699,6.1797,6.2598,6.293,6.3196,0.0,0.0,0.0,0.0,0.0,0.0,4.5302,4.5323,4.5348,4.5384,4.5404,4.5409,4.54,4.5443,4.5498,4.5554,0.0,0.0,0.0,0.0,0.0,0.0,0.0,0.0,0.0,0.0,4.5299,4.5299,4.5468,0.0,0.0,0.0,0.0,0.0,0.0,4.6287,4.6762,4.6417,0.0,0.0,0.0,0.0,0.0,0.0,0.0,0.0,0.0,0.0,5.4972,5.4972,5.5304,5.5708,5.5708,5.5708,5.5708,5.5708,5.5708,5.5708,5.5708,5.5708,5.5708,5.5708,5.5708,5.5708,5.5708,5.5708,5.5708,5.5708,5.5708,5.5716,5.5759,5.5774,5.5803,5.5844,5.593,5.6001,5.6044,5.6125,5.6175,5.6175,5.777,5.8813,5.8707,6.0333,6.143,6.1488,6.1626,0.0,6.1699,6.1699,6.1699,6.1699,6.1699,6.1699,6.1699,6.1699,6.1699,6.1699,6.1699,6.1699,6.1699,6.1699,6.1699,6.1699,6.1699,0.0,0.0,6.1699,6.1699,6.1699,6.1699,6.195,6.2339,6.269,6.3436,6.4346,0.0,0.0,0.0,0.0,0.0,4.5302,4.5302,4.5302,4.5317,4.5359,4.5364,4.5374,4.5375,4.538,4.538,4.538,4.5386,0.0,0.0,0.0,0.0,0.0,0.0,0.0,0.0,0.0,4.5271,4.5271,4.5355,4.5424,0.0,0.0,4.5424,4.5476,0.0,0.0,0.0,0.0,0.0,0.0,0.0,0.0,0.0,0.0,0.0,0.0,0.0,0.0,0.0,0.0,0.0,5.5401,5.5612,5.5708,5.5708,5.5708,5.5708,5.5708,5.5708,5.5708,5.5708,5.5708,5.5708,5.5708,5.5708,5.5708,5.5708,5.5708,5.5708,5.5708,5.5708,5.5708,5.5708,5.5708,5.5774,5.5849,5.5883,5.5978,5.6033,5.6033,5.7605,5.8662,5.8587,6.0139,6.1222,6.1395,6.1491,0.0,6.1545,6.1604,6.1663,6.1698,6.1699,6.1699,6.1699,6.1699,6.1699,6.1699,6.1663,6.1634,6.1634,6.1634,6.1634,6.1636,6.1672,0.0,0.0,6.1699,6.167,6.1654,6.1906,6.2266,6.27,6.3225,6.4121,6.5138,0.0,0.0,0.0,0.0,0.0,0.0,4.5302,4.5302,4.5302,4.5302,4.5302,4.5302,4.5302,4.5302,4.5302,4.5302,4.5366,0.0,0.0,0.0,0.0,0.0,0.0,0.0,0.0,0.0,4.4216,4.4216,4.5002,4.5405,4.5405,4.5405,4.5405,4.5405,0.0,0.0,0.0,0.0,0.0,0.0,0.0,0.0,4.5501,0.0,0.0,0.0,0.0,0.0,0.0,0.0,0.0,0.0,0.0,5.5708,5.5708,5.5708,5.5708,5.5708,5.5708,5.5708,5.5708,5.5708,5.5708,5.5708,5.5708,5.5708,5.5708,5.5708,5.5708,5.5708,5.5708,5.5708,5.5708,5.5708,5.5708,5.5748,5.5885,5.5892,5.5892,5.5892,5.7559,5.8595,5.833,5.9939,6.1064,6.1179,0.0,0.0,6.1213,6.1395,6.1553,6.1697,6.1699,6.1699,6.1699,6.1699,6.1699,6.1698,6.1575,6.1493,6.1493,6.1493,6.1493,0.0,0.0,0.0,0.0,6.1699,6.1625,6.1588,6.2382,6.2602,6.271,6.4446,6.5087,6.5196,0.0,0.0,0.0,0.0,0.0,0.0,0.0,4.5302,4.5302,4.5302,4.5302,4.5302,4.5302,4.5302,4.5302,4.5302,4.5314,0.0,0.0,0.0,0.0,0.0,0.0,0.0,0.0,4.5026,4.5026,4.5026,4.524,4.5355,4.539,4.5355,4.5355,4.5428,4.5924,4.6783,0.0,0.0,0.0,0.0,0.0,4.5395,4.5424,0.0,0.0,0.0,0.0,0.0,0.0,0.0,0.0,0.0,0.0,0.0,0.0,5.5708,5.5708,5.5708,5.5708,5.5708,5.5708,5.5708,5.5708,5.5708,5.5708,5.5708,5.5708,5.5708,5.5708,5.5708,5.5708,5.5708,5.5708,5.5708,5.5708,5.571,5.5758,5.5768,5.5768,5.5768,5.7332,5.8841,5.9913,0.0,6.1025,6.1068,0.0,0.0,6.1209,6.1253,6.137,6.1551,6.1553,6.1553,6.1553,6.143,6.1354,6.1354,6.1313,6.1379,6.149,6.149,6.1545,0.0,0.0,0.0,0.0,6.1405,6.1331,6.1373,6.2238,6.2843,6.3388,6.4492,6.5218,6.568,0.0,0.0,0.0,0.0,0.0,0.0,0.0,4.5275,4.5302,4.5302,4.5302,4.5302,4.5302,4.5302,4.5302,4.5302,4.5302,0.0,0.0,0.0,0.0,0.0,0.0,0.0,4.5366,4.5355,4.5353,4.5353,4.5317,4.5323,4.5353,4.5317,4.5323,4.5373,4.5847,4.6519,0.0,0.0,0.0,0.0,4.5698,4.5355,4.5366,0.0,0.0,0.0,0.0,0.0,0.0,0.0,0.0,0.0,0.0,0.0,0.0,0.0,5.5708,5.5708,5.5708,5.5708,5.5708,5.5708,5.5708,5.5708,5.5708,5.5708,5.5708,5.5708,5.5708,5.5708,5.5708,5.5708,5.5708,5.5708,5.5708,5.5708,5.5708,5.5708,5.5939,5.6607,5.7646,5.8954,0.0,6.0877,6.0923,6.0923,0.0,0.0,6.1055,6.1103,6.1182,6.1315,6.1367,6.139,6.139,6.1253,6.1209,6.1209,6.1147,6.1189,6.1315,6.1315,6.1361,0.0,0.0,0.0,0.0,6.1246,6.1368,6.1694,6.2578,6.3356,6.4078,6.4908,6.5512,6.5904,0.0,0.0,0.0,0.0,0.0,0.0,0.0,4.5192,4.5275,4.5275,4.5286,4.5291,4.5291,4.5297,4.5302,4.5302,0.0,0.0,0.0,0.0,0.0,0.0,0.0,0.0,4.5302,4.5302,4.5302,4.5302,4.5302,4.5302,4.5302,4.5302,4.5302,4.5302,4.5359,4.5793,0.0,0.0,0.0,0.0,4.5607,4.5302,0.0,0.0,0.0,0.0,0.0,0.0,0.0,0.0,0.0,0.0,0.0,0.0,0.0,0.0,0.0,0.0,0.0,5.5708,5.5708,5.5708,5.5708,5.5708,5.5708,5.5708,0.0,5.5708,5.5708,5.5708,5.5708,5.5708,5.5708,5.5708,5.5708,5.5708,5.5708,5.5747,5.6415,5.8107,5.8352,5.9031,6.0633,6.0806,6.0806,0.0,0.0,0.0,6.0806,6.0913,6.0998,6.0998,6.1112,6.1181,6.1192,6.1181,6.1177,6.1173,6.1046,6.0983,6.0997,6.0997,6.1007,0.0,0.0,0.0,0.0,6.1181,6.1603,6.2365,6.3235,6.3998,6.4705,6.557,6.5904,6.5904,0.0,0.0,0.0,0.0,0.0,0.0,0.0,0.0,0.0,0.0,4.5091,4.5148,4.5148,4.5249,4.5302,0.0,0.0,0.0,0.0,0.0,0.0,0.0,0.0,0.0,4.5302,4.5302,4.5302,4.5302,4.5302,4.5302,4.5302,4.5302,4.5302,4.5321,4.5946,4.6328,0.0,0.0,0.0,0.0,4.5378,4.5302,0.0,0.0,0.0,0.0,4.8573,4.9507,0.0,0.0,0.0,0.0,0.0,0.0,0.0,0.0,5.5228,5.5708,5.5708,0.0,5.5708,5.5708,5.5708,5.5708,0.0,5.5708,5.5708,5.5708,5.5708,5.5708,5.5708,5.5708,5.5708,5.5708,5.5708,5.5708,5.5708,5.6266,5.7093,5.8165,5.8838,5.9627,6.071,6.0806,6.0806,0.0,0.0,6.0806,6.0806,6.0839,6.0847,6.0847,6.0883,6.0934,6.1046,6.0958,6.0896,6.0896,6.0856,6.0901,6.0997,6.0997,6.1064,0.0,0.0,0.0,6.1037,6.0943,6.1384,6.224,6.3057,6.3869,6.4705,6.557,6.5904,6.5904,0.0,0.0,0.0,0.0,0.0,0.0,0.0,0.0,0.0,0.0,0.0,4.5673,4.5643,4.6073,0.0,0.0,0.0,0.0,0.0,0.0,0.0,0.0,0.0,4.5302,4.5302,4.5302,4.5302,4.5302,4.5302,4.5302,4.5302,4.5302,4.5302,4.5321,4.5755,4.5946,0.0,0.0,0.0,4.5302,4.5302,0.0,0.0,0.0,0.0,0.0,4.8788,4.9646,0.0,5.0407,5.0766,5.1277,0.0,0.0,0.0,0.0,5.5068,5.5708,5.5708,5.5708,5.5708,5.5708,5.5708,5.5708,5.5708,5.5708,5.5708,5.5708,5.5708,5.5708,5.5708,5.5708,5.5708,5.5708,5.5708,5.5843,5.6247,5.6689,5.7459,5.8704,5.9242,5.9838,0.0,6.0806,0.0,0.0,0.0,6.0806,6.0806,6.0806,6.0806,6.0806,6.0806,6.0831,6.0911,6.085,6.0806,6.0806,6.0806,6.0836,6.0911,6.0911,6.0939,0.0,0.0,0.0,6.0906,6.0839,6.1537,6.2685,6.3121,6.4083,6.5243,6.5731,6.5904,6.5904,0.0,0.0,0.0,0.0,0.0,0.0,0.0,0.0,0.0,0.0,0.0,0.0,0.0,0.0,0.0,0.0,0.0,0.0,0.0,0.0,0.0,0.0,4.5291,4.5302,4.5302,4.5302,4.5302,4.5302,4.5302,4.5302,4.5302,4.5302,4.5302,4.5302,4.5302,4.5302,0.0,0.0,0.0,4.5302,4.5302,0.0,0.0,0.0,0.0,0.0,0.0,0.0,0.0,5.0302,5.0382,5.064,5.1374,0.0,0.0,0.0,0.0,0.0,5.5555,5.5612,5.5708,5.5708,5.5708,5.5708,5.5708,5.5708,5.5708,5.5708,5.5708,5.5708,5.5708,5.5708,5.5708,5.5708,5.5708,5.5997,5.6887,5.7113,5.7767,5.9319,5.9627,0.0,6.0729,0.0,0.0,0.0,0.0,6.0806,6.0806,6.0806,6.0806,6.0806,6.0806,6.0806,6.0806,6.0806,6.0806,6.0806,6.0806,6.0806,6.0806,6.0806,6.0806,6.0806,0.0,0.0,6.0806,6.0941,6.1916,6.3314,6.3448,6.4474,6.5904,6.5904,6.5904,6.5904,0.0,0.0,0.0,0.0,0.0,0.0,0.0,0.0,0.0,0.0,0.0,0.0,0.0,0.0,0.0,0.0,0.0,0.0,0.0,0.0,0.0,4.5131,4.523,4.5302,4.5302,4.5302,4.5302,4.5302,4.5302,4.5302,4.5302,4.5302,4.5302,4.5302,4.5302,4.5302,4.5302,4.5302,0.0,4.5302,4.5302,0.0,0.0,0.0,0.0,0.0,0.0,0.0,0.0,5.0302,5.0382,5.0525,5.0659,0.0,0.0,0.0,0.0,0.0,5.4876,5.5189,5.5708,5.5708,5.5708,5.5708,5.5708,5.5708,5.5708,5.5708,5.5708,5.5708,5.5708,5.5708,5.5708,5.5708,5.5708,5.5997,5.6887,5.7646,5.8454,5.9396,0.0,6.0646,6.0787,0.0,0.0,0.0,0.0,6.0806,6.0806,6.0806,6.0806,6.0806,6.0806,6.0806,6.0806,6.0806,6.0806,6.0806,6.0806,6.0806,6.0806,6.0806,6.0806,6.0806,0.0,6.0806,6.0864,6.1595,6.2454,6.3372,6.4109,6.5013,6.5904,6.5904,6.5904,6.5904,0.0,0.0,0.0,0.0,0.0,0.0,0.0,0.0,0.0,0.0,0.0,0.0,0.0,0.0,0.0,0.0,0.0,0.0,0.0,0.0,4.4877,4.4877,4.5003,4.5153,4.5302,4.5302,4.5302,4.5302,4.5302,4.5512,4.5946,4.5946,4.5946,4.5927,4.5493,4.5302,4.5302,4.5302,4.5302,4.534,0.0,0.0,0.0,0.0,0.0,0.0,0.0,0.0,0.0,0.0,5.0382,5.0505,5.0505,0.0,0.0,0.0,0.0,0.0,5.4722,5.5093,5.5708,5.5708,5.5708,5.5708,5.5708,5.5708,5.5708,5.5708,5.5708,5.5708,5.5708,5.5708,5.5708,5.5708,5.5708,5.617,5.7511,5.805,5.8775,0.0,0.0,6.0806,0.0,0.0,0.0,0.0,0.0,0.0,6.0806,6.0806,6.0806,6.0806,6.0806,6.0806,6.0806,6.0806,6.0806,6.0806,6.0806,6.0806,6.0806,6.0806,6.0806,6.0806,0.0,6.0806,6.0864,6.1729,6.257,6.3391,6.4256,6.5128,6.5904,6.5904,6.5904,6.5904,0.0,0.0,0.0,0.0,0.0,0.0,0.0,0.0,0.0,0.0,0.0,0.0,0.0,0.0,0.0,0.0,0.0,0.0,0.0,4.5427,4.4894,4.4705,4.4852,4.5032,4.5259,4.524,4.5275,4.5302,4.5302,4.5698,4.6495,4.6495,4.6495,4.6457,4.5665,4.5251,4.5184,4.5281,4.5366,4.5551,0.0,0.0,0.0,0.0,0.0,0.0,0.0,0.0,0.0,0.0,0.0,0.0,0.0,0.0,0.0,5.1928,5.3568,5.5478,5.4472,5.4934,5.5708,5.5708,5.5708,5.5708,5.5708,5.5708,5.5708,5.5708,5.5708,5.5708,5.5708,5.5708,5.5708,5.5708,5.5862,5.6536,5.8083,5.8467,5.9127,6.0614,6.0806,6.0806,0.0,0.0,0.0,0.0,0.0,0.0,6.0806,6.0806,6.0806,6.0806,6.0806,6.0806,6.0806,6.0806,6.0806,6.0806,6.0806,6.0806,6.0806,6.0806,6.0806,6.0806,6.0806,6.0806,6.0883,6.1941,6.2743,6.341,6.4474,6.5301,6.5904,6.5904,6.5904,6.5904,0.0,0.0,0.0,0.0,0.0,0.0,0.0,0.0,0.0,0.0,0.0,0.0,0.0,0.0,0.0,0.0,0.0,0.0,0.0,4.6233,4.5479,4.4724,4.4943,4.5084,4.512,4.512,4.5175,4.5302,4.5302,4.5698,4.6495,4.6495,4.6495,4.6457,4.5665,4.5121,4.4856,4.5173,4.5583,4.6062,4.6374,0.0,0.0,0.0,0.0,0.0,0.0,0.0,0.0,0.0,0.0,0.0,0.0,0.0,5.2876,5.1265,5.3112,5.5343,5.3741,5.4472,5.5708,5.5708,5.5708,5.5708,5.5708,5.5708,5.5708,5.5708,5.5708,5.5708,5.5708,5.5708,5.5708,5.5708,5.6382,5.7228,5.8165,0.0,5.9762,6.0691,6.0806,0.0,0.0,0.0,0.0,0.0,0.0,0.0,6.0806,6.0806,6.0806,6.0806,6.0806,6.0806,6.0806,6.0806,6.0806,6.0806,6.0806,6.0806,6.0806,6.0806,6.0806,6.0806,6.0806,6.0806,6.0941,6.2545,6.3256,6.3468,6.5147,6.5846,6.5904,6.5904,6.5904,6.5904,0.0,0.0,0.0,0.0,0.0,0.0,0.0,0.0,0.0,0.0,0.0,0.0,0.0,0.0,0.0,0.0,0.0,0.0,0.0,4.6236,4.5425,4.4609,4.4679,4.4776,4.4846,4.5103,4.5259,4.5302,4.6347,4.701,4.7316,4.7316,4.7224,4.7008,4.5614,4.4928,4.48,4.494,4.551,4.6397,4.7054,4.8028,0.0,0.0,0.0,0.0,0.0,0.0,0.0,0.0,5.041,5.0587,5.1137,5.1814,5.237,5.2279,5.353,5.4818,5.4184,5.4838,5.5708,5.5708,5.5708,5.5708,5.5708,5.5708,5.5708,5.5708,5.5708,5.5708,5.5708,5.5708,5.5708,5.5708,5.642,5.7305,5.8184,5.8986,5.9819,6.071,6.0806,0.0,0.0,0.0,0.0,0.0,0.0,0.0,6.0806,6.0806,6.0806,6.0806,6.0806,6.0806,6.0806,6.0806,6.0806,6.0806,6.0806,6.0806,6.0806,6.0806,6.0806,6.0806,6.0806,6.0806,6.0935,6.2602,6.3295,6.3468,6.5224,6.5904,6.5904,6.5904,6.5904,6.5904,0.0,0.0,0.0,0.0,0.0,0.0,0.0,0.0,0.0,0.0,0.0,0.0,0.0,0.0,0.0,0.0,0.0,0.0,4.6629,4.6035,4.5341,4.4545,4.453,4.4605,4.4705,4.5043,4.5249,4.5249,4.6956,4.7794,4.7807,4.7976,4.7819,4.7346,4.5862,4.501,4.4682,4.4887,4.5656,4.6839,4.7537,4.8462,0.0,0.0,0.0,0.0,0.0,0.0,0.0,0.0,5.0446,5.0645,5.1528,5.2022,5.2428,5.3024,5.3991,5.4818,5.4568,5.5093,5.5708,5.5708,5.5708,5.5708,5.5708,5.5708,5.5708,5.5708,5.5708,5.5708,5.5708,5.5708,5.5785,5.6074,5.6843,5.7703,5.8569,5.9396,6.0127,6.0729,6.0806,0.0,0.0,0.0,0.0,0.0,0.0,0.0,0.0,6.0806,6.0806,6.0806,6.0806,6.0806,6.0806,6.0806,6.0806,6.0806,6.0806,6.0806,6.0806,6.0806,6.0806,6.0806,6.0806,6.0806,6.0935,6.2602,6.3622,6.4243,6.5436,6.5904,6.5904,6.5904,6.5904,6.5904,0.0,0.0,0.0,0.0,0.0,0.0,0.0,0.0,0.0,0.0,0.0,0.0,0.0,0.0,0.0,0.0,0.0,0.0,4.5754,4.5697,4.5341,4.4545,4.4626,4.4705,4.4705,4.4955,4.5103,4.5108,4.6917,4.7807,4.7821,4.8359,4.8167,4.7365,4.6474,4.5475,4.4431,4.5047,4.6125,4.7429,4.7703,4.8806,5.0302,0.0,0.0,0.0,0.0,0.0,0.0,0.0,5.0451,5.0645,5.1547,5.2445,5.3197,5.3217,5.4395,5.5516,5.4722,5.5088,5.5708,5.5708,5.5708,5.5708,5.5708,5.5708,5.5708,5.5708,5.5708,5.5708,5.5708,5.5708,5.5997,5.6863,5.7723,5.8583,5.9396,6.0242,6.0806,6.0806,0.0,0.0,0.0,0.0,0.0,0.0,0.0,0.0,0.0,6.0806,6.0806,6.0806,6.0806,6.0806,6.0806,6.0806,6.0806,6.0806,6.0806,6.0806,6.0806,6.0806,6.0806,6.0806,6.0806,6.0806,6.0935,6.2602,6.4339,6.5904,6.5904,6.5904,6.5904,6.5904,6.5904,6.5904,0.0,0.0,0.0,0.0,0.0,0.0,0.0,0.0,0.0,0.0,0.0,0.0,0.0,0.0,0.0,0.0,0.0,0.0,4.5754,4.5697,4.5341,4.4545,4.4549,4.4551,4.4551,4.4815,4.5329,4.6083,4.7242,4.7989,4.8371,4.8534,4.8041,4.7012,4.6137,4.5351,4.4726,4.5525,4.6562,4.7735,4.8445,4.9347,5.0302,0.0,0.0,0.0,0.0,0.0,0.0,0.0,0.0,0.0,5.2305,5.2553,5.264,5.4434,5.4914,5.4934,5.5266,5.5516,5.5708,5.5708,5.5708,5.5708,5.5708,5.5708,5.5708,5.5708,5.5708,5.5708,5.5708,5.5708,5.5997,5.6863,5.7723,5.8583,5.9396,6.0242,6.0806,6.0806,0.0,0.0,0.0,0.0,0.0,0.0,0.0,0.0,0.0,6.0806,6.0806,6.0806,6.0806,6.0806,6.0806,6.0806,6.0806,6.0806,6.0806,6.0806,6.0806,6.0806,6.0806,6.0806,6.0806,6.0806,6.0935,6.2602,6.4339,6.5904,6.5904,6.5904,6.5904,6.5904,6.5904,6.5904,0.0,0.0,0.0,0.0,0.0,0.0,0.0,0.0,0.0,0.0,4.7305,4.7004,0.0,0.0,0.0,0.0,0.0,0.0,4.5266,4.5221,4.5014,4.4519,4.4501,4.4544,4.4659,4.4827,4.5372,4.6342,4.7187,4.7934,4.8608,4.8796,4.8171,4.6876,4.6462,4.5666,4.4707,4.5685,4.67,4.7713,4.8564,4.9469,5.0302,0.0,0.0,0.0,0.0,0.0,0.0,0.0,0.0,0.0,5.2729,5.3082,5.3294,5.5164,5.5362,5.5068,5.5574,5.5708,5.5708,5.5708,5.5708,5.5708,5.5708,5.5708,5.5708,5.5708,5.5978,5.6228,5.6228,5.6497,5.7011,5.7863,5.8434,5.9069,5.9896,6.0473,6.0806,6.0806,0.0,0.0,0.0,0.0,0.0,0.0,0.0,0.0,0.0,6.0806,6.0806,6.0806,6.0806,6.0806,6.0806,6.0806,6.0806,6.0806,6.0806,6.0806,6.0806,6.0806,6.0806,6.0806,6.0806,6.1185,6.1877,6.2871,6.4339,6.5904,6.5904,6.5904,6.5904,6.5904,6.5904,6.5904,0.0,0.0,0.0,0.0,0.0,0.0,0.0,0.0,0.0,0.0,4.6817,4.6779,0.0,0.0,0.0,0.0,0.0,0.0,0.0,4.4501,4.4501,4.4501,4.4501,4.4619,4.4889,4.4858,4.5243,4.6076,4.691,4.7724,4.8568,4.9062,4.8442,4.6938,4.7169,4.6205,4.4501,4.5709,4.6676,4.7479,4.8383,4.9378,5.0302,5.0302,0.0,0.0,0.0,0.0,0.0,0.0,0.0,0.0,5.299,5.3857,5.4664,5.5458,5.5708,5.5708,5.5708,5.5708,5.5708,5.5708,5.5766,5.5824,5.5824,5.5882,5.592,5.5824,5.6439,5.7016,5.7099,5.7761,5.8569,5.9377,5.9492,5.98,6.0691,6.0806,6.0806,0.0,0.0,0.0,0.0,0.0,0.0,0.0,0.0,0.0,0.0,6.0806,6.0806,6.0806,6.0806,6.0806,6.0806,6.0806,6.0806,6.0806,6.0806,6.0806,6.0806,6.0806,6.0806,6.0806,6.0806,6.1743,6.3295,6.3295,6.4339,6.5904,6.5904,6.5904,6.5904,6.5904,6.5904,6.5904,0.0,0.0,0.0,0.0,0.0,0.0,0.0,0.0,0.0,0.0,0.0,0.0,0.0,0.0,0.0,0.0,0.0,0.0,0.0,4.4501,4.4501,4.4501,4.4501,4.4572,4.4751,4.4535,4.4925,4.5929,4.6839,4.7605,4.8212,4.8953,4.8546,4.7209,4.7052,4.6149,4.4827,4.6436,4.7226,4.7555,4.925,5.0077,5.0302,5.0302,5.0302,0.0,0.0,0.0,0.0,0.0,0.0,0.0,5.3706,5.4357,5.4664,5.5458,5.5708,5.5708,5.5708,5.5708,5.5708,5.5708,5.6209,5.6709,5.6709,5.7242,5.755,5.6863,5.6863,5.7209,5.7896,5.8165,5.8569,5.9377,5.9492,5.98,6.0691,6.0806,6.0806,0.0,0.0,0.0,0.0,0.0,0.0,0.0,0.0,0.0,6.0806,6.0806,6.0806,6.0806,6.0806,6.0806,6.0806,6.0806,6.0806,0.0,6.0806,6.0806,6.0806,6.0806,6.0806,6.0806,6.0806,6.1743,6.3295,6.3295,6.4339,6.5904,6.5904,6.5904,6.5904,6.5904,6.5904,6.5904,0.0,0.0,0.0,0.0,0.0,0.0,0.0,0.0,0.0,0.0,0.0,0.0,0.0,0.0,0.0,0.0,0.0,0.0,0.0,0.0,4.4501,4.4501,4.4383,4.436,4.452,4.4301,4.4507,4.5124,4.6035,4.7043,4.8104,4.8532,4.8137,4.7089,4.6693,4.5738,4.4535,4.6376,4.7161,4.7327,4.9277,5.0156,5.0302,5.0302,5.0302,5.0302,5.0337,0.0,0.0,0.0,0.0,0.0,0.0,0.0,5.517,5.5574,5.5708,5.5708,5.5708,5.5708,5.5708,5.5708,5.6362,5.7003,5.7003,5.7665,5.828,5.8204,5.8209,5.8344,5.88,5.9223,5.9627,6.005,6.0127,6.0281,6.0748,6.0806,6.0806,0.0,0.0,0.0,0.0,0.0,0.0,0.0,0.0,6.0806,6.0806,6.0806,6.0806,6.0806,6.0806,6.0806,6.0806,6.0806,6.0806,6.0806,6.0806,6.0806,6.0806,6.0806,6.0806,6.0806,6.0806,6.1743,6.3295,6.3295,6.4339,6.5904,6.5904,6.5904,6.5904,6.5904,6.5904,6.5904,0.0,0.0,0.0,0.0,0.0,0.0,0.0,0.0,0.0,0.0,0.0,0.0,0.0,0.0,0.0,0.0,0.0,0.0,0.0,0.0,0.0,4.4501,4.4192,4.4095,4.4253,4.4125,4.4125,4.4272,4.5149,4.6324,4.7753,4.786,4.7484,4.6737,4.6191,4.5336,4.4411,4.6165,4.7014,4.7344,4.9151,5.0057,5.0302,5.0302,5.0302,5.0302,5.0314,5.0967,5.182,5.196,0.0,0.0,0.0,0.0,5.5708,5.5708,5.5708,5.5708,5.5708,5.5708,5.5708,5.5708,5.6478,5.7228,5.7228,5.8011,5.8915,5.9588,5.9608,5.955,5.9704,6.03,6.0806,6.0806,6.0671,6.0633,6.0787,6.0671,6.0633,0.0,0.0,0.0,0.0,0.0,0.0,0.0,0.0,6.0806,6.0806,6.0806,6.0806,6.0806,6.0806,6.0806,6.0806,6.0806,6.0806,6.0806,6.0806,6.0806,6.0806,6.0806,6.0806,6.0806,6.0806,6.1666,6.3102,6.3237,6.4243,6.5686,6.5846,6.5904,6.5904,6.5904,6.5904,6.5904,0.0,0.0,0.0,0.0,0.0,0.0,0.0,0.0,0.0,0.0,4.4501,4.4411,0.0,0.0,0.0,0.0,0.0,0.0,4.444,0.0,0.0,4.4494,4.4025,4.3873,4.4121,4.3992,4.3985,4.4128,4.5054,4.5806,4.6373,4.6847,4.6749,4.619,4.5585,4.5391,4.553,4.6482,4.7469,4.8477,4.9739,5.0253,5.0302,5.0302,5.0302,5.0308,5.0373,5.1001,5.1921,5.2675,5.3636,0.0,0.0,0.0,5.5708,5.5708,5.5708,5.5708,5.5708,5.5708,5.5708,5.5708,5.6915,5.8127,5.8127,5.9338,6.0498,6.0589,6.0031,5.9723,6.0492,6.0723,6.0806,6.0806,6.0165,5.9935,6.0691,6.0146,5.9954,0.0,0.0,0.0,0.0,0.0,0.0,0.0,6.0806,6.0806,6.0806,6.0806,6.0806,6.0806,6.0806,6.0806,6.0806,6.0806,6.0806,6.0806,6.0806,6.0806,6.0806,6.0806,6.0806,6.0806,6.0806,6.1364,6.2306,6.3006,6.3872,6.4859,6.5615,6.5904,6.5904,6.5904,6.5904,6.5904,0.0,0.0,0.0,0.0,0.0,0.0,0.0,0.0,0.0,0.0,0.0,4.4222,0.0,0.0,0.0,4.4109,4.4071,4.4048,4.4048,4.3936,4.3921,4.4048,4.3687,4.3604,4.3865,4.3823,4.3951,4.4325,4.4843,4.53,4.5658,4.5548,4.5632,4.5868,4.5602,4.5455,4.5522,4.7163,4.8151,4.87,4.9844,5.0302,5.0302,5.0302,5.0302,5.0359,5.0879,5.1687,5.2601,5.3473,5.4403,5.5228,5.5593,0.0,0.0,0.0,5.5708,5.5708,5.5708,5.5708,5.5708,5.5708,5.7011,5.8294,5.8294,5.9608,6.0806,6.0806,6.0498,6.0339,6.0729,6.0806,6.0806,6.0806,6.0069,5.98,6.0691,6.005,5.9819,0.0,0.0,0.0,0.0,0.0,0.0,0.0,6.0806,6.0806,6.0806,6.0806,6.0806,6.0806,6.0806,6.0806,6.0806,6.0806,6.0806,6.0806,6.0806,6.0806,6.0806,6.0806,6.0806,6.0806,6.0806,6.1287,6.2153,6.2974,6.3814,6.4686,6.5551,6.5904,6.5904,6.5904,6.5904,6.5904,0.0,0.0,0.0,0.0,0.0,0.0,0.0,0.0,0.0,0.0,0.0,0.0,0.0,0.0,0.0,0.0,4.3817,4.3695,4.3695,4.3629,4.3629,4.3695,4.3442,4.3425,4.3687,4.3807,4.4065,4.4506,4.4758,4.5017,4.5291,4.4676,4.4908,4.5793,4.5638,4.5597,4.5763,4.7765,4.877,4.9112,4.9964,5.0302,5.0302,5.0302,5.0302,5.0411,5.1289,5.2188,5.311,5.3995,5.4913,5.5687,5.5684,5.5708,0.0,0.0,0.0,5.5708,5.5708,5.5708,5.5708,5.5708,5.6838,5.7973,5.7973,5.9108,6.0223,6.0435,6.0473,6.0531,6.0768,6.0806,6.0729,6.0517,5.9742,5.9492,6.0339,5.9723,5.9588,0.0,0.0,0.0,0.0,0.0,0.0,0.0,6.0806,6.0806,6.0806,6.0806,6.0806,6.0806,6.0806,6.0806,6.0806,6.0806,6.0806,6.0806,6.0806,6.0806,6.0806,6.0806,6.0806,6.0806,6.0806,6.1172,6.1826,6.2666,6.3493,6.4359,6.5224,6.5705,6.5904,6.5904,6.5904,6.5904,0.0,0.0,0.0,0.0,0.0,0.0,0.0,0.0,0.0,0.0,0.0,0.0,4.414,4.4102,4.3983,4.3736,4.3703,4.3695,4.3695,4.3468,4.3434,4.3687,4.3442,0.0,4.3687,4.4069,4.4334,4.4506,4.4887,4.5164,4.5291,4.4676,4.4998,4.6051,4.5488,4.5812,4.6898,4.8099,4.9214,5.0227,5.0277,5.0302,5.0302,5.0302,5.0302,5.0411,5.1289,5.2165,5.3039,5.3978,5.4885,5.5613,5.5687,5.5708,5.5708,0.0,0.0,0.0,5.5708,5.5708,5.5708,5.5708,5.6382,5.7074,5.7074,5.7767,5.864,5.9415,5.9569,5.9819,6.0646,6.0806,6.0531,5.9704,5.8896,5.864,5.9454,5.8877,5.8973,0.0,0.0,0.0,0.0,0.0,0.0,0.0,6.0806,6.0806,6.0806,6.0806,6.0806,6.0806,6.0806,6.0806,6.0806,6.0806,6.0806,6.0806,6.0806,6.0806,6.0806,6.0806,6.0806,6.0806,6.0806,6.0825,6.0941,6.1806,6.2647,6.3448,6.4339,6.5166,6.5904,6.5904,6.5904,6.5904,0.0,0.0,0.0,0.0,0.0,0.0,0.0,0.0,0.0,0.0,0.0,0.0,0.0,4.3695,4.3621,4.3687,4.3545,4.3373,4.3196,4.3258,4.3347,4.3442,4.3519,4.3687,4.3944,4.4192,4.4455,4.4751,4.4907,4.5072,4.5297,4.4777,4.5084,4.6114,4.6236,4.6924,4.806,4.8981,4.9727,5.0284,5.0063,5.012,5.0359,5.0926,5.1137,5.1328,5.2703,5.3451,5.3934,5.477,5.5324,5.5676,5.5678,5.5708,5.5708,5.5708,5.5708,5.5708,5.5708,5.5708,5.5714,5.5751,5.6416,5.7056,5.7049,5.7734,5.8442,5.8731,5.8788,5.8885,5.9193,6.0101,6.0512,5.9646,5.8813,5.8583,5.9396,5.8819,5.8915,0.0,0.0,0.0,0.0,0.0,0.0,0.0,0.0,6.0806,6.0806,6.0806,6.0806,6.0806,6.0806,6.0806,6.0806,6.0806,6.0806,6.0806,6.0806,6.0806,6.0806,6.0806,6.0806,6.0806,6.0806,6.0806,6.0864,6.1729,6.257,6.3391,6.4256,6.5128,6.5904,6.5904,6.5904,6.5904,0.0,0.0,0.0,0.0,0.0,0.0,0.0,0.0,4.4132,4.3873,0.0,0.0,0.0,0.0,4.3338,4.3425,4.3267,4.3096,4.2901,4.3078,4.3178,4.3178,4.3425,4.3654,4.3833,4.4042,4.4327,4.4635,4.4732,4.4899,4.5121,4.5116,4.566,4.6699,4.7234,4.7894,4.8661,4.9574,5.0107,5.0284,5.0057,5.0285,5.0793,5.1385,5.1767,5.2187,5.3607,5.4178,5.4394,5.523,5.5573,5.5662,5.5684,5.5708,5.5708,5.5708,5.5708,5.5708,5.5708,5.5708,5.5714,5.5756,5.6219,5.6659,5.6656,5.7119,5.7631,5.7944,5.8002,5.8079,5.8344,5.927,5.9716,5.8847,5.8251,5.8182,5.8973,5.864,5.8915,0.0,0.0,0.0,0.0,0.0,0.0,0.0,0.0,0.0,6.0806,6.0806,6.0806,6.0806,6.0806,6.0806,6.0806,6.0806,6.0806,6.0806,6.0806,6.0806,6.0806,6.0806,6.0806,6.0806,6.0806,6.0806,6.0845,6.1422,6.23,6.3352,6.3929,6.4878,6.5904,6.5904,6.5904,6.5904,0.0,0.0,0.0,0.0,0.0,0.0,0.0,0.0,4.3604,4.3347,0.0,0.0,0.0,0.0,0.0,4.292,4.2892,4.2892,4.2892,4.2901,4.2901,4.2901,4.316,4.3312,4.3312,4.3716,4.3974,4.4113,4.4443,4.4688,4.4825,4.5691,4.6717,4.7821,4.8377,4.863,4.8719,4.9813,5.0296,5.0302,5.0309,5.0844,5.1614,5.1652,5.2155,5.2938,5.3836,5.4185,5.4367,5.5212,5.5545,5.5607,5.5687,5.5708,5.5708,5.5708,5.5708,5.5708,0.0,0.0,0.0,5.5708,5.5751,5.5792,5.5816,5.587,5.6131,5.698,5.7154,5.7409,5.8195,5.833,5.8045,5.7198,5.7072,5.7378,5.8151,5.8275,5.8915,6.0575,0.0,0.0,0.0,0.0,0.0,0.0,6.0806,6.0806,6.0806,6.0806,6.0806,6.0806,6.0806,6.0806,6.0806,6.0806,6.0806,6.0806,6.0806,6.0806,6.0806,6.0806,6.0806,6.0806,6.0806,6.0806,6.0806,6.0806,6.1781,6.3295,6.3295,6.4378,6.5904,6.5904,6.5904,6.5904,0.0,0.0,0.0,0.0,0.0,4.3897,4.3629,4.3646,4.367,0.0,0.0,0.0,4.3408,4.3169,4.2976,4.2901,4.2892,4.2892,4.2892,4.3069,4.3187,4.3187,4.3451,4.3621,4.3732,4.4037,4.4279,4.4457,4.4707,4.4936,4.5181,4.5953,4.685,4.7826,4.8615,4.9272,4.9832,4.9905,5.0076,5.0323,5.0723,5.1161,5.1729,5.2951,5.355,5.3855,5.4734,5.504,5.5108,5.5404,5.5545,5.5607,5.5687,5.5708,5.5708,5.5708,5.5708,5.5708,5.5708,0.0,0.0,0.0,0.0,0.0,5.5919,5.5967,5.6029,5.628,5.6332,5.6404,5.6618,5.666,5.6579,5.6276,5.6713,5.7167,5.733,5.7896,5.8684,5.9742,0.0,0.0,0.0,0.0,0.0,0.0,6.0806,6.0806,6.0806,6.0806,6.0806,6.0806,6.0806,6.0806,6.0806,6.0806,6.0806,6.0806,6.0806,6.0806,6.0806,6.0806,6.0806,6.0806,6.0806,6.0806,6.0806,6.0806,6.1781,6.3295,6.3295,6.4378,6.5904,6.5904,6.5904,6.5904,0.0,0.0,4.4109,4.3952,4.3929,4.3841,4.3579,4.3536,4.3494,0.0,0.0,0.0,4.3124,4.2995,4.2892,4.2892,4.2892,4.2892,4.2892,4.305,4.316,4.3214,4.3375,4.3555,4.3804,4.3996,4.4224,4.4478,4.4726,4.5125,4.5656,4.6555,4.7465,4.8372,4.9213,4.9862,5.029,5.0082,5.0126,5.0361,5.1034,5.1637,5.2251,5.3588,5.4333,5.4715,5.5224,5.5403,5.5408,5.545,5.5522,5.5607,5.5687,5.5708,5.5708,5.5708,5.5708,5.5708,5.5708,5.5708,5.5714,5.5751,0.0,0.0,5.5905,5.5929,5.5967,5.599,5.5998,5.5996,5.6007,5.601,5.5977,5.5914,5.6294,5.6697,5.695,5.744,5.8069,5.8896,0.0,0.0,0.0,6.0589,6.0806,6.0806,6.0806,6.0806,6.0806,6.0806,6.0806,6.0806,6.0806,6.0806,6.0806,6.0806,6.0806,6.0806,6.0806,6.0806,6.0806,6.0806,6.0806,6.0806,6.0806,6.0806,6.0806,6.0806,6.1589,6.2839,6.316,6.4141,6.5397,6.5763,6.5904,6.5904,0.0,0.0,4.3695,4.3695,4.367,4.3579,4.3338,4.3276,4.316,0.0,4.2892,4.2892,4.2892,4.2892,4.2892,4.2892,4.2892,4.2892,4.2892,4.2901,4.2975,4.3095,4.3104,4.3295,4.3652,4.3758,4.3946,4.4279,4.468,4.5306,4.6133,4.7332,4.8325,4.9142,4.9939,5.0302,5.0302,5.0302,5.0359,5.0531,5.1385,5.2231,5.3034,5.3913,5.4734,5.5396,5.5396,5.5396,5.5395,5.5408,5.5498,5.5607,5.5687,5.5708,5.5708,5.5708,5.5708,5.5708,5.5708,5.5708,5.5708,5.5708,5.5745,0.0,5.5792,5.5841,5.5905,0.0,5.5981,5.598,5.5986,5.5995,5.5973,5.5914,5.59,5.6116,5.6763,5.6945,5.7286,5.8069,0.0,0.0,5.9377,6.0069,6.0556,6.0646,6.0748,6.0806,6.0806,6.0806,6.0806,6.0806,6.0806,6.0806,6.0806,6.0806,6.0806,6.0806,6.0806,6.0806,6.0806,6.0806,6.0806,6.0806,6.0806,6.0806,6.0806,6.0806,6.1306,6.2172,6.2993,6.3833,6.4705,6.557,6.5904,6.5904,4.3777,4.3736,4.3695,4.3695,4.3519,4.3364,4.3303,4.3133,4.2957,4.2901,4.2892,4.2892,4.2892,4.2892,4.2892,4.2892,4.2892,4.2892,4.2892,4.2994,4.3058,4.3095,4.316,4.3269,4.3445,4.3687,4.3878,4.4056,4.4992,4.5673,4.6127,4.7713,4.8681,4.9142,4.9939,5.0302,5.0302,5.0302,5.0703,5.1423,5.2231,5.3072,5.3932,5.4811,5.5244,5.5396,5.5396,5.5403,5.5416,5.5463,5.5533,5.5607,5.5687,5.5708,5.5708,5.5708,5.5708,5.5708,5.5708,5.5708,5.5708,0.0,0.0,0.0,5.5782,5.5821,5.5826,5.5841,5.589,5.5914,5.5924,5.5961,5.599,5.5909,5.59,5.5904,5.5955,5.6555,5.706,5.7228,0.0,0.0,5.8525,5.8684,5.9069,5.9704,6.0396,6.0806,6.0806,6.0806,6.0806,6.0806,6.0806,6.0806,6.0806,6.0806,6.0806,6.0806,6.0806,6.0806,6.0806,6.0806,6.0806,6.0806,6.0806,6.0806,6.0806,6.0806,6.1306,6.2172,6.2993,6.3833,6.4705,6.557,6.5904,6.5904,4.3897,4.3793,4.3695,4.3695,4.3477,4.3303,4.3303,4.3078,4.2892,4.2892,4.2892,4.2892,4.2892,4.2892,4.2892,4.2892,4.2892,4.2892,4.2892,4.303,4.3123,4.3151,4.3251,4.3419,4.3701,4.4216,4.4594,4.4793,4.5904,4.6753,4.7365,4.839,4.9147,4.9715,5.013,5.0302,5.0302,5.0302,5.1028,5.2231,5.2639,5.332,5.4199,5.5078,5.5396,5.5396,5.5396,5.5396,5.5416,5.5439,5.5474,0.0,5.5613,5.564,5.5665,0.0,5.5708,5.5708,0.0,0.0,0.0,5.5708,0.0,0.0,0.0,5.5751,5.5761,5.5787,5.5831,5.5851,5.5895,5.5938,5.5924,5.5856,5.5846,5.5816,5.5719,5.6074,5.6343,5.6343,0.0,0.0,5.7646,5.805,5.8467,5.8871,5.9319,5.9723,6.0127,6.0146,6.0339,6.0787,6.0806,6.0806,6.0806,6.0806,6.0806,6.0806,6.0806,6.0806,6.0806,6.0806,6.0806,6.0806,6.0806,6.0806,6.0806,6.0806,6.1056,6.1575,6.2814,6.3564,6.4109,6.5416,6.5904,6.5904,4.403,4.3809,4.3637,4.3687,4.3434,4.3241,4.3294,4.3078,4.2892,4.2892,4.2892,4.2919,4.2938,4.2938,4.2947,4.2966,4.2966,4.2966,4.2966,4.3232,4.3406,4.347,4.3724,4.4026,4.4358,4.4996,4.5473,4.575,4.6836,4.7782,4.8603,4.9047,4.9612,5.0302,5.0302,5.0302,5.0302,5.0474,5.1429,5.2811,5.2983,5.3569,5.4428,5.5129,5.5396,5.5396,5.5396,5.5396,5.5409,5.5402,5.5402,5.5426,5.5545,5.559,0.0,0.0,0.0,0.0,0.0,0.0,0.0,0.0,0.0,5.5708,0.0,0.0,0.0,5.5766,5.5776,5.5792,5.5875,0.0,0.0,0.0,0.0,0.0,0.0,5.5593,0.0,5.5708,0.0,0.0,5.6747,5.753,5.805,5.805,5.8204,5.8583,5.9242,5.9415,5.9819,6.0531,6.0704,6.0806,6.0806,6.0806,6.0806,6.0806,6.0806,6.0806,6.0806,6.0806,6.0806,6.0806,6.0806,6.0806,6.0806,6.0806,6.0806,6.0979,6.2641,6.3295,6.3506,6.5263,6.5904,6.5904,4.3793,4.3536,4.3425,4.3654,4.3276,4.3032,4.3258,4.3078,4.2892,4.2892,4.2892,4.2947,4.3058,4.3086,4.3095,4.3151,4.3178,4.3178,4.3178,4.3962,4.4437,4.4446,4.5196,4.5635,4.5671,4.5763,4.5976,4.6307,4.7148,4.7927,4.8617,4.937,4.993,5.0302,5.0302,5.0302,5.0359,5.1117,5.1964,5.2868,5.3645,5.4467,5.5263,5.5358,5.5396,5.5396,5.5396,5.5396,5.5409,0.0,5.5402,5.5414,0.0,5.5551,5.5596,5.5607,0.0,0.0,0.0,0.0,0.0,0.0,5.5708,0.0,0.0,0.0,5.5708,5.5714,0.0,5.5735,5.5792,0.0,0.0,0.0,0.0,0.0,5.4752,5.5247,5.5708,5.5708,5.5785,0.0,0.0,5.6632,5.7151,5.7151,5.7857,5.8333,5.8429,5.9102,5.955,5.9646,6.0396,6.0806,6.0806,6.0806,6.0806,6.0806,6.0806,6.0806,6.0806,6.0806,6.0806,6.0806,6.0806,6.0806,6.0806,6.0806,6.0806,6.0979,6.2641,6.3295,6.3506,6.5263,6.5904,6.5904,4.3921,4.372,4.357,4.3679,4.3382,4.316,4.3276,4.3078,4.2892,4.2892,4.2892,4.311,4.361,4.3748,4.3996,4.4488,4.4563,4.4582,4.4582,4.5022,4.5297,4.5297,4.5691,4.5902,4.5902,4.6351,4.6673,4.6798,4.8004,4.873,4.9018,4.9751,5.0162,5.0302,5.0302,5.0302,5.0359,5.1232,5.2059,5.2887,5.3741,5.4619,5.5396,5.5396,5.5396,5.5396,5.5396,5.5396,5.5403,0.0,5.5403,0.0,0.0,0.0,0.0,5.5579,0.0,0.0,0.0,0.0,0.0,0.0,0.0,0.0,5.5708,0.0,5.5708,0.0,0.0,0.0,0.0,0.0,0.0,0.0,5.549,0.0,0.0,0.0,5.5708,0.0,0.0,0.0,0.0,0.0,0.0,0.0,5.6569,5.7011,5.7517,5.8357,5.9031,5.9492,6.0339,6.0806,6.0806,6.0806,6.0806,6.0806,6.0806,6.0806,6.0806,6.0806,6.0806,6.0806,6.0806,6.0806,6.0806,6.0806,6.0806,6.0979,6.2641,6.3295,6.3506,6.5263,6.5904,6.5904,4.406,4.3825,4.3587,4.3587,4.3373,4.3187,4.3187,4.3213,4.3245,4.3274,4.3483,4.3864,4.4493,4.4652,4.4954,4.5566,4.5651,4.5688,4.5688,4.5974,4.6158,4.6158,4.6415,4.6562,4.6562,4.714,4.7463,4.7574,4.8743,4.9356,4.9453,5.0038,5.0302,5.0302,5.0302,5.0436,5.0703,5.1576,5.2403,5.3225,5.4104,5.4849,5.5396,5.5396,5.5396,5.5396,5.5396,5.5396,5.5396,5.5396,5.5396,0.0,5.5396,0.0,5.542,0.0,0.0,0.0,5.5651,0.0,0.0,0.0,0.0,0.0,0.0,0.0,0.0,0.0,0.0,0.0,0.0,0.0,5.5631,5.542,0.0,5.5612,0.0,5.5555,0.0,0.0,0.0,0.0,0.0,0.0,0.0,0.0,0.0,5.5978,5.6613,5.7703,5.8569,5.9146,6.0223,6.0806,6.0806,6.0806,6.0806,6.0806,6.0806,6.0806,6.0806,6.0806,6.0806,6.0806,6.0806,6.0806,6.0806,6.0806,6.0806,6.0935,6.2397,6.3102,6.3506,6.5263,6.5904,6.5904,4.4109,4.3687,4.3312,4.3312,4.3087,4.291,4.291,4.3571,4.4108,4.4249,4.4931,4.549,4.5726,4.5754,4.5791,4.5883,4.5893,4.5893,4.5893,4.6617,4.7058,4.7058,4.7819,4.8223,4.8223,4.8241,4.8412,4.8753,4.9118,4.9468,4.9778,5.0138,5.0302,5.0302,5.0302,5.0774,5.1614,5.2422,5.3263,5.4123,5.5014,5.5377,5.5396,0.0,5.5396,5.5396,5.5396,0.0,0.0,5.5396,5.5396,0.0,0.0,0.0,0.0,0.0,0.0,0.0,0.0,0.0,0.0,5.5708,0.0,0.0,0.0,0.0,5.5708,0.0,0.0,0.0,0.0,5.5708,5.5458,5.4664,5.5189,0.0,0.0,0.0,0.0,0.0,0.0,0.0,0.0,0.0,0.0,0.0,0.0,0.0,5.5747,5.7376,5.8313,5.8333,5.9935,6.0806,6.0806,6.0806,6.0806,6.0806,6.0806,6.0806,6.0806,6.0806,6.0806,6.0806,6.0806,6.0806,6.0806,6.0806,6.0806,6.0883,6.1787,6.2608,6.3506,6.5263,6.5904,6.5904,4.3946,4.3828,4.3675,4.3587,4.3417,4.3442,4.3824,4.4579,4.5116,4.5154,4.5391,4.5793,4.6389,4.6549,4.6825,4.7357,4.7461,4.7489,4.7489,4.7746,4.7893,4.7893,4.815,4.8296,4.8296,4.8296,4.8363,4.8467,4.8797,4.9137,4.9483,4.9817,5.0082,5.0302,5.0302,5.0774,5.1652,5.2461,5.3301,5.418,5.5052,5.5396,5.5396,0.0,0.0,5.5396,5.5396,5.5396,0.0,5.5396,5.5396,5.5396,5.5396,5.5396,5.5403,5.5408,5.5432,0.0,0.0,0.0,5.5635,5.5698,0.0,0.0,0.0,0.0,0.0,0.0,0.0,0.0,0.0,5.5708,5.5612,5.5343,5.5516,5.5593,0.0,0.0,0.0,0.0,0.0,0.0,0.0,0.0,0.0,0.0,0.0,0.0,0.0,5.7357,5.8294,5.8294,5.9935,6.0806,6.0806,6.0806,6.0806,6.0806,6.0806,6.0806,6.0806,6.0806,6.0806,6.0806,6.0806,6.0806,6.0806,6.0806,6.0806,6.0883,6.1768,6.2589,6.3448,6.4609,6.5397,6.5904,4.4952,4.4975,4.4774,4.4169,4.4157,4.4418,4.493,4.5598,4.6032,4.6098,4.6345,4.6729,4.7269,4.7402,4.7669,0.0,4.8286,4.8296,4.8296,4.8296,0.0,4.8296,4.8296,4.8296,0.0,4.8296,4.8296,4.8296,4.8641,4.8908,4.9137,4.9577,4.9922,5.0132,5.0566,5.1232,5.2079,5.29,5.376,5.4619,5.5167,5.5396,0.0,0.0,5.5396,5.5396,0.0,5.5396,5.5396,5.5396,5.5396,5.5396,5.5396,5.5396,5.5403,5.539,5.5402,5.542,5.551,5.5545,0.0,5.564,5.5657,0.0,5.5684,0.0,0.0,0.0,0.0,0.0,0.0,0.0,5.5708,5.5708,5.5708,5.5708,0.0,5.5708,0.0,0.0,0.0,0.0,0.0,0.0,0.0,0.0,0.0,0.0,0.0,0.0,5.8294,5.8294,5.9935,6.0806,6.0806,6.0806,6.0806,6.0806,6.0806,6.0806,6.0806,6.0806,6.0806,6.0806,6.0806,6.0806,6.0806,6.0806,6.0806,6.0864,6.1422,6.232,6.341,6.4282,6.5147,6.5904,4.694,4.697,4.6532,4.5156,4.5343,4.5791,4.6105,4.6553,4.6928,4.7044,4.7731,4.8236,4.8287,4.8296,4.8296,4.8296,4.8296,4.8296,4.8296,4.8296,0.0,0.0,4.8296,4.8296,4.8296,0.0,0.0,4.8296,4.8623,4.8781,4.8816,4.9461,4.9778,4.9855,5.1065,5.2059,5.2868,5.3722,5.46,5.5396,5.5396,5.5396,5.5396,5.5396,5.5396,5.5396,5.5396,5.5396,5.5396,5.5396,5.5396,5.5396,5.5396,5.5396,5.5396,5.5396,5.5409,5.5395,5.5402,5.545,5.5516,5.5579,0.0,0.0,0.0,0.0,5.5708,0.0,0.0,0.0,0.0,0.0,0.0,5.5708,5.5708,5.5708,5.5708,5.5708,5.5708,0.0,0.0,0.0,0.0,0.0,0.0,0.0,0.0,0.0,0.0,0.0,5.8294,5.8294,5.9935,6.0806,6.0806,6.0806,6.0806,6.0806,6.0806,6.0806,6.0806,6.0806,6.0806,6.0806,6.0806,6.0806,6.0806,6.0806,6.0806,6.0806,6.0806,6.182,6.341,6.4339,6.5186,6.5904,4.7397,4.7739,4.8008,4.7983,4.7407,4.6921,0.0,0.0,0.0,4.7946,4.8157,4.8267,4.8296,4.8296,4.8296,4.8296,4.8296,0.0,0.0,0.0,0.0,4.8296,4.8296,4.8296,4.8296,4.8296,4.8296,4.8296,4.8383,4.8569,4.8816,4.9232,4.9556,4.9855,5.1065,5.2059,5.2868,5.3722,5.46,5.5396,5.5396,5.5396,5.5396,0.0,5.5396,5.5396,5.5396,5.5396,5.5396,5.5396,5.5396,5.5396,5.5396,5.5396,5.5396,5.5396,5.539,5.5396,5.5408,5.545,5.5516,5.5579,5.5629,5.5687,0.0,0.0,0.0,0.0,0.0,0.0,0.0,0.0,0.0,5.5708,5.5708,5.5708,5.5708,0.0,0.0,5.5708,0.0,0.0,0.0,0.0,0.0,0.0,0.0,0.0,0.0,0.0,0.0,5.8294,5.9935,6.0806,6.0806,6.0806,6.0806,6.0806,6.0806,6.0806,6.0806,6.0806,6.0806,6.0806,6.0806,6.0806,6.0806,6.0806,6.0806,6.0806,6.0806,6.182,6.3487,6.5013,6.5705,6.5904,4.8549,4.8698,4.8874,4.9141,4.8537,0.0,4.807,4.82,0.0,4.8296,4.8636,0.0,4.8866,4.9187,4.9389,4.9389,4.9077,0.0,4.8866,0.0,0.0,4.8296,4.8296,4.8296,4.8296,4.8296,0.0,4.8296,4.8296,4.8467,4.8816,4.9145,4.9671,5.043,5.1599,5.2594,5.3441,5.4295,5.4957,5.5396,5.5396,5.5396,0.0,5.5396,5.5396,5.5396,5.5396,5.5396,5.5396,5.5396,5.5396,5.5396,5.5396,5.5396,5.5396,5.5396,5.5396,5.539,5.5402,5.5432,5.548,5.5573,5.5624,5.5657,5.5684,5.5708,5.5708,0.0,0.0,0.0,0.0,0.0,0.0,5.5708,5.5708,5.5708,0.0,0.0,0.0,0.0,5.5708,0.0,0.0,0.0,0.0,0.0,0.0,0.0,0.0,0.0,0.0,5.8813,6.0108,6.0806,6.0806,6.0806,6.0806,6.0806,6.0806,6.0806,6.0806,6.0806,6.0806,6.0806,6.0806,6.0806,6.0806,6.0806,6.0806,6.0864,6.1608,6.2474,6.3506,6.5263,6.5904,6.5904,4.9864,4.962,4.9424,4.9367,4.9089,0.0,0.0,4.8869,0.0,4.8471,0.0,4.9747,4.9747,5.038,5.0802,5.0802,5.017,4.9711,4.961,4.8893,4.8406,4.8296,4.8296,4.8296,4.8296,4.8296,4.8296,0.0,4.8335,4.8514,4.8816,4.9305,5.0093,5.1151,5.2406,5.3454,5.4314,5.5072,5.5396,5.5396,5.5396,5.5396,5.5396,5.5396,5.5396,5.5396,5.5396,5.5396,5.5396,5.5396,5.5396,5.5396,5.5396,5.5396,5.5396,5.5396,5.5396,5.539,5.5396,5.5402,5.5444,5.5556,5.5596,5.5624,5.5698,5.5785,5.5843,5.5728,5.5785,5.5843,0.0,0.0,0.0,5.5708,0.0,0.0,0.0,0.0,0.0,0.0,0.0,0.0,0.0,0.0,0.0,0.0,0.0,0.0,0.0,0.0,0.0,5.9473,6.0339,6.0806,6.0806,0.0,6.0806,6.0806,6.0806,6.0806,6.0806,6.0806,6.0806,6.0806,6.0806,6.0806,6.0806,6.0806,6.0806,6.0979,6.2641,6.3295,6.3506,6.5263,6.5904,6.5904,5.0218,5.0162,5.0044,4.9757,4.9439,4.937,4.9811,4.9594,4.9362,4.9362,5.0078,5.0582,5.0582,5.0729,5.0802,5.0802,5.0674,0.0,0.0,0.0,0.0,4.8333,4.8296,4.8296,4.8296,4.8296,4.8296,0.0,0.0,4.8737,4.8834,5.0165,5.0899,5.117,5.3035,5.4352,5.5186,5.5339,0.0,5.5396,5.5396,5.5396,5.5396,5.5396,5.5396,5.5396,5.5396,5.5396,5.5396,5.5396,5.5396,5.5396,5.5396,5.5396,5.5396,5.5396,5.5396,5.5403,5.539,5.544,5.5492,5.5516,5.5596,5.5692,5.5703,5.6266,5.6574,5.5843,5.6266,5.6555,5.5824,0.0,0.0,0.0,0.0,0.0,0.0,0.0,0.0,0.0,0.0,5.5708,0.0,0.0,0.0,0.0,0.0,0.0,0.0,0.0,0.0,0.0,6.0339,0.0,0.0,0.0,6.0806,6.0806,6.0806,6.0806,6.0806,6.0806,6.0806,6.0806,6.0806,6.0806,6.0806,6.0806,6.0806,6.0979,6.2641,6.3295,6.3506,6.5263,6.5904,6.5904,5.0302,5.0302,5.0181,4.9857,0.0,0.0,0.0,5.0478,5.0702,5.028,5.0912,5.1426,5.1426,5.1793,5.204,5.204,5.1665,5.1271,5.0867,5.0445,4.9858,4.9013,4.8967,4.8765,4.8315,4.8296,4.8383,4.8569,0.0,4.9662,5.0028,5.1172,5.2054,5.2716,5.4142,5.5014,5.5396,0.0,0.0,5.5396,5.5396,5.5396,5.5396,5.5396,5.5396,5.5396,5.5396,5.5396,5.5396,5.5396,5.5396,5.5396,5.5396,5.5396,5.5396,5.5396,5.5396,5.5505,5.5944,5.6121,5.6283,5.6773,5.6982,5.7049,5.7049,5.7376,5.755,5.7146,5.7376,5.755,5.7126,5.7049,0.0,0.0,0.0,0.0,0.0,0.0,5.6362,0.0,0.0,0.0,0.0,0.0,0.0,0.0,0.0,0.0,0.0,0.0,0.0,0.0,0.0,0.0,0.0,0.0,0.0,6.0806,6.0806,6.0806,6.0806,6.0806,6.0806,6.0806,6.0806,6.0806,6.0806,6.0806,6.0806,6.0979,6.2641,6.3295,6.3506,6.5263,6.5904,6.5904,5.0181,5.0265,5.0234,0.0,5.0306,0.0,5.0444,5.1324,5.1767,5.1132,5.1756,5.2252,5.2252,5.2821,5.3196,5.3196,5.2619,5.2179,5.2005,5.1408,5.0692,4.9894,4.9858,4.9527,4.8847,4.8829,4.8955,0.0,0.0,0.0,0.0,5.2139,5.3292,5.4409,0.0,0.0,0.0,0.0,5.5409,5.5422,5.5422,5.5422,5.5422,5.5422,5.5422,5.5422,5.5422,5.5422,5.5422,5.5422,5.5403,5.5396,5.5396,5.5409,5.5435,5.5594,5.5677,5.5874,5.6735,5.7033,5.7267,5.8017,5.8249,5.8294,5.8294,5.8429,5.8511,5.8333,5.8294,5.8294,5.8294,5.8294,0.0,0.0,0.0,0.0,0.0,0.0,0.0,0.0,0.0,0.0,5.5997,0.0,0.0,0.0,0.0,0.0,0.0,0.0,0.0,0.0,0.0,6.0806,6.0806,0.0,6.0806,0.0,6.0806,6.0806,6.0806,6.0806,6.0806,6.0806,6.0806,6.0806,6.0806,6.0806,6.0806,6.0979,6.2641,6.3295,6.3506,6.5263,6.5904,6.5904,0.0,5.0193,0.0,0.0,0.0,0.0,5.175,5.1916,5.1969,5.1895,5.2601,5.3086,5.3086,5.3159,5.3196,5.3196,5.3122,5.2784,5.206,5.1932,5.1518,5.0729,5.0692,5.0655,5.0582,5.0582,5.0583,0.0,0.0,0.0,0.0,5.2876,5.4403,0.0,0.0,0.0,0.0,5.5389,5.5445,5.5486,5.5486,5.5486,5.5486,5.5486,5.5486,5.5486,5.5486,5.5486,5.5486,5.5486,5.544,5.5396,5.5396,5.5403,5.5536,5.6263,5.6524,5.6767,5.7647,5.7927,5.8009,5.8152,5.8249,5.8294,5.8294,5.8858,5.9184,5.8448,5.8294,5.8294,5.8294,5.8294,5.8294,0.0,0.0,0.0,0.0,0.0,5.8184,5.8184,0.0,0.0,0.0,5.6887,0.0,0.0,5.6887,0.0,0.0,0.0,0.0,6.0762,0.0,6.0806,6.0806,6.0806,6.0806,6.0806,6.0806,6.0806,6.0806,6.0806,6.0806,6.0806,6.0806,6.0806,6.0806,6.0806,6.0806,6.0979,6.2641,6.3295,6.3506,6.5263,6.5904,6.5904,0.0,0.0,0.0,0.0,0.0,0.0,0.0,5.2417,5.2729,5.2729,5.2994,5.3196,5.3196,5.3196,5.3196,5.3196,5.3196,5.3067,5.2747,5.2729,5.2362,5.1565,5.1518,5.1279,5.082,5.0802,5.0904,0.0,0.0,0.0,0.0,0.0,0.0,0.0,0.0,5.5215,5.5236,5.5395,5.548,5.5504,5.5504,5.5504,5.5504,5.5504,5.5504,5.5504,5.5504,5.5504,5.5504,5.5504,5.5488,5.5464,5.5464,5.5827,5.6305,5.6632,5.7104,5.7723,5.8553,5.8833,5.9004,5.9571,5.9753,5.98,5.98,6.005,6.0185,5.9877,5.98,5.98,5.98,5.98,5.98,0.0,0.0,0.0,0.0,0.0,0.0,5.9031,0.0,5.8165,0.0,0.0,0.0,0.0,0.0,0.0,0.0,0.0,0.0,6.0762,0.0,6.0806,6.0806,6.0806,6.0806,6.0806,6.0806,6.0806,6.0806,6.0806,6.0806,6.0806,6.0806,6.0806,6.0806,6.0806,6.0806,6.0979,6.2641,6.3295,6.3506,6.5263,6.5904,6.5904,5.0617,0.0,5.1068,0.0,5.2174,5.2631,5.2395,5.2829,5.3196,5.3196,5.3196,5.3196,5.3196,5.3196,5.3196,5.3196,5.3196,5.3196,5.3196,5.3196,5.2939,5.238,5.2344,0.0,5.1508,5.1518,5.1633,5.1879,5.285,0.0,0.0,0.0,0.0,0.0,5.4983,5.5155,5.5268,5.5456,5.5539,5.5556,5.5556,5.5556,5.5556,5.5556,5.5556,5.5556,5.5556,5.5716,5.5946,5.5946,5.6119,5.6261,5.5976,5.65,5.726,5.7472,5.7982,5.8653,5.9491,5.9752,5.9923,6.0562,6.0752,6.0806,6.0806,6.0806,6.0806,6.0806,6.0806,6.0806,6.0806,6.0806,6.0806,6.0806,0.0,0.0,0.0,0.0,0.0,0.0,5.9377,5.8934,5.8684,5.864,0.0,0.0,0.0,0.0,0.0,0.0,0.0,0.0,0.0,0.0,0.0,6.0806,6.0806,6.0806,6.0806,6.0806,6.0806,6.0806,6.0806,6.0806,6.0806,6.0806,6.0806,6.0806,6.0806,6.0979,6.2641,6.3295,6.3506,6.5263,6.5904,6.5904,5.1296,5.166,5.1979,5.1997,5.2666,5.3177,5.3196,5.3196,5.3196,5.3196,5.3196,5.3196,5.3196,5.3196,5.3196,5.3196,5.3196,5.3196,5.3196,5.3196,5.3196,0.0,0.0,5.3177,5.3177,5.3177,5.3212,5.3281,0.0,0.0,5.2813,0.0,5.3948,5.5094,5.5094,5.5275,5.559,5.5596,5.5629,5.5703,5.5703,5.5703,5.5703,5.5703,5.5703,5.5703,5.5703,5.6247,5.6978,5.6978,5.755,5.8079,5.7105,5.7431,5.833,5.9057,5.9311,5.9571,6.0442,6.0672,6.071,6.0788,6.0806,6.0806,6.0806,6.0806,6.0806,6.0806,6.0806,6.0806,6.0806,6.0806,6.0806,6.0806,0.0,0.0,0.0,0.0,0.0,6.0787,6.0787,6.0435,5.9569,5.9492,0.0,0.0,0.0,0.0,0.0,0.0,0.0,6.0806,6.0806,0.0,6.0806,6.0806,6.0806,6.0806,6.0806,6.0806,6.0806,6.0806,6.0806,6.0806,6.0806,6.0806,6.0806,6.0806,6.0806,6.0979,6.2641,6.3295,6.3506,6.5263,6.5904,6.5904,5.1672,5.1903,5.2171,5.2729,5.3031,5.3196,5.3196,5.3196,5.3196,5.3196,5.3196,5.3196,5.3196,5.3196,5.3196,0.0,5.3196,5.3196,0.0,5.3196,5.3196,5.3196,5.3196,5.3196,5.3196,5.3233,5.3277,5.3289,0.0,0.0,0.0,5.3854,5.4146,5.4552,5.4784,5.5083,5.5401,5.559,5.5687,5.5708,5.5708,5.5708,5.5708,5.5708,5.5708,5.5785,5.6362,5.6766,5.7093,5.7684,5.8434,5.9063,5.8735,5.885,5.9131,5.9363,5.9869,6.0411,6.07,6.0777,6.0763,6.08,6.0806,6.0806,6.0806,6.0806,6.0806,6.0806,6.0806,6.0806,6.0806,6.0806,6.0806,6.0806,6.0806,0.0,0.0,0.0,0.0,0.0,6.0806,6.0691,0.0,6.0396,0.0,0.0,0.0,0.0,0.0,0.0,0.0,0.0,6.0806,0.0,6.0806,6.0806,6.0806,6.0806,6.0806,6.0806,6.0806,6.0806,6.0806,6.0806,6.0806,6.0806,6.0806,6.0806,6.0806,6.0979,6.2641,6.3295,6.3506,6.5263,6.5904,6.5904,5.2344,5.2454,5.2619,5.3104,5.3196,5.3196,5.3196,5.3196,5.3196,5.3196,5.3196,5.3196,5.3196,5.3196,0.0,5.3196,5.3196,5.3196,5.3196,5.3196,5.3196,5.3196,5.322,5.3241,5.3241,0.0,0.0,5.3449,5.3766,5.3972,5.4045,5.4045,5.4213,5.4495,5.4708,5.5043,5.5455,5.5624,5.5708,5.5708,5.5708,5.5708,5.5747,5.6055,5.6189,5.6305,5.719,5.769,5.8017,5.8569,5.93,5.9992,5.9992,5.9992,5.9992,5.9992,6.0358,6.0806,6.0806,6.0806,6.0806,6.0806,6.0806,6.0806,6.0806,6.0806,6.0806,6.0806,6.0806,6.0806,6.0806,6.0806,6.0806,6.0806,6.0806,6.0806,6.0806,0.0,0.0,0.0,0.0,0.0,0.0,6.0806,6.0806,0.0,0.0,0.0,0.0,0.0,0.0,6.0806,6.0806,0.0,6.0806,6.0806,6.0806,6.0806,6.0806,6.0806,6.0806,6.0806,6.0806,6.0806,6.0806,6.0806,6.0806,6.0806,6.0806,6.0979,6.2641,6.3295,6.3506,6.5263,6.5904,6.5904,5.3196,5.3196,0.0,0.0,5.3196,0.0,5.3196,5.3196,5.3196,5.3196,5.3196,5.3206,5.3206,5.3217,5.3217,5.3217,0.0,0.0,0.0,5.3217,5.3217,5.3217,5.3285,5.33,5.33,5.3459,5.3578,5.3714,5.3774,5.3803,5.3803,5.3813,5.4177,5.4799,5.4821,5.5159,5.5708,5.5708,5.5708,5.5708,5.5708,5.5747,5.5882,5.6689,5.7036,5.7209,5.8069,5.8858,5.9511,5.9569,6.0127,6.0806,6.0806,6.0806,6.0806,6.0806,6.0806,6.0806,6.0806,6.0806,6.0806,6.0806,6.0806,6.0806,6.0806,6.0806,6.0806,6.0806,6.0806,6.0806,6.0806,6.0806,6.0806,6.0806,6.0806,6.0806,6.0806,0.0,0.0,0.0,0.0,0.0,0.0,6.0806,6.0806,0.0,0.0,0.0,0.0,0.0,6.0806,6.0806,6.0806,6.0806,6.0806,6.0806,6.0806,6.0806,6.0806,6.0806,6.0806,6.0806,6.0806,6.0806,6.0806,6.0806,6.0806,6.0806,6.0806,6.0979,6.2641,6.3295,6.3506,6.5263,6.5904,6.5904,0.0,0.0,5.3196,5.3196,5.3196,5.3196,5.3196,5.3196,5.3196,5.3196,5.3233,5.3285,5.3285,5.3367,5.3429,5.3429,5.3347,5.3285,5.3285,5.3378,5.3429,5.3429,5.343,5.344,5.344,5.3578,5.3686,5.3793,5.3793,5.3803,5.3813,5.4063,5.4397,5.4806,5.5076,5.5363,5.5708,5.5708,5.5708,5.5708,5.5708,5.6093,5.6709,5.6926,5.742,5.8107,5.8915,5.9338,5.9608,6.0262,6.0633,6.0806,6.0806,6.0806,6.0806,6.0806,6.0806,6.0806,6.0806,6.0806,6.0806,6.0806,6.0806,6.0806,6.0806,6.0806,6.0806,6.0806,6.0806,6.0806,6.0806,6.0806,6.0806,6.0806,6.0806,6.0806,6.0806,6.0806,0.0,0.0,6.0806,6.0806,6.0806,6.0806,6.0806,0.0,0.0,0.0,0.0,6.0806,6.0806,6.0806,6.0806,6.0806,6.0806,6.0806,6.0806,6.0806,6.0806,6.0806,6.0806,6.0806,6.0806,6.0806,6.0806,6.0806,6.0806,6.0806,6.0806,6.0979,6.2641,6.3295,6.3506,6.5263,6.5904,6.5904,5.3196,5.322,5.3241,5.3206,5.328,5.3324,5.3261,5.3303,5.3334,5.3334,5.3378,5.339,5.339,5.3469,5.3509,5.3509,5.343,5.339,5.339,5.3451,5.3509,5.3509,5.3568,5.3588,5.3588,5.3686,5.3764,5.3803,5.3803,5.3803,5.3794,5.399,5.4322,5.4806,5.4981,5.5307,5.5708,5.5708,5.5708,5.5728,5.6132,5.6574,5.7074,5.7844,5.8434,5.8954,5.9781,6.0089,6.0165,6.0646,6.0806,6.0806,6.0806,6.0806,6.0806,6.0806,6.0806,6.0806,6.0806,6.0806,6.0806,6.0806,6.0806,6.0806,6.0806,6.0806,6.0806,6.0806,6.0806,6.0806,6.0806,6.0806,6.0806,6.0806,6.0806,6.0806,6.0806,6.0806,0.0,6.0806,6.0806,6.0806,6.0806,6.0806,6.0806,6.0806,6.0806,0.0,6.0806,6.0806,6.0806,6.0806,6.0806,6.0806,6.0806,6.0806,6.0806,6.0806,6.0806,6.0806,6.0806,6.0806,6.0806,6.0806,6.0806,6.0806,6.0806,6.0806,6.0806,6.0979,6.2641,6.3295,6.3506,6.5263,6.5904,6.5904,5.3227,5.3274,5.3308,5.3269,5.3396,5.3451,5.3349,5.342,5.3509,5.3509,5.3519,5.3529,5.3529,5.3539,5.3549,5.3549,5.3549,5.3539,5.3529,5.3539,5.3549,5.3549,5.3647,5.3715,5.3715,5.3774,5.3803,5.3803,5.3803,5.3803,5.3794,5.3889,5.4255,5.4799,5.4902,5.5218,5.5708,5.5708,5.5708,5.5785,5.6651,5.7074,5.7363,5.8915,5.9588,5.98,6.0531,6.0806,6.0806,6.0806,6.0806,6.0806,6.0806,6.0806,6.0806,6.0806,6.0806,6.0806,6.0806,6.0806,6.0806,6.0806,6.0806,6.0806,6.0806,6.0806,6.0806,6.0806,6.0806,6.0806,6.0806,6.0806,6.0806,6.0806,6.0806,6.0806,6.0806,0.0,6.0806,6.0806,6.0806,6.0806,6.0806,6.0806,6.0806,6.0806,6.0806,6.0806,0.0,6.0806,6.0806,6.0806,6.0806,6.0806,6.0806,6.0806,6.0806,6.0806,6.0806,6.0806,6.0806,6.0806,6.0806,6.0806,6.0806,6.0806,6.0806,6.0806,6.0806,6.0954,6.2506,6.3179,6.3506,6.5109,6.5788,6.5904,5.3287,5.338,5.3479,5.3459,5.3479,5.3499,5.3461,5.3499,5.3509,5.3509,5.3598,5.3666,5.3666,5.3725,5.3746,5.3746,5.3746,5.3726,5.3666,5.3725,5.3746,5.3746,5.3774,5.3784,5.3784,5.3793,5.3803,5.3803,5.3803,5.3803,5.3804,5.4372,5.47,5.4821,5.5326,5.5618,5.5708,5.5708,5.5708,5.5785,5.6651,5.744,5.8204,5.9146,5.9954,6.0614,6.0748,6.0806,6.0806,6.0806,6.0806,6.0806,6.0806,6.0806,6.0806,6.0806,6.0806,6.0806,6.0806,6.0806,6.0806,6.0806,6.0806,6.0806,6.0806,6.0806,6.0806,6.0806,6.0806,6.0806,6.0806,6.0806,6.0806,6.0806,6.0806,6.0806,6.0806,0.0,6.0806,6.0806,6.0806,6.0806,6.0806,6.0806,6.0806,6.0806,6.0806,6.0806,6.0806,6.0806,6.0806,6.0806,6.0806,6.0806,6.0806,6.0806,6.0806,6.0806,6.0806,6.0806,6.0806,6.0806,6.0806,6.0806,6.0806,6.0806,6.0806,6.0806,6.0806,6.0902,6.1903,6.2704,6.3429,6.4436,6.5263,6.5904,5.341,5.3509,5.3588,5.3519,5.3599,5.3648,5.3608,5.3629,5.3668,5.3668,5.3725,5.3754,5.3754,5.3774,5.3803,5.3803,5.3803,5.3784,5.3754,5.3774,5.3803,5.3803,5.3803,5.3803,5.3803,5.3803,5.3803,5.3803,5.3803,5.3803,5.3804,5.4288,5.4631,5.4821,5.5282,5.5549,5.5708,5.5708,5.5978,5.6478,5.7343,5.8204,5.905,5.9877,6.0454,6.0806,6.0806,6.0806,6.0806,6.0806,6.0806,6.0806,6.0806,6.0806,6.0806,6.0806,6.0806,6.0806,6.0806,6.0806,6.0806,6.0806,6.0806,6.0806,6.0806,6.0806,6.0806,6.0806,6.0806,6.0806,6.0806,6.0806,6.0806,6.0806,6.0806,0.0,0.0,6.0806,6.0806,6.0806,6.0806,6.0806,6.0806,6.0806,6.0806,6.0806,6.0806,6.0806,6.0806,6.0806,6.0806,6.0806,6.0806,6.0806,6.0806,6.0806,6.0806,6.0806,6.0806,6.0836,6.0911,6.0911,6.0911,6.0911,6.0911,6.0861,6.0806,6.0806,6.0806,6.0883,6.1768,6.2589,6.341,6.4282,6.5147,6.5904,5.3558,5.3637,5.3676,5.3589,5.3707,5.3774,5.3734,5.3774,5.3803,5.3803,5.3803,5.3803,5.3803,5.3803,5.3803,5.3803,5.3803,5.3803,5.3803,5.3803,5.3803,5.3803,5.3803,5.3803,5.3803,5.3803,5.3803,5.3803,5.3803,5.3832,5.3917,5.4264,5.4599,5.4924,5.525,5.5516,5.5708,5.592,5.6382,5.7093,5.8146,5.8954,5.9608,6.0473,6.0806,6.0806,6.0806,6.0806,6.0806,6.0806,6.0806,6.0806,6.0806,6.0806,6.0806,6.0806,6.0806,6.0806,6.0806,6.0806,6.0806,6.0806,6.0806,6.0806,6.0806,6.0806,6.0806,6.0806,6.0806,6.0806,6.0806,6.0806,6.0806,6.0806,0.0,0.0,0.0,6.0806,6.0806,6.0806,6.0806,6.0806,6.0806,6.0806,6.0806,6.0806,6.0806,6.0806,6.0806,6.0806,6.0806,6.0806,6.0806,6.0806,6.0806,6.0806,6.0806,6.0806,6.0806,6.0845,6.0949,6.0998,6.0974,6.0968,6.0998,6.0918,6.0806,6.0806,6.0806,6.0864,6.1537,6.23,6.3121,6.3968,6.4859,6.5628,5.3694,5.3745,5.3793,5.3784,5.3793,5.3803,5.3793,5.3803,5.3803,5.3803,5.3803,5.3803,5.3803,5.3803,5.3803,5.3803,5.3803,5.3803,5.3803,5.3803,5.3803,5.3803,5.3803,5.3803,5.3803,5.3803,5.3803,5.3803,5.3803,5.3963,5.4272,5.4607,5.4938,5.5282,5.5556,5.5673,5.5747,5.6555,5.6945,5.7132,5.8761,5.9454,5.9608,6.0473,6.0806,6.0806,6.0806,6.0806,6.0806,6.0806,6.0806,6.0806,6.0806,6.0806,6.0806,6.0806,6.0806,6.0806,6.0806,6.0806,6.0806,6.0806,6.0806,6.0806,6.0806,6.0806,6.0806,6.0806,6.0806,6.0806,6.0806,6.0806,6.0806,6.0806,0.0,0.0,6.0806,6.0806,6.0806,6.0806,6.0806,6.0806,6.0806,6.0806,6.0806,6.0806,6.0806,6.0806,6.0806,6.0806,6.0806,6.0806,6.0806,6.0806,6.0806,6.0806,6.0806,6.0806,6.0806,6.0812,6.0821,6.0929,6.0933,6.0821,6.0953,6.0918,6.0806,6.0806,6.0806,6.0806,6.0864,6.1422,6.2287,6.3108,6.3948,6.4801,5.3764,5.3774,5.3803,5.3803,5.3803,5.3803,5.3803,5.3803,5.3803,5.3803,5.3803,5.3803,5.3803,5.3803,5.3803,5.3803,5.3803,5.3803,5.3803,5.3803,5.3803,5.3803,5.3803,5.3803,5.3803,5.3803,5.3803,5.3803,5.3803,5.387,5.399,5.4544,5.4866,5.5002,5.5491,5.5708,5.5766,5.6632,5.7305,5.7915,5.905,5.9819,6.0339,6.0671,6.0806,6.0806,6.0806,6.0806,6.0806,6.0806,6.0806,6.0806,6.0806,6.0806,6.0806,6.0806,6.0806,6.0806,6.0806,6.0806,6.0806,6.0806,6.0806,6.0806,6.0806,6.0806,6.0806,6.0806,6.0806,6.0806,6.0806,6.0806,6.0806,6.0806,0.0,6.0806,6.0806,6.0806,6.0806,6.0806,6.0806,6.0806,6.0806,6.0806,6.0806,6.0806,6.0806,6.0806,6.0806,6.0806,6.0806,6.0806,6.0806,6.0806,6.0806,6.0806,6.0806,6.0806,6.0806,6.0842,6.0923,6.0983,6.0974,6.0923,6.0983,6.0918,6.0806,6.0806,6.0806,6.0806,6.0806,6.1325,6.2191,6.3006,6.3852,6.4724,5.3803,5.3803,5.3803,5.3803,5.3803,5.3803,5.3803,5.3803,5.3803,5.3803,5.3803,5.3803,5.3803,5.3803,5.3803,5.3803,5.3803,5.3803,5.3803,5.3803,5.3803,5.3803,5.3803,5.3803,5.3803,5.3803,5.3803,5.3803,5.3803,5.3917,5.4115,5.4583,5.4902,5.5105,5.552,5.5708,5.5785,5.692,5.7742,5.839,5.9473,6.0262,6.0806,6.0806,6.0806,6.0806,6.0806,6.0806,6.0806,6.0806,6.0806,6.0806,6.0806,6.0806,6.0806,6.0806,6.0806,6.0806,6.0806,6.0806,6.0806,6.0806,6.0806,6.0806,6.0806,6.0806,6.0806,6.0806,6.0806,6.0806,6.0806,6.0806,6.0806,6.0806,6.0806,6.0806,6.0806,6.0806,6.0806,6.0806,6.0806,6.0806,6.0806,6.0806,6.0806,6.0806,6.0806,6.0806,6.0806,6.0806,6.0806,6.0806,6.0806,6.0806,6.0806,6.0806,6.0806,6.0806,6.0806,6.0853,6.0943,6.1015,6.1037,6.1002,6.1046,6.0983,6.085,6.0816,6.0806,6.0806,6.0806,6.1172,6.1826,6.2891,6.3679,6.4359,5.3803,5.3803,5.3803,5.3803,5.3803,5.3803,5.3803,5.3803,5.3803,5.3803,5.3803,5.3803,5.3803,5.3803,5.3803,5.3803,5.3803,5.3803,5.3803,5.3803,5.3803,5.3803,5.3803,5.3803,5.3803,5.3803,5.3803,5.3803,5.3794,5.4133,5.4799,5.4799,5.5125,5.5703,5.5708,5.5708,5.5824,5.7569,5.8294,5.8454,6.0127,6.0806,6.0806,6.0806,6.0806,6.0806,6.0806,6.0806,6.0806,6.0806,6.0806,6.0806,6.0806,6.0806,6.0806,6.0806,6.0806,6.0806,6.0806,6.0806,6.0806,6.0806,6.0806,6.0806,6.0806,6.0806,6.0806,6.0806,6.0806,6.0806,6.0806,6.0806,6.0806,6.0806,6.0806,6.0806,6.0806,6.0806,6.0806,6.0806,6.0806,6.0806,6.0806,6.0806,6.0806,6.0806,6.0806,6.0806,6.0806,6.0806,6.0806,6.0806,6.0806,6.0806,6.0806,6.0806,6.0806,6.0806,6.0806,6.0806,6.0804,6.1074,6.1116,6.1007,6.1136,6.1112,6.0978,6.0845,6.0806,6.0806,6.0806,6.0806,6.0993,6.2679,6.3295,6.3545,5.3803,5.3803,5.3803,5.3803,5.3803,5.3803,5.3803,5.3803,5.3803,5.3803,5.3803,5.3803,5.3803,5.3803,5.3803,5.3803,5.3803,5.3803,5.3803,5.3803,5.3803,5.3803,5.3803,5.3803,5.3803,5.3803,5.3803,5.3803,5.4035,5.4255,5.4463,5.4931,5.5243,5.5425,5.5613,5.6035,5.6689,5.7819,5.8627,5.9242,6.0339,6.0806,6.0806,6.0806,6.0806,6.0806,6.0806,6.0806,6.0806,6.0806,6.0806,6.0806,6.0806,6.0806,6.0806,6.0806,6.0806,6.0806,6.0806,6.0806,6.0806,6.0806,6.0806,6.0806,6.0806,6.0806,6.0806,6.0806,6.0806,6.0806,6.0806,6.0806,6.0806,6.0806,6.0806,6.0806,6.0806,6.0806,6.0806,6.0806,6.0806,6.0806,6.0806,6.0806,6.0806,6.0806,6.0806,6.0806,6.0806,6.0806,6.0806,6.0806,6.0806,6.0806,6.0806,6.0806,6.0806,6.0806,6.0806,6.0806,6.0806,6.0874,6.0901,6.0856,6.0906,6.0896,6.0864,6.0816,6.0806,6.0806,6.0806,6.0806,6.0993,6.2679,6.3295,6.3545,5.3803,5.3803,5.3803,5.3803,5.3803,5.3803,5.3803,5.3803,5.3803,5.3803,5.3803,5.3803,5.3803,5.3803,5.3803,5.3803,5.3803,5.3803,5.3803,5.3803,5.3803,5.3803,5.3803,5.3803,5.3803,5.3803,5.3803,5.3803,5.4143,5.4364,5.4511,5.5043,5.5358,5.5461,5.5624,5.6189,5.706,5.7934,5.8756,5.9588,6.0454,6.0806,6.0806,6.0806,6.0806,6.0806,6.0806,6.0806,6.0806,6.0806,6.0806,6.0806,6.0806,6.0806,6.0806,6.0806,6.0806,6.0806,6.0806,6.0806,6.0806,6.0806,6.0806,6.0806,6.0806,6.0806,6.0806,6.0806,6.0806,6.0806,6.0806,6.0806,6.0806,6.0806,6.0806,6.0806,6.0806,6.0806,6.0806,6.0806,6.0806,6.0806,6.0806,6.0806,6.0806,6.0806,6.0806,6.0806,6.0806,6.0806,6.0806,6.0806,6.0806,6.0806,6.0806,6.0806,6.0806,6.0806,6.0806,6.0806,6.0806,6.0845,6.0883,6.0883,6.0883,6.0883,6.0877,6.0821,6.0806,6.0806,6.0806,6.0806,6.096,6.232,6.3031,6.3506,5.3803,5.3803,5.3803,5.3803,5.3803,5.3803,5.3803,5.3803,5.3803,5.3803,5.3803,5.3803,5.3803,5.3803,5.3803,5.3803,5.3803,5.3803,5.3803,5.3803,5.3803,5.3803,5.3803,5.3803,5.3803,5.3803,5.3803,5.3803,5.4178,5.4503,5.4806,5.5171,5.5461,5.5708,5.5708,5.6189,5.706,5.7934,5.8756,5.9588,6.0454,6.0806,6.0806,6.0806,6.0806,6.0806,6.0806,6.0806,6.0806,6.0806,6.0806,6.0806,6.0806,6.0806,6.0806,6.0806,6.0806,6.0806,6.0806,6.0806,6.0806,6.0806,6.0806,6.0806,6.0806,6.0806,6.0806,6.0806,6.0806,6.0806,6.0806,6.0806,6.0806,6.0806,6.0806,6.0806,6.0806,6.0806,6.0806,6.0806,6.0806,6.0806,6.0806,6.0806,6.0806,6.0806,6.0806,6.0806,6.0806,6.0806,6.0806,6.0806,6.0806,6.0806,6.0806,6.0806,6.0806,6.0806,6.0806,6.0806,6.0793,6.0923,6.0974,6.0974,6.0974,6.0974,6.0978,6.0853,6.0806,6.0806,6.0806,6.0806,6.0921,6.1787,6.2608,6.3448,5.3803,5.3803,5.3803,5.3803,5.3803,5.3803,5.3803,5.3803,5.3803,5.3803,5.3803,5.3803,5.3803,5.3803,5.3803,5.3803,5.3803,5.3803,5.3803,5.3803,5.3803,5.3803,5.3803,5.3803,5.3803,5.3803,5.3803,5.3803,5.4397,5.4731,5.4806,5.5363,5.564,5.5708,5.5708,5.6189,5.706,5.7934,5.8756,5.9588,6.0454,6.0806,6.0806,6.0806,6.0806,6.0806,6.0806,6.0806,6.0806,6.0806,6.0806,6.0806,6.0806,6.0806,6.0806,6.0806,6.0806,6.0806,6.0806,6.0806,6.0806,6.0806,6.0806,6.0806,6.0806,6.0806,6.0806,6.0806,6.0806,6.0806,6.0806,6.0806,6.0806,6.0806,6.0806,6.0806,6.0806,6.0806,6.0806,6.0806,6.0806,6.0806,6.0806,6.0806,6.0806,6.0806,6.0806,6.0806,6.0806,6.0806,6.0806,6.0806,6.0806,6.0806,6.0806,6.0806,6.0806,6.0806,6.0806,6.0806,6.0806,6.0839,6.0842,6.0842,6.0842,6.0842,6.0836,6.0804,6.0806,6.0806,6.0806,6.0806,6.0921,6.1787,6.2608,6.3525,5.3803,5.3803,5.3803,5.3803,5.3803,5.3803,5.3803,5.3803,5.3803,5.3803,5.3803,5.3803,5.3803,5.3803,5.3803,5.3803,5.3803,5.3803,5.3803,5.3803,5.3803,5.3803,5.3803,5.3803,5.3803,5.3803,5.3803,5.3803,5.4315,5.4646,5.4806,5.5288,5.5579,5.5708,5.5708,5.6189,5.706,5.7934,5.8756,5.9588,6.0454,6.0806,6.0806,6.0806,6.0806,6.0806,6.0806,6.0806,6.0806,6.0806,6.0806,6.0806,6.0806,6.0806,6.0806,6.0806,6.0806,6.0806,6.0806,6.0806,6.0806,6.0806,6.0806,6.0806,6.0806,6.0806,6.0806,6.0806,6.0806,6.0806,6.0806,6.0806,6.0806,6.0806,6.0806,6.0806,6.0806,6.0806,6.0806,6.0806,6.0806,6.0806,6.0806,6.0806,6.0806,6.0806,6.0806,6.0806,6.0806,6.0806,6.0806,6.0806,6.0806,6.0806,6.0806,6.0806,6.0806,6.0806,6.0806,6.0806,6.0806,6.0806,6.0806,6.0806,6.0806,6.0806,6.0806,6.0806,6.0806,6.0806,6.0806,6.0806,6.0864,6.1306,6.2243,6.3551,5.3803,5.3803,5.3803,5.3803,5.3803,5.3803,5.3803,5.3803,5.3803,5.3803,5.3803,5.3803,5.3803,5.3803,5.3803,5.3803,5.3803,5.3803,5.3803,5.3803,5.3803,5.3803,5.3803,5.3803,5.3803,5.3803,5.3803,5.3803,5.4143,5.4471,5.4806,5.5144,5.5437,5.5708,5.5708,5.6093,5.6843,5.7877,5.8684,5.9377,6.0396,6.0806,6.0806,6.0806,6.0806,6.0806,6.0806,6.0806,6.0806,6.0806,6.0806,6.0806,6.0806,6.0806,6.0806,6.0806,6.0806,6.0806,6.0806,6.0806,6.0806,6.0806,6.0806,6.0806,6.0806,6.0806,6.0806,6.0806,6.0806,6.0806,6.0806,6.0806,6.0806,6.0806,6.0806,6.0806,6.0806,6.0806,6.0806,6.0806,6.0806,6.0806,6.0806,6.0806,6.0806,6.0806,6.0806,6.0806,6.0806,6.0806,6.0806,6.0806,6.0806,6.0806,6.0806,6.0806,6.0806,6.0806,6.0806,6.0806,6.0806,6.0806,6.0806,6.0806,6.0806,6.0806,6.0806,6.0806,6.0806,6.0806,6.0806,6.0806,6.0819,6.1108,6.2114,6.3569,5.3803,5.3803,5.3803,5.3803,5.3803,5.3803,5.3803,5.3803,5.3803,5.3803,5.3803,5.3803,5.3803,5.3803,5.3803,5.3803,5.3803,5.3803,5.3803,5.3803,5.3803,5.3803,5.3803,5.3803,5.3803,5.3803,5.3803,5.3803,5.4143,5.4471,5.4806,5.5144,5.5437,5.5708,5.5708,5.5766,5.5978,5.7607,5.8352,5.8602,6.0165,6.0806,6.0806,6.0806,6.0806,6.0806,6.0806,6.0806,6.0806,6.0806,6.0806,6.0806,6.0806,6.0806,6.0806,6.0806,6.0806,6.0806,6.0806,6.0806,6.0806,6.0806,6.0806,6.0806,6.0806,6.0806,6.0806,6.0806,6.0806,6.0806,6.0806,6.0806,6.0806,6.0806,6.0806,6.0806,6.0806,6.0806,6.0806,6.0806,6.0806,6.0806,6.0806,6.0806,6.0806,6.0806,6.0806,6.0806,6.0806,6.0806,6.0806,6.0806,6.0806,6.0806,6.0806,6.0806,6.0806,6.0806,6.0806,6.0806,6.0806,6.0806,6.0806,6.0806,6.0806,6.0806,6.0806,6.0806,6.0806,6.0806,6.0806,6.0806,6.0973,6.2429,6.3138,6.3634,5.3803,5.3803,5.3803,5.3803,5.3803,5.3803,5.3803,5.3803,5.3803,5.3803,5.3803,5.3803,5.3803,5.3803,5.3803,5.3803,5.3803,5.3803,5.3803,5.3803,5.3803,5.3803,5.3803,5.3803,5.3803,5.3803,5.3803,5.3803,5.3944,5.4289,5.4799,5.4945,5.525,5.5708,5.5708,5.5708,5.5805,5.7569,5.8294,5.8454,6.0127,6.0806,6.0806,6.0806,6.0806,6.0806,6.0806,6.0806,6.0806,6.0806,6.0806,6.0806,6.0806,6.0806,6.0806,6.0806,6.0806,6.0806,6.0806,6.0806,6.0806,6.0806,6.0806,6.0806,6.0806,6.0806,6.0806,6.0806,6.0806,6.0806,6.0806,6.0806,6.0806,6.0806,6.0806,6.0806,6.0806,6.0806,6.0806,6.0806,6.0806,6.0806,6.0806,6.0806,6.0806,6.0806,6.0806,6.0806,6.0806,6.0806,6.0806,6.0806,6.0806,6.0806,6.0806,6.0806,6.0806,6.0806,6.0806,6.0806,6.0806,6.0806,6.0806,6.0806,6.0806,6.0806,6.0806,6.0806,6.0806,6.0806,6.0806,6.0823,6.1064,6.2739,6.339,6.3717]}]]